Time,TemperatureF,DewpointF,PressureIn,WindDirection,WindDirectionDegrees,WindSpeedMPH,WindSpeedGustMPH,Humidity,HourlyPrecipIn,Conditions,Clouds,dailyrainin,SoftwareType,DateUTC
2013-02-15 00:00:00,50.0,32.2,30.06,SE,135,5.6,5.6,50,0.00,,---,0.00,VWS V14.01,2013-02-15 06:00:00,
2013-02-15 00:01:00,49.2,31.8,30.06,ESE,112,6.5,7.8,51,0.00,,---,0.00,VWS V14.01,2013-02-15 06:01:00,
2013-02-15 00:03:00,49.3,32.0,30.06,SE,135,3.6,5.6,51,0.00,,---,0.00,VWS V14.01,2013-02-15 06:03:00,
2013-02-15 00:04:00,49.3,32.0,30.06,ESE,112,2.5,5.6,51,0.00,,---,0.00,VWS V14.01,2013-02-15 06:04:00,
2013-02-15 00:05:00,50.4,32.0,30.09,ESE,112,8.1,8.1,49,0.00,,---,0.00,VWS V14.01,2013-02-15 06:05:00,
2013-02-15 00:06:00,49.5,32.2,30.06,SE,135,2.9,6.3,51,0.00,,---,0.00,VWS V14.01,2013-02-15 06:06:00,
2013-02-15 00:07:00,49.5,31.7,30.06,ESE,112,4.3,6.3,50,0.00,,---,0.00,VWS V14.01,2013-02-15 06:07:00,
2013-02-15 00:08:00,49.7,31.8,30.06,SE,135,6.3,6.3,50,0.00,,---,0.00,VWS V14.01,2013-02-15 06:08:00,
2013-02-15 00:10:00,50.9,32.0,30.09,SE,135,5.6,7.4,48,0.00,,---,0.00,VWS V14.01,2013-02-15 06:10:00,
2013-02-15 00:11:00,50.0,32.2,30.06,SE,135,4.3,7.4,50,0.00,,---,0.00,VWS V14.01,2013-02-15 06:11:00,
2013-02-15 00:12:00,50.0,32.2,30.06,SE,135,4.3,5.6,50,0.00,,---,0.00,VWS V14.01,2013-02-15 06:12:00,
2013-02-15 00:13:00,50.2,32.3,30.06,SSE,158,3.4,5.4,50,0.00,,---,0.00,VWS V14.01,2013-02-15 06:13:00,
2013-02-15 00:14:00,50.2,31.8,30.06,SSE,158,5.6,6.5,49,0.00,,---,0.00,VWS V14.01,2013-02-15 06:14:00,
2013-02-15 00:15:00,50.9,32.0,30.09,SE,135,5.4,7.8,48,0.00,,---,0.00,VWS V14.01,2013-02-15 06:15:00,
2013-02-15 00:16:00,50.4,32.0,30.06,East,90,6.5,6.5,49,0.00,,---,0.00,VWS V14.01,2013-02-15 06:16:00,
2013-02-15 00:17:00,50.4,32.0,30.09,ESE,112,8.1,8.1,49,0.00,,---,0.00,VWS V14.01,2013-02-15 06:17:00,
2013-02-15 00:18:00,50.6,32.2,30.09,SE,135,3.8,8.1,49,0.00,,---,0.00,VWS V14.01,2013-02-15 06:18:00,
2013-02-15 00:19:00,50.8,32.3,30.09,ESE,112,5.8,5.8,49,0.00,,---,0.00,VWS V14.01,2013-02-15 06:19:00,
2013-02-15 00:20:00,50.6,31.6,30.09,South,180,4.9,6.0,48,0.00,,---,0.00,VWS V14.01,2013-02-15 06:20:00,
2013-02-15 00:21:00,50.8,32.3,30.09,SE,135,3.8,6.0,49,0.00,,---,0.00,VWS V14.01,2013-02-15 06:21:00,
2013-02-15 00:22:00,50.9,32.0,30.09,SE,135,5.6,7.4,48,0.00,,---,0.00,VWS V14.01,2013-02-15 06:22:00,
2013-02-15 00:23:00,50.9,32.0,30.09,SSE,158,2.5,6.0,48,0.00,,---,0.00,VWS V14.01,2013-02-15 06:23:00,
2013-02-15 00:24:00,50.9,32.0,30.09,SE,135,6.3,6.3,48,0.00,,---,0.00,VWS V14.01,2013-02-15 06:24:00,
2013-02-15 00:25:00,50.0,31.1,30.09,SE,135,2.0,2.5,48,0.00,,---,0.00,VWS V14.01,2013-02-15 06:25:00,
2013-02-15 00:28:00,50.9,32.0,30.09,SSE,158,3.8,7.4,48,0.00,,---,0.00,VWS V14.01,2013-02-15 06:28:00,
2013-02-15 00:29:00,50.9,32.0,30.09,SE,135,4.7,5.4,48,0.00,,---,0.00,VWS V14.01,2013-02-15 06:29:00,
2013-02-15 00:30:00,49.2,30.8,30.09,SE,135,0.0,0.0,49,0.00,,---,0.00,VWS V14.01,2013-02-15 06:30:00,
2013-02-15 00:31:00,50.8,31.8,30.09,South,180,6.0,6.0,48,0.00,,---,0.00,VWS V14.01,2013-02-15 06:31:00,
2013-02-15 00:32:00,50.6,31.6,30.09,South,180,4.9,6.0,48,0.00,,---,0.00,VWS V14.01,2013-02-15 06:32:00,
2013-02-15 00:33:00,50.4,31.5,30.09,ESE,112,5.8,5.8,48,0.00,,---,0.00,VWS V14.01,2013-02-15 06:33:00,
2013-02-15 00:34:00,50.4,31.5,30.09,ESE,112,4.7,5.8,48,0.00,,---,0.00,VWS V14.01,2013-02-15 06:34:00,
2013-02-15 00:35:00,48.6,30.4,30.09,ESE,112,1.1,2.0,49,0.00,,---,0.00,VWS V14.01,2013-02-15 06:35:00,
2013-02-15 00:36:00,50.2,31.3,30.09,South,180,1.6,4.9,48,0.00,,---,0.00,VWS V14.01,2013-02-15 06:36:00,
2013-02-15 00:37:00,50.0,31.1,30.09,SE,135,2.0,2.5,48,0.00,,---,0.00,VWS V14.01,2013-02-15 06:37:00,
2013-02-15 00:38:00,49.9,31.0,30.09,SSE,158,1.6,2.0,48,0.00,,---,0.00,VWS V14.01,2013-02-15 06:38:00,
2013-02-15 00:39:00,49.7,30.8,30.09,SSE,158,2.9,3.4,48,0.00,,---,0.00,VWS V14.01,2013-02-15 06:39:00,
2013-02-15 00:40:00,48.1,29.9,30.09,SE,135,1.6,1.6,49,0.00,,---,0.00,VWS V14.01,2013-02-15 06:40:00,
2013-02-15 00:41:00,49.3,31.0,30.09,SE,135,0.0,3.4,49,0.00,,---,0.00,VWS V14.01,2013-02-15 06:41:00,
2013-02-15 00:42:00,49.2,30.8,30.09,SE,135,0.0,0.0,49,0.00,,---,0.00,VWS V14.01,2013-02-15 06:42:00,
2013-02-15 00:43:00,49.2,30.8,30.09,SSW,202,2.9,2.9,49,0.00,,---,0.00,VWS V14.01,2013-02-15 06:43:00,
2013-02-15 00:44:00,49.0,30.7,30.09,SSE,158,2.5,2.9,49,0.00,,---,0.00,VWS V14.01,2013-02-15 06:44:00,
2013-02-15 00:45:00,48.1,30.4,30.09,ESE,112,3.6,3.6,50,0.00,,---,0.00,VWS V14.01,2013-02-15 06:45:00,
2013-02-15 00:46:00,48.6,30.4,30.09,SE,135,1.3,2.2,49,0.00,,---,0.00,VWS V14.01,2013-02-15 06:46:00,
2013-02-15 00:47:00,48.6,30.4,30.09,ESE,112,2.0,2.0,49,0.00,,---,0.00,VWS V14.01,2013-02-15 06:47:00,
2013-02-15 00:48:00,48.3,30.0,30.09,ESE,112,2.0,2.7,49,0.00,,---,0.00,VWS V14.01,2013-02-15 06:48:00,
2013-02-15 00:49:00,48.3,30.5,30.09,ESE,112,2.5,2.9,50,0.00,,---,0.00,VWS V14.01,2013-02-15 06:49:00,
2013-02-15 00:50:00,48.1,29.9,30.12,East,90,1.3,2.7,49,0.00,,---,0.00,VWS V14.01,2013-02-15 06:50:00,
2013-02-15 00:51:00,48.3,30.5,30.09,ESE,112,1.6,3.1,50,0.00,,---,0.00,VWS V14.01,2013-02-15 06:51:00,
2013-02-15 00:52:00,48.1,29.9,30.09,SE,135,1.6,1.6,49,0.00,,---,0.00,VWS V14.01,2013-02-15 06:52:00,
2013-02-15 00:53:00,48.1,29.9,30.09,SE,135,3.1,3.4,49,0.00,,---,0.00,VWS V14.01,2013-02-15 06:53:00,
2013-02-15 00:54:00,48.1,30.4,30.09,ESE,112,1.6,3.1,50,0.00,,---,0.00,VWS V14.01,2013-02-15 06:54:00,
2013-02-15 00:55:00,47.9,29.7,30.12,SE,135,2.2,2.2,49,0.00,,---,0.00,VWS V14.01,2013-02-15 06:55:00,
2013-02-15 00:56:00,48.1,30.4,30.09,ESE,112,1.6,4.0,50,0.00,,---,0.00,VWS V14.01,2013-02-15 06:56:00,
2013-02-15 00:57:00,48.1,30.4,30.09,ESE,112,3.6,3.6,50,0.00,,---,0.00,VWS V14.01,2013-02-15 06:57:00,
2013-02-15 00:58:00,48.1,30.4,30.09,East,90,3.6,3.6,50,0.00,,---,0.00,VWS V14.01,2013-02-15 06:58:00,
2013-02-15 00:59:00,48.1,30.4,30.09,East,90,2.5,3.6,50,0.00,,---,0.00,VWS V14.01,2013-02-15 06:59:00,
2013-02-15 01:00:00,47.8,29.5,30.12,SE,135,2.2,2.2,49,0.00,,---,0.00,VWS V14.01,2013-02-15 07:00:00,
2013-02-15 01:01:00,48.1,29.9,30.09,SE,135,2.2,3.6,49,0.00,,---,0.00,VWS V14.01,2013-02-15 07:01:00,
2013-02-15 01:02:00,48.1,29.9,30.12,East,90,1.3,2.7,49,0.00,,---,0.00,VWS V14.01,2013-02-15 07:02:00,
2013-02-15 01:03:00,48.1,29.9,30.12,SE,135,2.2,4.7,49,0.00,,---,0.00,VWS V14.01,2013-02-15 07:03:00,
2013-02-15 01:04:00,47.9,29.7,30.12,SE,135,2.2,2.2,49,0.00,,---,0.00,VWS V14.01,2013-02-15 07:04:00,
2013-02-15 01:05:00,47.4,29.7,30.12,SE,135,2.2,2.2,50,0.00,,---,0.00,VWS V14.01,2013-02-15 07:05:00,
2013-02-15 01:06:00,47.9,29.7,30.12,SE,135,2.2,2.2,49,0.00,,---,0.00,VWS V14.01,2013-02-15 07:06:00,
2013-02-15 01:07:00,47.9,29.7,30.12,SE,135,2.2,2.2,49,0.00,,---,0.00,VWS V14.01,2013-02-15 07:07:00,
2013-02-15 01:08:00,47.9,29.7,30.12,SE,135,2.2,2.2,49,0.00,,---,0.00,VWS V14.01,2013-02-15 07:08:00,
2013-02-15 01:09:00,47.9,29.7,30.12,SE,135,2.2,2.2,49,0.00,,---,0.00,VWS V14.01,2013-02-15 07:09:00,
2013-02-15 01:10:00,46.7,29.0,30.12,SE,135,2.2,2.2,50,0.00,,---,0.00,VWS V14.01,2013-02-15 07:10:00,
2013-02-15 01:11:00,47.8,29.5,30.12,SE,135,2.2,2.2,49,0.00,,---,0.00,VWS V14.01,2013-02-15 07:11:00,
2013-02-15 01:12:00,47.8,29.5,30.12,SE,135,2.2,2.2,49,0.00,,---,0.00,VWS V14.01,2013-02-15 07:12:00,
2013-02-15 01:13:00,47.6,29.9,30.12,SE,135,2.2,2.2,50,0.00,,---,0.00,VWS V14.01,2013-02-15 07:13:00,
2013-02-15 01:14:00,47.6,29.9,30.12,SE,135,2.2,2.2,50,0.00,,---,0.00,VWS V14.01,2013-02-15 07:14:00,
2013-02-15 01:15:00,46.5,28.9,30.12,SE,135,2.2,2.2,50,0.00,,---,0.00,VWS V14.01,2013-02-15 07:15:00,
2013-02-15 01:16:00,47.6,29.9,30.12,SE,135,2.2,2.2,50,0.00,,---,0.00,VWS V14.01,2013-02-15 07:16:00,
2013-02-15 01:17:00,47.4,29.7,30.12,SE,135,2.2,2.2,50,0.00,,---,0.00,VWS V14.01,2013-02-15 07:17:00,
2013-02-15 01:18:00,47.2,29.5,30.12,SE,135,2.2,2.2,50,0.00,,---,0.00,VWS V14.01,2013-02-15 07:18:00,
2013-02-15 01:19:00,47.0,29.4,30.12,SE,135,2.2,2.2,50,0.00,,---,0.00,VWS V14.01,2013-02-15 07:19:00,
2013-02-15 01:20:00,46.7,29.0,30.12,SE,135,2.2,2.2,50,0.00,,---,0.00,VWS V14.01,2013-02-15 07:20:00,
2013-02-15 01:21:00,46.9,29.2,30.12,SE,135,2.2,2.2,50,0.00,,---,0.00,VWS V14.01,2013-02-15 07:21:00,
2013-02-15 01:22:00,46.7,29.0,30.12,SE,135,2.2,2.2,50,0.00,,---,0.00,VWS V14.01,2013-02-15 07:22:00,
2013-02-15 01:23:00,46.7,29.0,30.12,SE,135,2.2,2.2,50,0.00,,---,0.00,VWS V14.01,2013-02-15 07:23:00,
2013-02-15 01:24:00,46.7,29.0,30.12,SE,135,2.2,2.2,50,0.00,,---,0.00,VWS V14.01,2013-02-15 07:24:00,
2013-02-15 01:25:00,46.3,28.7,30.12,ESE,112,1.6,1.6,50,0.00,,---,0.00,VWS V14.01,2013-02-15 07:25:00,
2013-02-15 01:26:00,46.5,28.9,30.12,SE,135,2.2,2.2,50,0.00,,---,0.00,VWS V14.01,2013-02-15 07:26:00,
2013-02-15 01:27:00,46.5,28.9,30.12,SE,135,2.2,2.2,50,0.00,,---,0.00,VWS V14.01,2013-02-15 07:27:00,
2013-02-15 01:28:00,46.5,28.9,30.12,SE,135,2.2,2.2,50,0.00,,---,0.00,VWS V14.01,2013-02-15 07:28:00,
2013-02-15 01:29:00,46.7,29.0,30.12,SE,135,2.2,2.2,50,0.00,,---,0.00,VWS V14.01,2013-02-15 07:29:00,
2013-02-15 01:30:00,46.2,28.6,30.12,East,90,2.2,2.2,50,0.00,,---,0.00,VWS V14.01,2013-02-15 07:30:00,
2013-02-15 01:31:00,46.7,29.0,30.12,SE,135,2.2,2.2,50,0.00,,---,0.00,VWS V14.01,2013-02-15 07:31:00,
2013-02-15 01:32:00,46.7,29.0,30.12,SE,135,2.2,2.2,50,0.00,,---,0.00,VWS V14.01,2013-02-15 07:32:00,
2013-02-15 01:33:00,46.5,28.9,30.12,SE,135,2.2,2.2,50,0.00,,---,0.00,VWS V14.01,2013-02-15 07:33:00,
2013-02-15 01:34:00,46.5,28.9,30.12,ENE,68,0.0,2.2,50,0.00,,---,0.00,VWS V14.01,2013-02-15 07:34:00,
2013-02-15 01:35:00,46.3,28.7,30.12,East,90,2.7,2.7,50,0.00,,---,0.00,VWS V14.01,2013-02-15 07:35:00,
2013-02-15 01:36:00,46.3,28.7,30.12,ESE,112,1.1,1.6,50,0.00,,---,0.00,VWS V14.01,2013-02-15 07:36:00,
2013-02-15 01:37:00,46.3,28.7,30.12,ESE,112,1.6,1.6,50,0.00,,---,0.00,VWS V14.01,2013-02-15 07:37:00,
2013-02-15 01:38:00,46.3,28.7,30.12,ESE,112,1.3,2.2,50,0.00,,---,0.00,VWS V14.01,2013-02-15 07:38:00,
2013-02-15 01:39:00,46.3,28.7,30.12,SE,135,0.0,1.6,50,0.00,,---,0.00,VWS V14.01,2013-02-15 07:39:00,
2013-02-15 01:40:00,46.5,28.9,30.12,East,90,0.0,0.0,50,0.00,,---,0.00,VWS V14.01,2013-02-15 07:40:00,
2013-02-15 01:42:00,46.2,28.6,30.12,East,90,2.2,2.2,50,0.00,,---,0.00,VWS V14.01,2013-02-15 07:42:00,
2013-02-15 01:43:00,46.2,28.6,30.12,ESE,112,2.2,2.5,50,0.00,,---,0.00,VWS V14.01,2013-02-15 07:43:00,
2013-02-15 01:44:00,46.3,28.7,30.12,ENE,68,2.9,2.9,50,0.00,,---,0.00,VWS V14.01,2013-02-15 07:44:00,
2013-02-15 01:45:00,46.2,28.6,30.12,SE,135,0.0,2.2,50,0.00,,---,0.00,VWS V14.01,2013-02-15 07:45:00,
2013-02-15 01:46:00,46.3,28.7,30.12,ESE,112,2.0,2.2,50,0.00,,---,0.00,VWS V14.01,2013-02-15 07:46:00,
2013-02-15 01:47:00,46.3,28.7,30.12,SE,135,2.7,2.7,50,0.00,,---,0.00,VWS V14.01,2013-02-15 07:47:00,
2013-02-15 01:48:00,46.5,28.9,30.12,East,90,2.9,2.9,50,0.00,,---,0.00,VWS V14.01,2013-02-15 07:48:00,
2013-02-15 01:49:00,46.5,28.9,30.12,East,90,2.0,2.9,50,0.00,,---,0.00,VWS V14.01,2013-02-15 07:49:00,
2013-02-15 01:50:00,46.9,29.2,30.09,South,180,2.7,4.9,50,0.00,,---,0.00,VWS V14.01,2013-02-15 07:50:00,
2013-02-15 01:52:00,46.5,28.9,30.12,East,90,0.0,0.0,50,0.00,,---,0.00,VWS V14.01,2013-02-15 07:52:00,
2013-02-15 01:53:00,46.3,28.7,30.12,East,90,0.0,0.0,50,0.00,,---,0.00,VWS V14.01,2013-02-15 07:53:00,
2013-02-15 01:54:00,46.3,28.7,30.12,ESE,112,2.5,2.5,50,0.00,,---,0.00,VWS V14.01,2013-02-15 07:54:00,
2013-02-15 01:55:00,47.2,29.5,30.09,ESE,112,3.6,6.0,50,0.00,,---,0.00,VWS V14.01,2013-02-15 07:55:00,
2013-02-15 01:56:00,46.3,28.7,30.12,SE,135,2.2,2.2,50,0.00,,---,0.00,VWS V14.01,2013-02-15 07:56:00,
2013-02-15 01:57:00,46.2,28.6,30.12,SE,135,0.0,2.2,50,0.00,,---,0.00,VWS V14.01,2013-02-15 07:57:00,
2013-02-15 01:58:00,46.2,28.6,30.12,South,180,3.1,3.1,50,0.00,,---,0.00,VWS V14.01,2013-02-15 07:58:00,
2013-02-15 01:59:00,46.3,28.7,30.12,SSE,158,2.9,3.1,50,0.00,,---,0.00,VWS V14.01,2013-02-15 07:59:00,
2013-02-15 02:00:00,47.4,29.7,30.09,SSE,158,3.1,4.0,50,0.00,,---,0.00,VWS V14.01,2013-02-15 08:00:00,
2013-02-15 02:02:00,46.9,29.2,30.09,South,180,2.7,4.9,50,0.00,,---,0.00,VWS V14.01,2013-02-15 08:02:00,
2013-02-15 02:03:00,47.0,29.4,30.09,South,180,4.0,4.3,50,0.00,,---,0.00,VWS V14.01,2013-02-15 08:03:00,
2013-02-15 02:04:00,47.0,29.9,30.09,SE,135,3.6,4.0,51,0.00,,---,0.00,VWS V14.01,2013-02-15 08:04:00,
2013-02-15 02:05:00,47.6,29.9,30.12,SSE,158,4.3,4.3,50,0.00,,---,0.00,VWS V14.01,2013-02-15 08:05:00,
2013-02-15 02:06:00,47.2,30.0,30.09,SE,135,3.1,3.4,51,0.00,,---,0.00,VWS V14.01,2013-02-15 08:06:00,
2013-02-15 02:07:00,47.2,29.5,30.09,ESE,112,3.6,6.0,50,0.00,,---,0.00,VWS V14.01,2013-02-15 08:07:00,
2013-02-15 02:08:00,47.4,29.7,30.09,SE,135,2.7,3.6,50,0.00,,---,0.00,VWS V14.01,2013-02-15 08:08:00,
2013-02-15 02:09:00,47.4,29.7,30.09,ESE,112,3.4,3.4,50,0.00,,---,0.00,VWS V14.01,2013-02-15 08:09:00,
2013-02-15 02:10:00,47.4,29.7,30.12,SSE,158,2.0,3.1,50,0.00,,---,0.00,VWS V14.01,2013-02-15 08:10:00,
2013-02-15 02:11:00,47.4,29.7,30.09,SSE,158,2.7,3.8,50,0.00,,---,0.00,VWS V14.01,2013-02-15 08:11:00,
2013-02-15 02:12:00,47.4,29.7,30.09,SSE,158,3.1,4.0,50,0.00,,---,0.00,VWS V14.01,2013-02-15 08:12:00,
2013-02-15 02:13:00,47.6,29.9,30.09,SE,135,4.7,4.7,50,0.00,,---,0.00,VWS V14.01,2013-02-15 08:13:00,
2013-02-15 02:14:00,47.6,29.9,30.09,South,180,2.2,4.7,50,0.00,,---,0.00,VWS V14.01,2013-02-15 08:14:00,
2013-02-15 02:15:00,46.5,28.9,30.12,South,180,1.3,2.2,50,0.00,,---,0.00,VWS V14.01,2013-02-15 08:15:00,
2013-02-15 02:16:00,47.6,29.9,30.09,SE,135,4.0,4.0,50,0.00,,---,0.00,VWS V14.01,2013-02-15 08:16:00,
2013-02-15 02:17:00,47.6,29.9,30.12,SSE,158,4.3,4.3,50,0.00,,---,0.00,VWS V14.01,2013-02-15 08:17:00,
2013-02-15 02:18:00,47.6,29.9,30.12,SE,135,3.1,4.3,50,0.00,,---,0.00,VWS V14.01,2013-02-15 08:18:00,
2013-02-15 02:19:00,47.6,29.9,30.12,South,180,3.4,3.4,50,0.00,,---,0.00,VWS V14.01,2013-02-15 08:19:00,
2013-02-15 02:20:00,46.3,29.2,30.12,SSE,158,3.1,3.8,51,0.00,,---,0.00,VWS V14.01,2013-02-15 08:20:00,
2013-02-15 02:21:00,47.4,29.7,30.12,SE,135,3.1,3.1,50,0.00,,---,0.00,VWS V14.01,2013-02-15 08:21:00,
2013-02-15 02:22:00,47.4,29.7,30.12,SSE,158,2.0,3.1,50,0.00,,---,0.00,VWS V14.01,2013-02-15 08:22:00,
2013-02-15 02:23:00,47.2,29.5,30.12,SE,135,1.1,2.2,50,0.00,,---,0.00,VWS V14.01,2013-02-15 08:23:00,
2013-02-15 02:24:00,47.0,29.4,30.12,SSE,158,2.2,2.2,50,0.00,,---,0.00,VWS V14.01,2013-02-15 08:24:00,
2013-02-15 02:25:00,46.3,28.7,30.12,SSE,158,2.2,3.1,50,0.00,,---,0.00,VWS V14.01,2013-02-15 08:25:00,
2013-02-15 02:27:00,46.5,28.9,30.12,South,180,1.3,2.2,50,0.00,,---,0.00,VWS V14.01,2013-02-15 08:27:00,
2013-02-15 02:28:00,46.5,28.9,30.12,South,180,2.2,2.2,50,0.00,,---,0.00,VWS V14.01,2013-02-15 08:28:00,
2013-02-15 02:29:00,46.5,28.9,30.12,South,180,1.6,2.2,50,0.00,,---,0.00,VWS V14.01,2013-02-15 08:29:00,
2013-02-15 02:30:00,46.3,28.7,30.12,SE,135,3.6,3.6,50,0.00,,---,0.00,VWS V14.01,2013-02-15 08:30:00,
2013-02-15 02:31:00,46.3,28.7,30.12,South,180,2.0,2.9,50,0.00,,---,0.00,VWS V14.01,2013-02-15 08:31:00,
2013-02-15 02:32:00,46.3,29.2,30.12,SSE,158,3.1,3.8,51,0.00,,---,0.00,VWS V14.01,2013-02-15 08:32:00,
2013-02-15 02:33:00,46.3,29.2,30.12,South,180,1.6,3.1,51,0.00,,---,0.00,VWS V14.01,2013-02-15 08:33:00,
2013-02-15 02:34:00,46.3,29.2,30.12,SSE,158,2.5,3.1,51,0.00,,---,0.00,VWS V14.01,2013-02-15 08:34:00,
2013-02-15 02:35:00,46.3,28.7,30.12,SSE,158,3.1,3.1,50,0.00,,---,0.00,VWS V14.01,2013-02-15 08:35:00,
2013-02-15 02:36:00,46.3,28.7,30.12,South,180,2.9,3.4,50,0.00,,---,0.00,VWS V14.01,2013-02-15 08:36:00,
2013-02-15 02:37:00,46.3,28.7,30.12,SSE,158,2.2,3.1,50,0.00,,---,0.00,VWS V14.01,2013-02-15 08:37:00,
2013-02-15 02:38:00,46.2,28.6,30.12,SE,135,0.9,2.2,50,0.00,,---,0.00,VWS V14.01,2013-02-15 08:38:00,
2013-02-15 02:39:00,46.2,28.6,30.12,SE,135,2.7,2.9,50,0.00,,---,0.00,VWS V14.01,2013-02-15 08:39:00,
2013-02-15 02:40:00,46.3,28.2,30.12,SE,135,0.9,2.5,49,0.00,,---,0.00,VWS V14.01,2013-02-15 08:40:00,
2013-02-15 02:41:00,46.2,28.6,30.12,SSE,158,0.0,2.9,50,0.00,,---,0.00,VWS V14.01,2013-02-15 08:41:00,
2013-02-15 02:42:00,46.3,28.7,30.12,SE,135,3.6,3.6,50,0.00,,---,0.00,VWS V14.01,2013-02-15 08:42:00,
2013-02-15 02:43:00,46.3,28.7,30.12,East,90,1.6,3.6,50,0.00,,---,0.00,VWS V14.01,2013-02-15 08:43:00,
2013-02-15 02:44:00,46.3,28.7,30.12,ESE,112,2.0,2.2,50,0.00,,---,0.00,VWS V14.01,2013-02-15 08:44:00,
2013-02-15 02:45:00,46.2,28.1,30.12,ESE,112,2.9,3.6,49,0.00,,---,0.00,VWS V14.01,2013-02-15 08:45:00,
2013-02-15 02:46:00,46.3,28.7,30.12,SE,135,1.6,2.5,50,0.00,,---,0.00,VWS V14.01,2013-02-15 08:46:00,
2013-02-15 02:47:00,46.3,28.7,30.12,SSE,158,3.1,3.1,50,0.00,,---,0.00,VWS V14.01,2013-02-15 08:47:00,
2013-02-15 02:48:00,46.3,28.7,30.12,SSE,158,1.3,3.1,50,0.00,,---,0.00,VWS V14.01,2013-02-15 08:48:00,
2013-02-15 02:49:00,46.3,28.2,30.12,ENE,68,2.5,2.7,49,0.00,,---,0.00,VWS V14.01,2013-02-15 08:49:00,
2013-02-15 02:50:00,46.0,27.9,30.12,East,90,1.6,3.1,49,0.00,,---,0.00,VWS V14.01,2013-02-15 08:50:00,
2013-02-15 02:51:00,46.3,28.2,30.12,East,90,2.5,2.9,49,0.00,,---,0.00,VWS V14.01,2013-02-15 08:51:00,
2013-02-15 02:52:00,46.3,28.2,30.12,SE,135,0.9,2.5,49,0.00,,---,0.00,VWS V14.01,2013-02-15 08:52:00,
2013-02-15 02:53:00,46.2,28.1,30.12,SE,135,2.0,2.7,49,0.00,,---,0.00,VWS V14.01,2013-02-15 08:53:00,
2013-02-15 02:54:00,46.2,28.1,30.12,South,180,0.9,2.0,49,0.00,,---,0.00,VWS V14.01,2013-02-15 08:54:00,
2013-02-15 02:55:00,45.8,27.7,30.12,ENE,68,3.1,3.4,49,0.00,,---,0.00,VWS V14.01,2013-02-15 08:55:00,
2013-02-15 02:57:00,46.2,28.1,30.12,SSE,158,3.4,3.6,49,0.00,,---,0.00,VWS V14.01,2013-02-15 08:57:00,
2013-02-15 02:58:00,46.2,28.1,30.12,SE,135,1.6,3.4,49,0.00,,---,0.00,VWS V14.01,2013-02-15 08:58:00,
2013-02-15 02:59:00,46.2,28.1,30.12,SE,135,2.2,2.9,49,0.00,,---,0.00,VWS V14.01,2013-02-15 08:59:00,
2013-02-15 03:00:00,46.0,27.9,30.12,SE,135,1.1,1.1,49,0.00,,---,0.00,VWS V14.01,2013-02-15 09:00:00,
2013-02-15 03:01:00,46.2,28.1,30.12,East,90,2.0,3.8,49,0.00,,---,0.00,VWS V14.01,2013-02-15 09:01:00,
2013-02-15 03:02:00,46.0,27.9,30.12,East,90,1.6,3.1,49,0.00,,---,0.00,VWS V14.01,2013-02-15 09:02:00,
2013-02-15 03:03:00,46.0,27.9,30.12,East,90,2.0,2.5,49,0.00,,---,0.00,VWS V14.01,2013-02-15 09:03:00,
2013-02-15 03:04:00,45.8,28.2,30.12,East,90,0.0,2.7,50,0.00,,---,0.00,VWS V14.01,2013-02-15 09:04:00,
2013-02-15 03:05:00,45.8,27.7,30.12,ESE,112,2.7,3.1,49,0.00,,---,0.00,VWS V14.01,2013-02-15 09:05:00,
2013-02-15 03:06:00,45.8,27.7,30.12,ENE,68,3.4,3.4,49,0.00,,---,0.00,VWS V14.01,2013-02-15 09:06:00,
2013-02-15 03:07:00,45.8,27.7,30.12,ENE,68,3.1,3.4,49,0.00,,---,0.00,VWS V14.01,2013-02-15 09:07:00,
2013-02-15 03:08:00,46.0,27.9,30.12,East,90,3.4,3.8,49,0.00,,---,0.00,VWS V14.01,2013-02-15 09:08:00,
2013-02-15 03:09:00,46.0,27.9,30.12,East,90,2.0,3.4,49,0.00,,---,0.00,VWS V14.01,2013-02-15 09:09:00,
2013-02-15 03:10:00,45.8,27.7,30.12,SE,135,2.0,4.3,49,0.00,,---,0.00,VWS V14.01,2013-02-15 09:10:00,
2013-02-15 03:11:00,46.0,27.9,30.12,SE,135,0.0,3.4,49,0.00,,---,0.00,VWS V14.01,2013-02-15 09:11:00,
2013-02-15 03:13:00,45.8,27.7,30.12,SE,135,3.1,3.1,49,0.00,,---,0.00,VWS V14.01,2013-02-15 09:13:00,
2013-02-15 03:14:00,45.8,27.7,30.12,SE,135,2.5,3.6,49,0.00,,---,0.00,VWS V14.01,2013-02-15 09:14:00,
2013-02-15 03:15:00,45.8,27.7,30.12,ESE,112,2.2,2.7,49,0.00,,---,0.00,VWS V14.01,2013-02-15 09:15:00,
2013-02-15 03:16:00,45.8,27.7,30.12,ESE,112,1.3,2.5,49,0.00,,---,0.00,VWS V14.01,2013-02-15 09:16:00,
2013-02-15 03:17:00,45.8,27.7,30.12,ESE,112,2.7,3.1,49,0.00,,---,0.00,VWS V14.01,2013-02-15 09:17:00,
2013-02-15 03:18:00,45.8,27.7,30.12,East,90,2.9,3.4,49,0.00,,---,0.00,VWS V14.01,2013-02-15 09:18:00,
2013-02-15 03:19:00,45.8,27.7,30.12,ESE,112,2.0,2.9,49,0.00,,---,0.00,VWS V14.01,2013-02-15 09:19:00,
2013-02-15 03:20:00,45.8,27.7,30.12,ESE,112,3.1,3.6,49,0.00,,---,0.00,VWS V14.01,2013-02-15 09:20:00,
2013-02-15 03:21:00,45.8,27.7,30.12,ESE,112,2.5,4.3,49,0.00,,---,0.00,VWS V14.01,2013-02-15 09:21:00,
2013-02-15 03:22:00,45.8,27.7,30.12,SE,135,2.0,4.3,49,0.00,,---,0.00,VWS V14.01,2013-02-15 09:22:00,
2013-02-15 03:23:00,45.8,27.7,30.12,ESE,112,2.5,3.1,49,0.00,,---,0.00,VWS V14.01,2013-02-15 09:23:00,
2013-02-15 03:24:00,46.0,27.9,30.12,East,90,3.6,3.8,49,0.00,,---,0.00,VWS V14.01,2013-02-15 09:24:00,
2013-02-15 03:25:00,45.6,27.6,30.12,ESE,112,3.4,3.4,49,0.00,,---,0.00,VWS V14.01,2013-02-15 09:25:00,
2013-02-15 03:26:00,45.8,27.7,30.12,ESE,112,2.5,3.1,49,0.00,,---,0.00,VWS V14.01,2013-02-15 09:26:00,
2013-02-15 03:27:00,45.8,27.7,30.12,ESE,112,2.2,2.7,49,0.00,,---,0.00,VWS V14.01,2013-02-15 09:27:00,
2013-02-15 03:28:00,45.8,27.7,30.12,SE,135,4.3,4.3,49,0.00,,---,0.00,VWS V14.01,2013-02-15 09:28:00,
2013-02-15 03:29:00,45.8,27.7,30.12,East,90,2.7,4.3,49,0.00,,---,0.00,VWS V14.01,2013-02-15 09:29:00,
2013-02-15 03:30:00,45.5,27.4,30.12,East,90,2.5,2.7,49,0.00,,---,0.00,VWS V14.01,2013-02-15 09:30:00,
2013-02-15 03:31:00,45.8,27.7,30.12,SE,135,3.4,5.6,49,0.00,,---,0.00,VWS V14.01,2013-02-15 09:31:00,
2013-02-15 03:32:00,45.8,27.7,30.12,ESE,112,3.1,3.6,49,0.00,,---,0.00,VWS V14.01,2013-02-15 09:32:00,
2013-02-15 03:33:00,45.8,27.7,30.12,SE,135,3.4,3.6,49,0.00,,---,0.00,VWS V14.01,2013-02-15 09:33:00,
2013-02-15 03:34:00,45.8,27.7,30.12,ESE,112,2.5,3.4,49,0.00,,---,0.00,VWS V14.01,2013-02-15 09:34:00,
2013-02-15 03:35:00,45.1,27.1,30.09,SE,135,1.6,1.6,49,0.00,,---,0.00,VWS V14.01,2013-02-15 09:35:00,
2013-02-15 03:36:00,45.6,27.6,30.12,ESE,112,2.7,2.9,49,0.00,,---,0.00,VWS V14.01,2013-02-15 09:36:00,
2013-02-15 03:37:00,45.6,27.6,30.12,ESE,112,3.4,3.4,49,0.00,,---,0.00,VWS V14.01,2013-02-15 09:37:00,
2013-02-15 03:38:00,45.6,27.6,30.12,SE,135,4.0,4.0,49,0.00,,---,0.00,VWS V14.01,2013-02-15 09:38:00,
2013-02-15 03:39:00,45.6,27.6,30.12,ESE,112,2.7,4.3,49,0.00,,---,0.00,VWS V14.01,2013-02-15 09:39:00,
2013-02-15 03:40:00,44.9,27.4,30.09,East,90,2.0,3.1,50,0.00,,---,0.00,VWS V14.01,2013-02-15 09:40:00,
2013-02-15 03:41:00,45.6,27.6,30.12,ESE,112,2.2,3.8,49,0.00,,---,0.00,VWS V14.01,2013-02-15 09:41:00,
2013-02-15 03:42:00,45.5,27.4,30.12,East,90,2.5,2.7,49,0.00,,---,0.00,VWS V14.01,2013-02-15 09:42:00,
2013-02-15 03:43:00,45.5,27.4,30.12,ESE,112,2.7,3.1,49,0.00,,---,0.00,VWS V14.01,2013-02-15 09:43:00,
2013-02-15 03:44:00,45.3,27.7,30.12,East,90,2.7,2.7,50,0.00,,---,0.00,VWS V14.01,2013-02-15 09:44:00,
2013-02-15 03:45:00,44.9,27.4,30.09,East,90,1.6,3.1,50,0.00,,---,0.00,VWS V14.01,2013-02-15 09:45:00,
2013-02-15 03:46:00,45.3,27.7,30.12,SE,135,1.6,2.5,50,0.00,,---,0.00,VWS V14.01,2013-02-15 09:46:00,
2013-02-15 03:47:00,45.1,27.1,30.09,SE,135,1.6,1.6,49,0.00,,---,0.00,VWS V14.01,2013-02-15 09:47:00,
2013-02-15 03:48:00,45.1,27.6,30.09,SE,135,0.9,1.6,50,0.00,,---,0.00,VWS V14.01,2013-02-15 09:48:00,
2013-02-15 03:49:00,44.9,26.9,30.09,East,90,1.6,1.6,49,0.00,,---,0.00,VWS V14.01,2013-02-15 09:49:00,
2013-02-15 03:50:00,44.9,27.4,30.12,ESE,112,2.0,2.7,50,0.00,,---,0.00,VWS V14.01,2013-02-15 09:50:00,
2013-02-15 03:51:00,44.7,27.2,30.09,ESE,112,3.1,3.1,50,0.00,,---,0.00,VWS V14.01,2013-02-15 09:51:00,
2013-02-15 03:52:00,44.9,27.4,30.09,East,90,2.0,3.1,50,0.00,,---,0.00,VWS V14.01,2013-02-15 09:52:00,
2013-02-15 03:53:00,44.9,27.4,30.09,East,90,2.7,3.6,50,0.00,,---,0.00,VWS V14.01,2013-02-15 09:53:00,
2013-02-15 03:54:00,44.9,27.4,30.09,East,90,3.8,3.8,50,0.00,,---,0.00,VWS V14.01,2013-02-15 09:54:00,
2013-02-15 03:55:00,44.9,27.4,30.12,ESE,112,2.7,2.9,50,0.00,,---,0.00,VWS V14.01,2013-02-15 09:55:00,
2013-02-15 03:56:00,44.9,27.4,30.09,East,90,2.5,3.6,50,0.00,,---,0.00,VWS V14.01,2013-02-15 09:56:00,
2013-02-15 03:57:00,44.9,27.4,30.09,East,90,1.6,3.1,50,0.00,,---,0.00,VWS V14.01,2013-02-15 09:57:00,
2013-02-15 03:58:00,44.9,27.4,30.09,ESE,112,2.5,2.9,50,0.00,,---,0.00,VWS V14.01,2013-02-15 09:58:00,
2013-02-15 03:59:00,44.9,27.4,30.09,ESE,112,1.6,2.5,50,0.00,,---,0.00,VWS V14.01,2013-02-15 09:59:00,
2013-02-15 04:00:00,45.1,27.6,30.12,SE,135,2.5,2.5,50,0.00,,---,0.00,VWS V14.01,2013-02-15 10:00:00,
2013-02-15 04:01:00,44.9,27.4,30.09,East,90,2.0,3.8,50,0.00,,---,0.00,VWS V14.01,2013-02-15 10:01:00,
2013-02-15 04:02:00,44.9,27.4,30.12,ESE,112,2.0,2.7,50,0.00,,---,0.00,VWS V14.01,2013-02-15 10:02:00,
2013-02-15 04:03:00,44.9,27.4,30.12,East,90,2.5,4.0,50,0.00,,---,0.00,VWS V14.01,2013-02-15 10:03:00,
2013-02-15 04:04:00,44.9,27.4,30.12,East,90,2.5,2.7,50,0.00,,---,0.00,VWS V14.01,2013-02-15 10:04:00,
2013-02-15 04:05:00,44.9,27.4,30.12,ESE,112,2.5,2.7,50,0.00,,---,0.00,VWS V14.01,2013-02-15 10:05:00,
2013-02-15 04:06:00,44.9,27.4,30.12,ESE,112,2.0,2.5,50,0.00,,---,0.00,VWS V14.01,2013-02-15 10:06:00,
2013-02-15 04:07:00,44.9,27.4,30.12,ESE,112,2.7,2.9,50,0.00,,---,0.00,VWS V14.01,2013-02-15 10:07:00,
2013-02-15 04:08:00,44.9,27.4,30.12,ESE,112,3.1,3.1,50,0.00,,---,0.00,VWS V14.01,2013-02-15 10:08:00,
2013-02-15 04:09:00,45.1,27.6,30.12,ESE,112,2.9,3.4,50,0.00,,---,0.00,VWS V14.01,2013-02-15 10:09:00,
2013-02-15 04:10:00,44.6,27.1,30.12,ESE,112,1.6,2.5,50,0.00,,---,0.00,VWS V14.01,2013-02-15 10:10:00,
2013-02-15 04:11:00,45.1,27.6,30.12,ESE,112,2.5,3.1,50,0.00,,---,0.00,VWS V14.01,2013-02-15 10:11:00,
2013-02-15 04:12:00,45.1,27.6,30.12,SE,135,2.5,2.5,50,0.00,,---,0.00,VWS V14.01,2013-02-15 10:12:00,
2013-02-15 04:13:00,45.1,27.6,30.12,SE,135,2.9,2.9,50,0.00,,---,0.00,VWS V14.01,2013-02-15 10:13:00,
2013-02-15 04:14:00,45.1,27.6,30.12,SE,135,2.7,3.6,50,0.00,,---,0.00,VWS V14.01,2013-02-15 10:14:00,
2013-02-15 04:15:00,43.8,26.9,30.12,ESE,112,3.1,3.1,51,0.00,,---,0.00,VWS V14.01,2013-02-15 10:15:00,
2013-02-15 04:16:00,44.9,27.4,30.12,SE,135,2.7,2.7,50,0.00,,---,0.00,VWS V14.01,2013-02-15 10:16:00,
2013-02-15 04:17:00,44.9,27.4,30.12,ESE,112,2.5,2.7,50,0.00,,---,0.00,VWS V14.01,2013-02-15 10:17:00,
2013-02-15 04:18:00,44.7,27.2,30.12,ESE,112,2.7,2.9,50,0.00,,---,0.00,VWS V14.01,2013-02-15 10:18:00,
2013-02-15 04:19:00,44.7,27.2,30.12,ESE,112,2.2,3.1,50,0.00,,---,0.00,VWS V14.01,2013-02-15 10:19:00,
2013-02-15 04:20:00,43.7,26.8,30.12,ESE,112,2.2,2.2,51,0.00,,---,0.00,VWS V14.01,2013-02-15 10:20:00,
2013-02-15 04:21:00,44.6,27.1,30.12,ESE,112,2.5,3.4,50,0.00,,---,0.00,VWS V14.01,2013-02-15 10:21:00,
2013-02-15 04:22:00,44.6,27.1,30.12,ESE,112,1.6,2.5,50,0.00,,---,0.00,VWS V14.01,2013-02-15 10:22:00,
2013-02-15 04:23:00,44.4,26.9,30.12,SE,135,2.5,2.5,50,0.00,,---,0.00,VWS V14.01,2013-02-15 10:23:00,
2013-02-15 04:24:00,44.2,26.8,30.12,East,90,2.9,2.9,50,0.00,,---,0.00,VWS V14.01,2013-02-15 10:24:00,
2013-02-15 04:25:00,43.3,26.4,30.12,ESE,112,0.0,1.6,51,0.00,,---,0.00,VWS V14.01,2013-02-15 10:25:00,
2013-02-15 04:26:00,44.0,27.1,30.12,East,90,2.7,2.7,51,0.00,,---,0.00,VWS V14.01,2013-02-15 10:26:00,
2013-02-15 04:27:00,43.8,26.9,30.12,ESE,112,3.1,3.1,51,0.00,,---,0.00,VWS V14.01,2013-02-15 10:27:00,
2013-02-15 04:28:00,43.7,26.8,30.12,SE,135,0.0,3.1,51,0.00,,---,0.00,VWS V14.01,2013-02-15 10:28:00,
2013-02-15 04:29:00,43.7,26.8,30.12,East,90,2.9,3.1,51,0.00,,---,0.00,VWS V14.01,2013-02-15 10:29:00,
2013-02-15 04:30:00,42.6,25.8,30.12,ESE,112,0.0,0.0,51,0.00,,---,0.00,VWS V14.01,2013-02-15 10:30:00,
2013-02-15 04:31:00,43.7,26.8,30.12,ESE,112,1.6,2.2,51,0.00,,---,0.00,VWS V14.01,2013-02-15 10:31:00,
2013-02-15 04:32:00,43.7,26.8,30.12,ESE,112,2.2,2.2,51,0.00,,---,0.00,VWS V14.01,2013-02-15 10:32:00,
2013-02-15 04:33:00,43.7,26.8,30.12,ESE,112,2.5,2.5,51,0.00,,---,0.00,VWS V14.01,2013-02-15 10:33:00,
2013-02-15 04:34:00,43.5,26.6,30.12,ESE,112,1.3,2.5,51,0.00,,---,0.00,VWS V14.01,2013-02-15 10:34:00,
2013-02-15 04:35:00,42.8,25.9,30.12,ESE,112,0.0,0.0,51,0.00,,---,0.00,VWS V14.01,2013-02-15 10:35:00,
2013-02-15 04:36:00,43.3,26.4,30.12,ESE,112,1.6,2.0,51,0.00,,---,0.00,VWS V14.01,2013-02-15 10:36:00,
2013-02-15 04:37:00,43.3,26.4,30.12,ESE,112,0.0,1.6,51,0.00,,---,0.00,VWS V14.01,2013-02-15 10:37:00,
2013-02-15 04:38:00,43.1,26.3,30.12,ESE,112,0.0,0.0,51,0.00,,---,0.00,VWS V14.01,2013-02-15 10:38:00,
2013-02-15 04:39:00,43.1,26.3,30.12,ESE,112,0.0,0.0,51,0.00,,---,0.00,VWS V14.01,2013-02-15 10:39:00,
2013-02-15 04:40:00,42.8,26.4,30.12,SE,135,0.0,1.6,52,0.00,,---,0.00,VWS V14.01,2013-02-15 10:40:00,
2013-02-15 04:41:00,42.8,25.9,30.12,ESE,112,0.0,0.0,51,0.00,,---,0.00,VWS V14.01,2013-02-15 10:41:00,
2013-02-15 04:42:00,42.6,25.8,30.12,ESE,112,0.0,0.0,51,0.00,,---,0.00,VWS V14.01,2013-02-15 10:42:00,
2013-02-15 04:43:00,42.6,25.8,30.12,ESE,112,0.0,0.0,51,0.00,,---,0.00,VWS V14.01,2013-02-15 10:43:00,
2013-02-15 04:44:00,42.6,25.8,30.12,ESE,112,2.0,2.0,51,0.00,,---,0.00,VWS V14.01,2013-02-15 10:44:00,
2013-02-15 04:45:00,42.8,26.4,30.12,SE,135,0.0,0.0,52,0.00,,---,0.00,VWS V14.01,2013-02-15 10:45:00,
2013-02-15 04:46:00,42.6,25.8,30.12,ESE,112,0.0,1.3,51,0.00,,---,0.00,VWS V14.01,2013-02-15 10:46:00,
2013-02-15 04:47:00,42.8,25.9,30.12,ESE,112,0.0,0.0,51,0.00,,---,0.00,VWS V14.01,2013-02-15 10:47:00,
2013-02-15 04:48:00,42.8,25.9,30.12,SE,135,1.3,1.3,51,0.00,,---,0.00,VWS V14.01,2013-02-15 10:48:00,
2013-02-15 04:49:00,42.6,25.8,30.12,SE,135,0.0,1.3,51,0.00,,---,0.00,VWS V14.01,2013-02-15 10:49:00,
2013-02-15 04:50:00,42.6,26.7,30.15,WNW,292,3.8,3.8,53,0.00,,---,0.00,VWS V14.01,2013-02-15 10:50:00,
2013-02-15 04:51:00,42.8,26.4,30.12,SE,135,1.6,1.6,52,0.00,,---,0.00,VWS V14.01,2013-02-15 10:51:00,
2013-02-15 04:52:00,42.8,26.4,30.12,SE,135,0.0,1.6,52,0.00,,---,0.00,VWS V14.01,2013-02-15 10:52:00,
2013-02-15 04:53:00,42.8,26.4,30.12,SE,135,0.0,0.0,52,0.00,,---,0.00,VWS V14.01,2013-02-15 10:53:00,
2013-02-15 04:54:00,42.8,26.4,30.12,SE,135,0.0,0.0,52,0.00,,---,0.00,VWS V14.01,2013-02-15 10:54:00,
2013-02-15 04:55:00,43.1,28.5,30.15,NW,315,2.7,3.4,56,0.00,,---,0.00,VWS V14.01,2013-02-15 10:55:00,
2013-02-15 04:56:00,42.8,26.4,30.12,SE,135,0.0,0.0,52,0.00,,---,0.00,VWS V14.01,2013-02-15 10:56:00,
2013-02-15 04:57:00,42.8,26.4,30.12,SE,135,0.0,0.0,52,0.00,,---,0.00,VWS V14.01,2013-02-15 10:57:00,
2013-02-15 04:58:00,42.6,26.2,30.12,SE,135,0.0,0.0,52,0.00,,---,0.00,VWS V14.01,2013-02-15 10:58:00,
2013-02-15 04:59:00,42.6,26.2,30.12,NNW,338,0.0,0.0,52,0.00,,---,0.00,VWS V14.01,2013-02-15 10:59:00,
2013-02-15 05:00:00,42.6,27.6,30.15,NNW,338,0.0,0.0,55,0.00,,---,0.00,VWS V14.01,2013-02-15 11:00:00,
2013-02-15 05:01:00,42.6,26.2,30.12,NW,315,3.4,3.6,52,0.00,,---,0.00,VWS V14.01,2013-02-15 11:01:00,
2013-02-15 05:02:00,42.6,26.7,30.15,WNW,292,3.8,3.8,53,0.00,,---,0.00,VWS V14.01,2013-02-15 11:02:00,
2013-02-15 05:03:00,42.8,27.3,30.15,NW,315,4.9,5.8,54,0.00,,---,0.00,VWS V14.01,2013-02-15 11:03:00,
2013-02-15 05:04:00,43.0,27.9,30.15,NW,315,4.3,6.0,55,0.00,,---,0.00,VWS V14.01,2013-02-15 11:04:00,
2013-02-15 05:05:00,41.7,26.8,30.18,NNW,338,0.0,0.0,55,0.00,,---,0.00,VWS V14.01,2013-02-15 11:05:00,
2013-02-15 05:06:00,43.1,28.5,30.15,NW,315,3.4,3.8,56,0.00,,---,0.00,VWS V14.01,2013-02-15 11:06:00,
2013-02-15 05:07:00,43.1,28.5,30.15,NW,315,2.7,3.4,56,0.00,,---,0.00,VWS V14.01,2013-02-15 11:07:00,
2013-02-15 05:08:00,43.0,28.4,30.15,NNW,338,1.6,2.7,56,0.00,,---,0.00,VWS V14.01,2013-02-15 11:08:00,
2013-02-15 05:09:00,43.0,28.4,30.15,NNW,338,0.0,1.6,56,0.00,,---,0.00,VWS V14.01,2013-02-15 11:09:00,
2013-02-15 05:10:00,40.8,25.9,30.18,SE,135,0.0,0.0,55,0.00,,---,0.00,VWS V14.01,2013-02-15 11:10:00,
2013-02-15 05:11:00,42.6,27.6,30.15,NNW,338,0.0,0.0,55,0.00,,---,0.00,VWS V14.01,2013-02-15 11:11:00,
2013-02-15 05:12:00,42.6,27.6,30.15,NNW,338,0.0,0.0,55,0.00,,---,0.00,VWS V14.01,2013-02-15 11:12:00,
2013-02-15 05:13:00,42.4,27.4,30.15,NNW,338,0.0,0.0,55,0.00,,---,0.00,VWS V14.01,2013-02-15 11:13:00,
2013-02-15 05:14:00,42.2,27.3,30.15,NNW,338,0.0,0.0,55,0.00,,---,0.00,VWS V14.01,2013-02-15 11:14:00,
2013-02-15 05:15:00,40.8,26.8,30.18,SW,225,1.6,2.0,57,0.00,,---,0.00,VWS V14.01,2013-02-15 11:15:00,
2013-02-15 05:16:00,41.9,27.4,30.15,NNW,338,0.0,0.0,56,0.00,,---,0.00,VWS V14.01,2013-02-15 11:16:00,
2013-02-15 05:17:00,41.7,26.8,30.18,NNW,338,0.0,0.0,55,0.00,,---,0.00,VWS V14.01,2013-02-15 11:17:00,
2013-02-15 05:18:00,41.5,26.6,30.18,NNW,338,0.0,0.0,55,0.00,,---,0.00,VWS V14.01,2013-02-15 11:18:00,
2013-02-15 05:19:00,41.4,26.4,30.18,NNW,338,0.0,0.0,55,0.00,,---,0.00,VWS V14.01,2013-02-15 11:19:00,
2013-02-15 05:20:00,40.8,28.0,30.18,WNW,292,2.7,2.7,60,0.00,,---,0.00,VWS V14.01,2013-02-15 11:20:00,
2013-02-15 05:21:00,40.8,25.9,30.18,SE,135,0.0,0.0,55,0.00,,---,0.00,VWS V14.01,2013-02-15 11:21:00,
2013-02-15 05:22:00,40.8,25.9,30.18,SE,135,0.0,0.0,55,0.00,,---,0.00,VWS V14.01,2013-02-15 11:22:00,
2013-02-15 05:23:00,40.8,25.9,30.18,SE,135,0.0,0.0,55,0.00,,---,0.00,VWS V14.01,2013-02-15 11:23:00,
2013-02-15 05:24:00,40.7,25.8,30.18,West,270,0.0,0.0,55,0.00,,---,0.00,VWS V14.01,2013-02-15 11:24:00,
2013-02-15 05:25:00,40.5,30.8,30.18,WNW,292,2.7,2.7,68,0.00,,---,0.00,VWS V14.01,2013-02-15 11:25:00,
2013-02-15 05:26:00,40.8,26.4,30.18,WSW,248,1.3,1.6,56,0.00,,---,0.00,VWS V14.01,2013-02-15 11:26:00,
2013-02-15 05:27:00,40.8,26.8,30.18,SW,225,1.6,2.0,57,0.00,,---,0.00,VWS V14.01,2013-02-15 11:27:00,
2013-02-15 05:28:00,40.8,27.2,30.18,SSW,202,2.7,2.7,58,0.00,,---,0.00,VWS V14.01,2013-02-15 11:28:00,
2013-02-15 05:29:00,40.8,27.2,30.18,SSW,202,1.1,2.7,58,0.00,,---,0.00,VWS V14.01,2013-02-15 11:29:00,
2013-02-15 05:30:00,40.1,29.7,30.18,WNW,292,2.7,2.7,66,0.00,,---,0.00,VWS V14.01,2013-02-15 11:30:00,
2013-02-15 05:31:00,40.8,27.6,30.18,WNW,292,1.6,2.7,59,0.00,,---,0.00,VWS V14.01,2013-02-15 11:31:00,
2013-02-15 05:32:00,40.8,28.0,30.18,WNW,292,2.7,2.7,60,0.00,,---,0.00,VWS V14.01,2013-02-15 11:32:00,
2013-02-15 05:33:00,40.8,28.8,30.18,WNW,292,2.7,2.7,62,0.00,,---,0.00,VWS V14.01,2013-02-15 11:33:00,
2013-02-15 05:34:00,40.8,28.8,30.18,WNW,292,2.7,2.7,62,0.00,,---,0.00,VWS V14.01,2013-02-15 11:34:00,
2013-02-15 05:35:00,39.6,29.6,30.18,WNW,292,2.7,2.7,67,0.00,,---,0.00,VWS V14.01,2013-02-15 11:35:00,
2013-02-15 05:36:00,40.7,30.2,30.18,WNW,292,2.7,2.7,66,0.00,,---,0.00,VWS V14.01,2013-02-15 11:36:00,
2013-02-15 05:37:00,40.5,30.8,30.18,WNW,292,2.7,2.7,68,0.00,,---,0.00,VWS V14.01,2013-02-15 11:37:00,
2013-02-15 05:38:00,40.3,30.2,30.18,WNW,292,2.7,2.7,67,0.00,,---,0.00,VWS V14.01,2013-02-15 11:38:00,
2013-02-15 05:39:00,40.3,30.2,30.18,WNW,292,2.7,2.7,67,0.00,,---,0.00,VWS V14.01,2013-02-15 11:39:00,
2013-02-15 05:40:00,39.4,29.0,30.18,WNW,292,2.7,2.7,66,0.00,,---,0.00,VWS V14.01,2013-02-15 11:40:00,
2013-02-15 05:41:00,40.1,29.7,30.18,WNW,292,2.7,2.7,66,0.00,,---,0.00,VWS V14.01,2013-02-15 11:41:00,
2013-02-15 05:42:00,40.1,29.7,30.18,WNW,292,2.7,2.7,66,0.00,,---,0.00,VWS V14.01,2013-02-15 11:42:00,
2013-02-15 05:43:00,40.0,29.9,30.18,WNW,292,2.7,2.7,67,0.00,,---,0.00,VWS V14.01,2013-02-15 11:43:00,
2013-02-15 05:44:00,40.0,29.9,30.18,WNW,292,2.7,2.7,67,0.00,,---,0.00,VWS V14.01,2013-02-15 11:44:00,
2013-02-15 05:45:00,39.1,28.3,30.18,WNW,292,2.7,2.7,65,0.00,,---,0.00,VWS V14.01,2013-02-15 11:45:00,
2013-02-15 05:46:00,39.8,29.7,30.18,WNW,292,2.7,2.7,67,0.00,,---,0.00,VWS V14.01,2013-02-15 11:46:00,
2013-02-15 05:47:00,39.6,29.6,30.18,WNW,292,2.7,2.7,67,0.00,,---,0.00,VWS V14.01,2013-02-15 11:47:00,
2013-02-15 05:48:00,39.6,29.6,30.18,WNW,292,2.7,2.7,67,0.00,,---,0.00,VWS V14.01,2013-02-15 11:48:00,
2013-02-15 05:49:00,39.6,29.6,30.18,WNW,292,2.7,2.7,67,0.00,,---,0.00,VWS V14.01,2013-02-15 11:49:00,
2013-02-15 05:50:00,38.7,28.3,30.15,WNW,292,2.7,2.7,66,0.00,,---,0.00,VWS V14.01,2013-02-15 11:50:00,
2013-02-15 05:51:00,39.4,29.0,30.18,WNW,292,2.7,2.7,66,0.00,,---,0.00,VWS V14.01,2013-02-15 11:51:00,
2013-02-15 05:52:00,39.4,29.0,30.18,WNW,292,2.7,2.7,66,0.00,,---,0.00,VWS V14.01,2013-02-15 11:52:00,
2013-02-15 05:53:00,39.4,29.0,30.18,WNW,292,2.7,2.7,66,0.00,,---,0.00,VWS V14.01,2013-02-15 11:53:00,
2013-02-15 05:54:00,39.2,28.9,30.18,WNW,292,2.7,2.7,66,0.00,,---,0.00,VWS V14.01,2013-02-15 11:54:00,
2013-02-15 05:55:00,38.3,28.0,30.15,NE,45,0.0,0.0,66,0.00,,---,0.00,VWS V14.01,2013-02-15 11:55:00,
2013-02-15 05:56:00,39.1,28.7,30.18,WNW,292,2.7,2.7,66,0.00,,---,0.00,VWS V14.01,2013-02-15 11:56:00,
2013-02-15 05:57:00,39.1,28.3,30.18,WNW,292,2.7,2.7,65,0.00,,---,0.00,VWS V14.01,2013-02-15 11:57:00,
2013-02-15 05:58:00,39.1,28.3,30.18,WNW,292,2.7,2.7,65,0.00,,---,0.00,VWS V14.01,2013-02-15 11:58:00,
2013-02-15 05:59:00,39.1,28.7,30.18,WNW,292,2.7,2.7,66,0.00,,---,0.00,VWS V14.01,2013-02-15 11:59:00,
2013-02-15 06:00:00,38.0,27.7,30.15,NE,45,0.0,0.0,66,0.00,,---,0.00,VWS V14.01,2013-02-15 12:00:00,
2013-02-15 06:01:00,38.9,28.5,30.18,WNW,292,2.7,2.7,66,0.00,,---,0.00,VWS V14.01,2013-02-15 12:01:00,
2013-02-15 06:02:00,38.7,28.3,30.15,WNW,292,2.7,2.7,66,0.00,,---,0.00,VWS V14.01,2013-02-15 12:02:00,
2013-02-15 06:03:00,38.7,28.3,30.15,WNW,292,2.7,2.7,66,0.00,,---,0.00,VWS V14.01,2013-02-15 12:03:00,
2013-02-15 06:05:00,37.8,27.9,30.18,North,0,2.0,2.0,67,0.00,,---,0.00,VWS V14.01,2013-02-15 12:05:00,
2013-02-15 06:06:00,38.5,28.2,30.15,NE,45,0.0,2.7,66,0.00,,---,0.00,VWS V14.01,2013-02-15 12:06:00,
2013-02-15 06:07:00,38.3,28.0,30.15,NE,45,0.0,0.0,66,0.00,,---,0.00,VWS V14.01,2013-02-15 12:07:00,
2013-02-15 06:08:00,38.3,28.4,30.15,NE,45,0.0,0.0,67,0.00,,---,0.00,VWS V14.01,2013-02-15 12:08:00,
2013-02-15 06:09:00,38.3,28.4,30.15,NE,45,0.0,0.0,67,0.00,,---,0.00,VWS V14.01,2013-02-15 12:09:00,
2013-02-15 06:10:00,37.8,27.5,30.18,NNW,338,1.6,1.6,66,0.00,,---,0.00,VWS V14.01,2013-02-15 12:10:00,
2013-02-15 06:11:00,38.2,27.8,30.15,NE,45,0.0,0.0,66,0.00,,---,0.00,VWS V14.01,2013-02-15 12:11:00,
2013-02-15 06:12:00,38.0,27.7,30.15,NE,45,0.0,0.0,66,0.00,,---,0.00,VWS V14.01,2013-02-15 12:12:00,
2013-02-15 06:13:00,37.8,27.5,30.15,NNE,22,0.0,0.0,66,0.00,,---,0.00,VWS V14.01,2013-02-15 12:13:00,
2013-02-15 06:14:00,37.6,27.3,30.15,NNE,22,0.0,0.0,66,0.00,,---,0.00,VWS V14.01,2013-02-15 12:14:00,
2013-02-15 06:15:00,37.6,28.0,30.18,North,0,0.0,0.0,68,0.00,,---,0.00,VWS V14.01,2013-02-15 12:15:00,
2013-02-15 06:16:00,37.6,27.3,30.15,North,0,0.0,0.0,66,0.00,,---,0.00,VWS V14.01,2013-02-15 12:16:00,
2013-02-15 06:17:00,37.8,27.9,30.18,North,0,2.0,2.0,67,0.00,,---,0.00,VWS V14.01,2013-02-15 12:17:00,
2013-02-15 06:18:00,37.8,27.9,30.18,North,0,2.2,2.2,67,0.00,,---,0.00,VWS V14.01,2013-02-15 12:18:00,
2013-02-15 06:19:00,37.8,27.5,30.18,North,0,1.6,2.2,66,0.00,,---,0.00,VWS V14.01,2013-02-15 12:19:00,
2013-02-15 06:20:00,36.9,27.4,30.18,North,0,0.0,0.0,68,0.00,,---,0.00,VWS V14.01,2013-02-15 12:20:00,
2013-02-15 06:21:00,37.8,27.5,30.18,NNW,338,1.6,1.6,66,0.00,,---,0.00,VWS V14.01,2013-02-15 12:21:00,
2013-02-15 06:22:00,37.8,27.5,30.18,NNW,338,1.6,1.6,66,0.00,,---,0.00,VWS V14.01,2013-02-15 12:22:00,
2013-02-15 06:23:00,37.8,27.9,30.18,North,0,1.6,2.2,67,0.00,,---,0.00,VWS V14.01,2013-02-15 12:23:00,
2013-02-15 06:24:00,37.8,28.2,30.18,North,0,0.9,1.6,68,0.00,,---,0.00,VWS V14.01,2013-02-15 12:24:00,
2013-02-15 06:25:00,36.9,27.4,30.18,NNW,338,0.0,0.0,68,0.00,,---,0.00,VWS V14.01,2013-02-15 12:25:00,
2013-02-15 06:27:00,37.6,28.0,30.18,North,0,0.0,0.0,68,0.00,,---,0.00,VWS V14.01,2013-02-15 12:27:00,
2013-02-15 06:28:00,37.5,27.9,30.18,North,0,0.0,0.0,68,0.00,,---,0.00,VWS V14.01,2013-02-15 12:28:00,
2013-02-15 06:29:00,37.3,27.7,30.18,North,0,0.0,0.0,68,0.00,,---,0.00,VWS V14.01,2013-02-15 12:29:00,
2013-02-15 06:30:00,37.3,28.8,30.18,West,270,1.3,2.7,71,0.00,,---,0.00,VWS V14.01,2013-02-15 12:30:00,
2013-02-15 06:31:00,37.1,27.5,30.18,North,0,0.0,0.0,68,0.00,,---,0.00,VWS V14.01,2013-02-15 12:31:00,
2013-02-15 06:32:00,36.9,27.4,30.18,North,0,0.0,0.0,68,0.00,,---,0.00,VWS V14.01,2013-02-15 12:32:00,
2013-02-15 06:33:00,36.9,27.4,30.18,North,0,0.0,0.0,68,0.00,,---,0.00,VWS V14.01,2013-02-15 12:33:00,
2013-02-15 06:34:00,36.9,27.4,30.18,North,0,0.0,0.0,68,0.00,,---,0.00,VWS V14.01,2013-02-15 12:34:00,
2013-02-15 06:35:00,37.6,29.5,30.21,West,270,2.7,2.7,72,0.00,,---,0.00,VWS V14.01,2013-02-15 12:35:00,
2013-02-15 06:36:00,37.1,27.5,30.18,North,0,0.0,0.0,68,0.00,,---,0.00,VWS V14.01,2013-02-15 12:36:00,
2013-02-15 06:37:00,36.9,27.4,30.18,NNW,338,0.0,0.0,68,0.00,,---,0.00,VWS V14.01,2013-02-15 12:37:00,
2013-02-15 06:38:00,36.9,27.7,30.18,WNW,292,2.7,2.7,69,0.00,,---,0.00,VWS V14.01,2013-02-15 12:38:00,
2013-02-15 06:39:00,36.9,27.4,30.18,West,270,1.1,2.7,68,0.00,,---,0.00,VWS V14.01,2013-02-15 12:39:00,
2013-02-15 06:40:00,37.3,29.1,30.21,NNW,338,2.0,2.2,72,0.00,,---,0.00,VWS V14.01,2013-02-15 12:40:00,
2013-02-15 06:42:00,37.3,28.8,30.18,West,270,1.3,2.7,71,0.00,,---,0.00,VWS V14.01,2013-02-15 12:42:00,
2013-02-15 06:43:00,37.3,29.1,30.18,West,270,1.3,1.3,72,0.00,,---,0.00,VWS V14.01,2013-02-15 12:43:00,
2013-02-15 06:44:00,37.5,29.6,30.18,West,270,1.3,1.3,73,0.00,,---,0.00,VWS V14.01,2013-02-15 12:44:00,
2013-02-15 06:45:00,37.1,29.3,30.21,NNW,338,2.7,2.7,73,0.00,,---,0.00,VWS V14.01,2013-02-15 12:45:00,
2013-02-15 06:46:00,37.6,29.8,30.18,West,270,0.0,1.6,73,0.00,,---,0.00,VWS V14.01,2013-02-15 12:46:00,
2013-02-15 06:47:00,37.6,29.5,30.21,West,270,2.7,2.7,72,0.00,,---,0.00,VWS V14.01,2013-02-15 12:47:00,
2013-02-15 06:48:00,37.5,29.6,30.21,West,270,1.6,2.7,73,0.00,,---,0.00,VWS V14.01,2013-02-15 12:48:00,
2013-02-15 06:49:00,37.5,29.6,30.21,West,270,1.6,2.0,73,0.00,,---,0.00,VWS V14.01,2013-02-15 12:49:00,
2013-02-15 06:50:00,37.1,29.3,30.21,NNW,338,1.6,2.2,73,0.00,,---,0.00,VWS V14.01,2013-02-15 12:50:00,
2013-02-15 06:51:00,37.3,29.1,30.21,West,270,1.6,2.0,72,0.00,,---,0.00,VWS V14.01,2013-02-15 12:51:00,
2013-02-15 06:52:00,37.3,29.1,30.21,NNW,338,2.0,2.2,72,0.00,,---,0.00,VWS V14.01,2013-02-15 12:52:00,
2013-02-15 06:54:00,37.3,29.1,30.21,NNW,338,2.0,2.0,72,0.00,,---,0.00,VWS V14.01,2013-02-15 12:54:00,
2013-02-15 06:55:00,36.8,28.6,30.21,NNW,338,2.0,2.2,72,0.00,,---,0.00,VWS V14.01,2013-02-15 12:55:00,
2013-02-15 06:56:00,37.1,29.3,30.21,NNW,338,2.5,2.5,73,0.00,,---,0.00,VWS V14.01,2013-02-15 12:56:00,
2013-02-15 06:57:00,37.1,29.3,30.21,NNW,338,2.7,2.7,73,0.00,,---,0.00,VWS V14.01,2013-02-15 12:57:00,
2013-02-15 06:58:00,37.1,29.3,30.21,NNW,338,2.2,2.7,73,0.00,,---,0.00,VWS V14.01,2013-02-15 12:58:00,
2013-02-15 06:59:00,37.1,29.3,30.21,NNW,338,2.2,2.2,73,0.00,,---,0.00,VWS V14.01,2013-02-15 12:59:00,
2013-02-15 07:00:00,36.9,29.1,30.21,NNW,338,2.0,2.0,73,0.00,,---,0.00,VWS V14.01,2013-02-15 13:00:00,
2013-02-15 07:01:00,37.1,29.3,30.21,NNW,338,2.2,2.5,73,0.00,,---,0.00,VWS V14.01,2013-02-15 13:01:00,
2013-02-15 07:02:00,37.1,29.3,30.21,NNW,338,1.6,2.2,73,0.00,,---,0.00,VWS V14.01,2013-02-15 13:02:00,
2013-02-15 07:03:00,37.1,29.3,30.21,NNW,338,1.6,2.0,73,0.00,,---,0.00,VWS V14.01,2013-02-15 13:03:00,
2013-02-15 07:04:00,36.9,29.1,30.21,NNW,338,1.3,1.6,73,0.00,,---,0.00,VWS V14.01,2013-02-15 13:04:00,
2013-02-15 07:05:00,37.1,28.9,30.21,NNW,338,1.3,1.3,72,0.00,,---,0.00,VWS V14.01,2013-02-15 13:05:00,
2013-02-15 07:06:00,36.9,29.1,30.21,NNW,338,1.3,1.3,73,0.00,,---,0.00,VWS V14.01,2013-02-15 13:06:00,
2013-02-15 07:07:00,36.8,28.6,30.21,NNW,338,2.0,2.2,72,0.00,,---,0.00,VWS V14.01,2013-02-15 13:07:00,
2013-02-15 07:08:00,36.8,28.9,30.21,NNW,338,2.0,2.0,73,0.00,,---,0.00,VWS V14.01,2013-02-15 13:08:00,
2013-02-15 07:09:00,36.9,29.1,30.21,NNW,338,1.6,2.0,73,0.00,,---,0.00,VWS V14.01,2013-02-15 13:09:00,
2013-02-15 07:10:00,37.1,28.9,30.21,NNW,338,1.3,1.3,72,0.00,,---,0.00,VWS V14.01,2013-02-15 13:10:00,
2013-02-15 07:11:00,36.8,28.9,30.21,NNW,338,1.6,1.6,73,0.00,,---,0.00,VWS V14.01,2013-02-15 13:11:00,
2013-02-15 07:12:00,36.9,29.1,30.21,NNW,338,2.0,2.0,73,0.00,,---,0.00,VWS V14.01,2013-02-15 13:12:00,
2013-02-15 07:13:00,36.9,29.1,30.21,NNW,338,1.6,2.0,73,0.00,,---,0.00,VWS V14.01,2013-02-15 13:13:00,
2013-02-15 07:14:00,36.9,28.8,30.21,NNW,338,1.3,1.6,72,0.00,,---,0.00,VWS V14.01,2013-02-15 13:14:00,
2013-02-15 07:15:00,37.1,28.9,30.21,NNW,338,0.0,0.0,72,0.00,,---,0.00,VWS V14.01,2013-02-15 13:15:00,
2013-02-15 07:16:00,37.1,28.9,30.21,NNW,338,1.1,1.3,72,0.00,,---,0.00,VWS V14.01,2013-02-15 13:16:00,
2013-02-15 07:17:00,37.1,28.9,30.21,NNW,338,1.3,1.3,72,0.00,,---,0.00,VWS V14.01,2013-02-15 13:17:00,
2013-02-15 07:18:00,37.1,28.9,30.21,NNW,338,0.9,1.3,72,0.00,,---,0.00,VWS V14.01,2013-02-15 13:18:00,
2013-02-15 07:19:00,37.1,28.9,30.21,NNW,338,0.9,0.9,72,0.00,,---,0.00,VWS V14.01,2013-02-15 13:19:00,
2013-02-15 07:20:00,37.1,28.9,30.21,NNW,338,0.0,0.0,72,0.00,,---,0.00,VWS V14.01,2013-02-15 13:20:00,
2013-02-15 07:21:00,37.1,28.9,30.21,NNW,338,1.3,1.3,72,0.00,,---,0.00,VWS V14.01,2013-02-15 13:21:00,
2013-02-15 07:22:00,37.1,28.9,30.21,NNW,338,1.3,1.3,72,0.00,,---,0.00,VWS V14.01,2013-02-15 13:22:00,
2013-02-15 07:23:00,37.1,28.9,30.21,NNW,338,1.1,1.3,72,0.00,,---,0.00,VWS V14.01,2013-02-15 13:23:00,
2013-02-15 07:24:00,37.1,28.9,30.21,NNW,338,0.0,1.1,72,0.00,,---,0.00,VWS V14.01,2013-02-15 13:24:00,
2013-02-15 07:25:00,37.3,29.1,30.21,NW,315,0.0,0.0,72,0.00,,---,0.00,VWS V14.01,2013-02-15 13:25:00,
2013-02-15 07:26:00,37.1,28.9,30.21,NNW,338,0.0,0.0,72,0.00,,---,0.00,VWS V14.01,2013-02-15 13:26:00,
2013-02-15 07:27:00,37.1,28.9,30.21,NNW,338,0.0,0.0,72,0.00,,---,0.00,VWS V14.01,2013-02-15 13:27:00,
2013-02-15 07:28:00,37.1,28.9,30.21,NNW,338,0.0,0.0,72,0.00,,---,0.00,VWS V14.01,2013-02-15 13:28:00,
2013-02-15 07:29:00,37.1,28.9,30.21,NNW,338,0.0,0.0,72,0.00,,---,0.00,VWS V14.01,2013-02-15 13:29:00,
2013-02-15 07:30:00,37.5,29.3,30.21,WNW,292,2.5,2.5,72,0.00,,---,0.00,VWS V14.01,2013-02-15 13:30:00,
2013-02-15 07:31:00,36.9,28.8,30.21,NNW,338,0.0,0.0,72,0.00,,---,0.00,VWS V14.01,2013-02-15 13:31:00,
2013-02-15 07:32:00,37.1,28.9,30.21,NNW,338,0.0,0.0,72,0.00,,---,0.00,VWS V14.01,2013-02-15 13:32:00,
2013-02-15 07:33:00,37.1,28.9,30.21,NNW,338,0.0,0.0,72,0.00,,---,0.00,VWS V14.01,2013-02-15 13:33:00,
2013-02-15 07:34:00,37.1,28.9,30.21,WNW,292,0.0,0.0,72,0.00,,---,0.00,VWS V14.01,2013-02-15 13:34:00,
2013-02-15 07:35:00,38.2,31.0,30.24,NNW,338,2.0,2.5,75,0.00,,---,0.00,VWS V14.01,2013-02-15 13:35:00,
2013-02-15 07:36:00,37.3,29.1,30.21,NW,315,0.0,0.0,72,0.00,,---,0.00,VWS V14.01,2013-02-15 13:36:00,
2013-02-15 07:37:00,37.3,29.1,30.21,NW,315,0.0,0.0,72,0.00,,---,0.00,VWS V14.01,2013-02-15 13:37:00,
2013-02-15 07:38:00,37.3,29.1,30.21,NW,315,0.0,0.0,72,0.00,,---,0.00,VWS V14.01,2013-02-15 13:38:00,
2013-02-15 07:39:00,37.3,29.1,30.21,NW,315,0.0,0.0,72,0.00,,---,0.00,VWS V14.01,2013-02-15 13:39:00,
2013-02-15 07:40:00,38.5,31.0,30.24,NNW,338,0.9,0.9,74,0.00,,---,0.00,VWS V14.01,2013-02-15 13:40:00,
2013-02-15 07:41:00,37.3,29.1,30.21,NW,315,2.0,2.0,72,0.00,,---,0.00,VWS V14.01,2013-02-15 13:41:00,
2013-02-15 07:42:00,37.5,29.3,30.21,WNW,292,2.5,2.5,72,0.00,,---,0.00,VWS V14.01,2013-02-15 13:42:00,
2013-02-15 07:43:00,37.6,29.8,30.21,WNW,292,2.9,3.8,73,0.00,,---,0.00,VWS V14.01,2013-02-15 13:43:00,
2013-02-15 07:44:00,37.8,30.6,30.21,NNW,338,2.7,2.9,75,0.00,,---,0.00,VWS V14.01,2013-02-15 13:44:00,
2013-02-15 07:45:00,39.2,31.7,30.24,NNW,338,4.0,4.0,74,0.00,,---,0.00,VWS V14.01,2013-02-15 13:45:00,
2013-02-15 07:46:00,38.0,30.8,30.21,NW,315,2.5,2.7,75,0.00,,---,0.00,VWS V14.01,2013-02-15 13:46:00,
2013-02-15 07:47:00,38.2,31.0,30.24,NNW,338,2.0,2.5,75,0.00,,---,0.00,VWS V14.01,2013-02-15 13:47:00,
2013-02-15 07:48:00,38.2,31.0,30.24,NW,315,2.2,2.5,75,0.00,,---,0.00,VWS V14.01,2013-02-15 13:48:00,
2013-02-15 07:49:00,38.3,31.1,30.24,NW,315,1.3,2.2,75,0.00,,---,0.00,VWS V14.01,2013-02-15 13:49:00,
2013-02-15 07:50:00,40.1,31.8,30.24,NW,315,3.4,3.4,72,0.00,,---,0.00,VWS V14.01,2013-02-15 13:50:00,
2013-02-15 07:51:00,38.3,30.8,30.24,NNW,338,0.0,1.3,74,0.00,,---,0.00,VWS V14.01,2013-02-15 13:51:00,
2013-02-15 07:52:00,38.5,31.0,30.24,NNW,338,0.9,0.9,74,0.00,,---,0.00,VWS V14.01,2013-02-15 13:52:00,
2013-02-15 07:53:00,38.7,31.1,30.24,NNW,338,3.1,3.1,74,0.00,,---,0.00,VWS V14.01,2013-02-15 13:53:00,
2013-02-15 07:54:00,38.7,31.1,30.24,NNW,338,3.6,3.6,74,0.00,,---,0.00,VWS V14.01,2013-02-15 13:54:00,
2013-02-15 07:55:00,41.2,32.2,30.24,NW,315,1.3,1.3,70,0.00,,---,0.00,VWS V14.01,2013-02-15 13:55:00,
2013-02-15 07:56:00,39.1,31.5,30.24,NNW,338,4.0,4.0,74,0.00,,---,0.00,VWS V14.01,2013-02-15 13:56:00,
2013-02-15 07:57:00,39.2,31.7,30.24,NNW,338,4.0,4.0,74,0.00,,---,0.00,VWS V14.01,2013-02-15 13:57:00,
2013-02-15 07:58:00,39.4,31.8,30.24,NNW,338,2.5,4.0,74,0.00,,---,0.00,VWS V14.01,2013-02-15 13:58:00,
2013-02-15 07:59:00,39.6,31.7,30.24,NNW,338,2.5,2.5,73,0.00,,---,0.00,VWS V14.01,2013-02-15 13:59:00,
2013-02-15 08:00:00,41.9,32.5,30.24,WNW,292,0.9,2.2,69,0.00,,---,0.00,VWS V14.01,2013-02-15 14:00:00,
2013-02-15 08:02:00,40.1,31.8,30.24,NW,315,3.4,3.4,72,0.00,,---,0.00,VWS V14.01,2013-02-15 14:02:00,
2013-02-15 08:04:00,40.5,32.2,30.24,NW,315,0.0,2.0,72,0.00,,---,0.00,VWS V14.01,2013-02-15 14:04:00,
2013-02-15 08:05:00,43.1,32.9,30.24,WNW,292,2.9,3.6,67,0.00,,---,0.00,VWS V14.01,2013-02-15 14:05:00,
2013-02-15 08:07:00,41.2,32.2,30.24,NW,315,1.3,1.3,70,0.00,,---,0.00,VWS V14.01,2013-02-15 14:07:00,
2013-02-15 08:08:00,41.2,32.2,30.24,WNW,292,1.3,1.3,70,0.00,,---,0.00,VWS V14.01,2013-02-15 14:08:00,
2013-02-15 08:09:00,41.4,32.3,30.24,West,270,2.5,2.5,70,0.00,,---,0.00,VWS V14.01,2013-02-15 14:09:00,
2013-02-15 08:10:00,44.0,33.0,30.24,WSW,248,2.5,3.4,65,0.00,,---,0.00,VWS V14.01,2013-02-15 14:10:00,
2013-02-15 08:11:00,41.9,32.8,30.24,West,270,2.0,2.9,70,0.00,,---,0.00,VWS V14.01,2013-02-15 14:11:00,
2013-02-15 08:12:00,41.9,32.5,30.24,WNW,292,0.9,2.2,69,0.00,,---,0.00,VWS V14.01,2013-02-15 14:12:00,
2013-02-15 08:13:00,42.1,32.7,30.24,WNW,292,0.0,0.9,69,0.00,,---,0.00,VWS V14.01,2013-02-15 14:13:00,
2013-02-15 08:14:00,42.4,32.6,30.24,West,270,3.4,3.4,68,0.00,,---,0.00,VWS V14.01,2013-02-15 14:14:00,
2013-02-15 08:15:00,44.6,32.8,30.24,West,270,1.3,3.1,63,0.00,,---,0.00,VWS V14.01,2013-02-15 14:15:00,
2013-02-15 08:16:00,43.0,32.8,30.24,West,270,3.4,3.4,67,0.00,,---,0.00,VWS V14.01,2013-02-15 14:16:00,
2013-02-15 08:17:00,43.1,32.9,30.24,WNW,292,2.9,3.6,67,0.00,,---,0.00,VWS V14.01,2013-02-15 14:17:00,
2013-02-15 08:18:00,43.3,32.7,30.24,West,270,2.7,2.9,66,0.00,,---,0.00,VWS V14.01,2013-02-15 14:18:00,
2013-02-15 08:19:00,43.5,32.9,30.24,West,270,1.6,2.7,66,0.00,,---,0.00,VWS V14.01,2013-02-15 14:19:00,
2013-02-15 08:20:00,44.6,32.0,30.24,NW,315,3.4,3.4,61,0.00,,---,0.00,VWS V14.01,2013-02-15 14:20:00,
2013-02-15 08:22:00,44.0,33.0,30.24,WSW,248,2.5,3.4,65,0.00,,---,0.00,VWS V14.01,2013-02-15 14:22:00,
2013-02-15 08:25:00,44.9,31.9,30.24,WNW,292,3.4,3.4,60,0.00,,---,0.00,VWS V14.01,2013-02-15 14:25:00,
2013-02-15 08:27:00,44.6,32.8,30.24,West,270,1.3,3.1,63,0.00,,---,0.00,VWS V14.01,2013-02-15 14:27:00,
2013-02-15 08:28:00,44.6,32.8,30.24,WNW,292,3.4,3.6,63,0.00,,---,0.00,VWS V14.01,2013-02-15 14:28:00,
2013-02-15 08:29:00,44.7,32.5,30.24,WNW,292,3.6,3.6,62,0.00,,---,0.00,VWS V14.01,2013-02-15 14:29:00,
2013-02-15 08:30:00,45.3,32.6,30.24,NNW,338,1.6,2.7,61,0.00,,---,0.00,VWS V14.01,2013-02-15 14:30:00,
2013-02-15 08:31:00,44.7,32.1,30.24,NW,315,3.4,3.4,61,0.00,,---,0.00,VWS V14.01,2013-02-15 14:31:00,
2013-02-15 08:32:00,44.6,32.0,30.24,NW,315,3.4,3.4,61,0.00,,---,0.00,VWS V14.01,2013-02-15 14:32:00,
2013-02-15 08:35:00,46.2,32.6,30.27,NW,315,2.0,2.9,59,0.00,,---,0.00,VWS V14.01,2013-02-15 14:35:00,
2013-02-15 08:36:00,44.7,32.1,30.24,NNW,338,2.9,2.9,61,0.00,,---,0.00,VWS V14.01,2013-02-15 14:36:00,
2013-02-15 08:38:00,44.9,32.3,30.24,NW,315,1.3,3.8,61,0.00,,---,0.00,VWS V14.01,2013-02-15 14:38:00,
2013-02-15 08:40:00,46.5,32.1,30.27,NW,315,0.0,3.6,57,0.00,,---,0.00,VWS V14.01,2013-02-15 14:40:00,
2013-02-15 08:41:00,45.3,32.6,30.24,WNW,292,2.5,2.5,61,0.00,,---,0.00,VWS V14.01,2013-02-15 14:41:00,
2013-02-15 08:43:00,45.5,32.8,30.24,WNW,292,2.5,2.9,61,0.00,,---,0.00,VWS V14.01,2013-02-15 14:43:00,
2013-02-15 08:44:00,45.6,32.5,30.24,WNW,292,3.6,3.6,60,0.00,,---,0.00,VWS V14.01,2013-02-15 14:44:00,
2013-02-15 08:45:00,47.2,33.2,30.27,WNW,292,2.5,2.5,58,0.00,,---,0.00,VWS V14.01,2013-02-15 14:45:00,
2013-02-15 08:46:00,46.0,32.5,30.24,NW,315,0.0,2.5,59,0.00,,---,0.00,VWS V14.01,2013-02-15 14:46:00,
2013-02-15 08:47:00,46.2,32.6,30.27,NW,315,2.0,2.9,59,0.00,,---,0.00,VWS V14.01,2013-02-15 14:47:00,
2013-02-15 08:48:00,46.2,32.6,30.27,NNW,338,2.9,2.9,59,0.00,,---,0.00,VWS V14.01,2013-02-15 14:48:00,
2013-02-15 08:49:00,46.2,32.6,30.27,NNW,338,0.0,2.9,59,0.00,,---,0.00,VWS V14.01,2013-02-15 14:49:00,
2013-02-15 08:50:00,47.4,32.5,30.30,WNW,292,1.6,3.6,56,0.00,,---,0.00,VWS V14.01,2013-02-15 14:50:00,
2013-02-15 08:51:00,46.3,32.4,30.27,WNW,292,3.6,4.5,58,0.00,,---,0.00,VWS V14.01,2013-02-15 14:51:00,
2013-02-15 08:52:00,46.5,32.1,30.27,NW,315,0.0,3.6,57,0.00,,---,0.00,VWS V14.01,2013-02-15 14:52:00,
2013-02-15 08:53:00,46.7,32.7,30.27,WNW,292,0.0,0.0,58,0.00,,---,0.00,VWS V14.01,2013-02-15 14:53:00,
2013-02-15 08:54:00,46.9,32.9,30.27,WSW,248,2.7,3.1,58,0.00,,---,0.00,VWS V14.01,2013-02-15 14:54:00,
2013-02-15 08:55:00,47.9,32.5,30.30,WSW,248,3.1,3.1,55,0.00,,---,0.00,VWS V14.01,2013-02-15 14:55:00,
2013-02-15 08:56:00,47.2,33.2,30.27,West,270,1.3,1.3,58,0.00,,---,0.00,VWS V14.01,2013-02-15 14:56:00,
2013-02-15 08:57:00,47.2,33.2,30.27,WNW,292,2.5,2.5,58,0.00,,---,0.00,VWS V14.01,2013-02-15 14:57:00,
2013-02-15 08:58:00,47.2,32.8,30.27,NW,315,3.1,3.1,57,0.00,,---,0.00,VWS V14.01,2013-02-15 14:58:00,
2013-02-15 09:00:00,48.8,32.9,30.30,West,270,4.3,4.3,54,0.00,,---,0.00,VWS V14.01,2013-02-15 15:00:00,
2013-02-15 09:01:00,47.2,32.3,30.27,NW,315,3.6,3.8,56,0.00,,---,0.00,VWS V14.01,2013-02-15 15:01:00,
2013-02-15 09:02:00,47.4,32.5,30.30,WNW,292,1.6,3.6,56,0.00,,---,0.00,VWS V14.01,2013-02-15 15:02:00,
2013-02-15 09:03:00,47.6,32.7,30.30,WNW,292,3.1,4.3,56,0.00,,---,0.00,VWS V14.01,2013-02-15 15:03:00,
2013-02-15 09:04:00,47.6,32.2,30.30,WNW,292,4.0,4.0,55,0.00,,---,0.00,VWS V14.01,2013-02-15 15:04:00,
2013-02-15 09:05:00,49.5,32.6,30.30,WSW,248,2.7,3.4,52,0.00,,---,0.00,VWS V14.01,2013-02-15 15:05:00,
2013-02-15 09:06:00,47.8,32.4,30.30,West,270,2.0,2.9,55,0.00,,---,0.00,VWS V14.01,2013-02-15 15:06:00,
2013-02-15 09:07:00,47.9,32.5,30.30,WSW,248,3.1,3.1,55,0.00,,---,0.00,VWS V14.01,2013-02-15 15:07:00,
2013-02-15 09:08:00,48.3,32.4,30.30,West,270,2.2,3.8,54,0.00,,---,0.00,VWS V14.01,2013-02-15 15:08:00,
2013-02-15 09:09:00,48.5,32.6,30.30,South,180,0.0,2.2,54,0.00,,---,0.00,VWS V14.01,2013-02-15 15:09:00,
2013-02-15 09:10:00,49.9,33.0,30.30,NW,315,1.1,3.8,52,0.00,,---,0.00,VWS V14.01,2013-02-15 15:10:00,
2013-02-15 09:11:00,48.6,32.8,30.30,West,270,1.3,2.7,54,0.00,,---,0.00,VWS V14.01,2013-02-15 15:11:00,
2013-02-15 09:13:00,49.0,33.1,30.30,WSW,248,3.1,4.3,54,0.00,,---,0.00,VWS V14.01,2013-02-15 15:13:00,
2013-02-15 09:14:00,49.2,32.8,30.30,WSW,248,2.5,3.6,53,0.00,,---,0.00,VWS V14.01,2013-02-15 15:14:00,
2013-02-15 09:15:00,50.0,33.1,30.30,West,270,2.2,2.9,52,0.00,,---,0.00,VWS V14.01,2013-02-15 15:15:00,
2013-02-15 09:18:00,49.5,32.6,30.30,WNW,292,0.0,2.7,52,0.00,,---,0.00,VWS V14.01,2013-02-15 15:18:00,
2013-02-15 09:20:00,50.6,33.1,30.30,West,270,2.0,2.7,51,0.00,,---,0.00,VWS V14.01,2013-02-15 15:20:00,
2013-02-15 09:22:00,49.9,33.0,30.30,NW,315,1.1,3.8,52,0.00,,---,0.00,VWS V14.01,2013-02-15 15:22:00,
2013-02-15 09:23:00,49.9,33.0,30.30,WNW,292,2.0,2.0,52,0.00,,---,0.00,VWS V14.01,2013-02-15 15:23:00,
2013-02-15 09:25:00,50.9,33.5,30.30,North,0,0.9,2.5,51,0.00,,---,0.00,VWS V14.01,2013-02-15 15:25:00,
2013-02-15 09:26:00,50.0,33.1,30.30,West,270,2.5,5.6,52,0.00,,---,0.00,VWS V14.01,2013-02-15 15:26:00,
2013-02-15 09:27:00,50.0,33.1,30.30,West,270,2.2,2.9,52,0.00,,---,0.00,VWS V14.01,2013-02-15 15:27:00,
2013-02-15 09:28:00,50.2,33.3,30.30,West,270,2.9,2.9,52,0.00,,---,0.00,VWS V14.01,2013-02-15 15:28:00,
2013-02-15 09:29:00,50.2,33.3,30.30,WNW,292,3.4,3.4,52,0.00,,---,0.00,VWS V14.01,2013-02-15 15:29:00,
2013-02-15 09:30:00,51.8,33.8,30.30,SSW,202,1.1,2.9,50,0.00,,---,0.00,VWS V14.01,2013-02-15 15:30:00,
2013-02-15 09:32:00,50.6,33.1,30.30,West,270,2.0,2.7,51,0.00,,---,0.00,VWS V14.01,2013-02-15 15:32:00,
2013-02-15 09:33:00,50.8,33.3,30.30,WNW,292,3.1,3.1,51,0.00,,---,0.00,VWS V14.01,2013-02-15 15:33:00,
2013-02-15 09:34:00,50.8,33.3,30.30,WSW,248,2.5,3.1,51,0.00,,---,0.00,VWS V14.01,2013-02-15 15:34:00,
2013-02-15 09:35:00,52.2,34.1,30.30,WSW,248,2.5,3.1,50,0.00,,---,0.00,VWS V14.01,2013-02-15 15:35:00,
2013-02-15 09:36:00,50.9,33.5,30.30,SW,225,2.5,2.5,51,0.00,,---,0.00,VWS V14.01,2013-02-15 15:36:00,
2013-02-15 09:37:00,50.9,33.5,30.30,North,0,0.9,2.5,51,0.00,,---,0.00,VWS V14.01,2013-02-15 15:37:00,
2013-02-15 09:38:00,51.3,33.8,30.30,West,270,0.9,1.6,51,0.00,,---,0.00,VWS V14.01,2013-02-15 15:38:00,
2013-02-15 09:39:00,51.5,34.0,30.30,SSW,202,0.0,2.0,51,0.00,,---,0.00,VWS V14.01,2013-02-15 15:39:00,
2013-02-15 09:40:00,53.1,34.9,30.30,SW,225,3.4,3.4,50,0.00,,---,0.00,VWS V14.01,2013-02-15 15:40:00,
2013-02-15 09:41:00,51.8,34.3,30.30,West,270,2.5,2.7,51,0.00,,---,0.00,VWS V14.01,2013-02-15 15:41:00,
2013-02-15 09:42:00,51.8,33.8,30.30,SSW,202,1.1,2.9,50,0.00,,---,0.00,VWS V14.01,2013-02-15 15:42:00,
2013-02-15 09:43:00,51.8,33.8,30.30,SW,225,1.3,1.6,50,0.00,,---,0.00,VWS V14.01,2013-02-15 15:43:00,
2013-02-15 09:44:00,52.0,34.5,30.30,WSW,248,1.3,2.0,51,0.00,,---,0.00,VWS V14.01,2013-02-15 15:44:00,
2013-02-15 09:45:00,53.2,35.1,30.30,WNW,292,1.1,2.7,50,0.00,,---,0.00,VWS V14.01,2013-02-15 15:45:00,
2013-02-15 09:46:00,52.4,34.3,30.30,SW,225,3.1,3.1,50,0.00,,---,0.00,VWS V14.01,2013-02-15 15:46:00,
2013-02-15 09:47:00,52.2,34.1,30.30,WSW,248,2.5,3.1,50,0.00,,---,0.00,VWS V14.01,2013-02-15 15:47:00,
2013-02-15 09:48:00,52.2,34.1,30.30,SSW,202,0.0,2.5,50,0.00,,---,0.00,VWS V14.01,2013-02-15 15:48:00,
2013-02-15 09:49:00,52.4,34.3,30.30,SSW,202,0.0,0.0,50,0.00,,---,0.00,VWS V14.01,2013-02-15 15:49:00,
2013-02-15 09:50:00,53.4,34.8,30.27,NW,315,1.6,2.9,49,0.00,,---,0.00,VWS V14.01,2013-02-15 15:50:00,
2013-02-15 09:51:00,52.9,34.8,30.30,SW,225,2.5,2.5,50,0.00,,---,0.00,VWS V14.01,2013-02-15 15:51:00,
2013-02-15 09:52:00,53.1,34.9,30.30,SW,225,3.4,3.4,50,0.00,,---,0.00,VWS V14.01,2013-02-15 15:52:00,
2013-02-15 09:53:00,53.1,34.9,30.30,WSW,248,2.5,3.4,50,0.00,,---,0.00,VWS V14.01,2013-02-15 15:53:00,
2013-02-15 09:54:00,53.1,34.9,30.30,SW,225,1.3,2.7,50,0.00,,---,0.00,VWS V14.01,2013-02-15 15:54:00,
2013-02-15 09:55:00,54.3,35.6,30.27,West,270,1.3,2.7,49,0.00,,---,0.00,VWS V14.01,2013-02-15 15:55:00,
2013-02-15 09:56:00,53.2,35.1,30.30,WNW,292,2.7,2.7,50,0.00,,---,0.00,VWS V14.01,2013-02-15 15:56:00,
2013-02-15 09:57:00,53.2,35.1,30.30,WNW,292,1.1,2.7,50,0.00,,---,0.00,VWS V14.01,2013-02-15 15:57:00,
2013-02-15 09:58:00,53.2,35.1,30.30,SW,225,2.2,2.2,50,0.00,,---,0.00,VWS V14.01,2013-02-15 15:58:00,
2013-02-15 10:00:00,54.8,35.5,30.27,SW,225,2.7,3.8,48,0.00,,---,0.00,VWS V14.01,2013-02-15 16:00:00,
2013-02-15 10:01:00,53.1,34.4,30.30,West,270,2.9,3.8,49,0.00,,---,0.00,VWS V14.01,2013-02-15 16:01:00,
2013-02-15 10:02:00,53.4,34.8,30.27,NW,315,1.6,2.9,49,0.00,,---,0.00,VWS V14.01,2013-02-15 16:02:00,
2013-02-15 10:03:00,53.6,34.9,30.27,SSW,202,1.3,2.9,49,0.00,,---,0.00,VWS V14.01,2013-02-15 16:03:00,
2013-02-15 10:04:00,53.8,35.1,30.27,West,270,2.7,2.9,49,0.00,,---,0.00,VWS V14.01,2013-02-15 16:04:00,
2013-02-15 10:05:00,55.2,35.9,30.30,NW,315,2.5,4.0,48,0.00,,---,0.00,VWS V14.01,2013-02-15 16:05:00,
2013-02-15 10:06:00,54.1,35.4,30.27,WSW,248,2.5,3.8,49,0.00,,---,0.00,VWS V14.01,2013-02-15 16:06:00,
2013-02-15 10:07:00,54.3,35.6,30.27,West,270,1.3,2.7,49,0.00,,---,0.00,VWS V14.01,2013-02-15 16:07:00,
2013-02-15 10:08:00,54.8,35.5,30.27,SSW,202,2.9,2.9,48,0.00,,---,0.00,VWS V14.01,2013-02-15 16:08:00,
2013-02-15 10:09:00,54.8,35.5,30.27,SSW,202,0.0,2.9,48,0.00,,---,0.00,VWS V14.01,2013-02-15 16:09:00,
2013-02-15 10:10:00,55.5,34.6,30.30,NNW,338,4.9,7.4,45,0.00,,---,0.00,VWS V14.01,2013-02-15 16:10:00,
2013-02-15 10:11:00,54.8,35.5,30.27,South,180,3.1,5.4,48,0.00,,---,0.00,VWS V14.01,2013-02-15 16:11:00,
2013-02-15 10:12:00,54.8,35.5,30.27,SW,225,2.7,3.8,48,0.00,,---,0.00,VWS V14.01,2013-02-15 16:12:00,
2013-02-15 10:13:00,54.8,35.5,30.27,SSW,202,3.1,3.1,48,0.00,,---,0.00,VWS V14.01,2013-02-15 16:13:00,
2013-02-15 10:14:00,55.0,35.7,30.27,NNW,338,1.3,3.1,48,0.00,,---,0.00,VWS V14.01,2013-02-15 16:14:00,
2013-02-15 10:15:00,55.2,34.2,30.30,NNW,338,6.5,6.5,45,0.00,,---,0.00,VWS V14.01,2013-02-15 16:15:00,
2013-02-15 10:17:00,55.2,35.9,30.30,NW,315,2.5,4.0,48,0.00,,---,0.00,VWS V14.01,2013-02-15 16:17:00,
2013-02-15 10:18:00,55.2,35.9,30.30,WNW,292,4.9,4.9,48,0.00,,---,0.00,VWS V14.01,2013-02-15 16:18:00,
2013-02-15 10:19:00,55.2,35.9,30.30,WNW,292,3.6,5.8,48,0.00,,---,0.00,VWS V14.01,2013-02-15 16:19:00,
2013-02-15 10:20:00,55.5,34.6,30.27,NNE,22,6.9,6.9,45,0.00,,---,0.00,VWS V14.01,2013-02-15 16:20:00,
2013-02-15 10:21:00,55.7,35.3,30.30,NNW,338,6.5,7.4,46,0.00,,---,0.00,VWS V14.01,2013-02-15 16:21:00,
2013-02-15 10:22:00,55.5,34.6,30.30,NNW,338,4.9,7.4,45,0.00,,---,0.00,VWS V14.01,2013-02-15 16:22:00,
2013-02-15 10:23:00,55.4,34.4,30.30,NNE,22,7.8,7.8,45,0.00,,---,0.00,VWS V14.01,2013-02-15 16:23:00,
2013-02-15 10:24:00,55.0,34.1,30.30,North,0,7.6,8.5,45,0.00,,---,0.00,VWS V14.01,2013-02-15 16:24:00,
2013-02-15 10:25:00,57.2,35.5,30.27,NNE,22,3.8,7.4,44,0.00,,---,0.00,VWS V14.01,2013-02-15 16:25:00,
2013-02-15 10:26:00,55.0,34.1,30.30,NNW,338,4.9,7.2,45,0.00,,---,0.00,VWS V14.01,2013-02-15 16:26:00,
2013-02-15 10:27:00,55.2,34.2,30.30,NNW,338,6.5,6.5,45,0.00,,---,0.00,VWS V14.01,2013-02-15 16:27:00,
2013-02-15 10:29:00,55.4,34.4,30.30,NNW,338,2.9,5.8,45,0.00,,---,0.00,VWS V14.01,2013-02-15 16:29:00,
2013-02-15 10:30:00,58.0,36.3,30.27,East,90,3.8,6.3,44,0.00,,---,0.00,VWS V14.01,2013-02-15 16:30:00,
2013-02-15 10:32:00,55.5,34.6,30.27,NNE,22,6.9,6.9,45,0.00,,---,0.00,VWS V14.01,2013-02-15 16:32:00,
2013-02-15 10:33:00,55.7,34.7,30.27,NNE,22,5.4,6.9,45,0.00,,---,0.00,VWS V14.01,2013-02-15 16:33:00,
2013-02-15 10:34:00,56.1,35.0,30.27,North,0,3.6,5.4,45,0.00,,---,0.00,VWS V14.01,2013-02-15 16:34:00,
2013-02-15 10:35:00,57.7,35.4,30.30,NNE,22,5.4,6.3,43,0.00,,---,0.00,VWS V14.01,2013-02-15 16:35:00,
2013-02-15 10:36:00,57.0,35.9,30.27,East,90,3.1,5.4,45,0.00,,---,0.00,VWS V14.01,2013-02-15 16:36:00,
2013-02-15 10:37:00,57.2,35.5,30.27,NNE,22,3.8,7.4,44,0.00,,---,0.00,VWS V14.01,2013-02-15 16:37:00,
2013-02-15 10:38:00,57.3,35.6,30.27,NE,45,6.3,7.8,44,0.00,,---,0.00,VWS V14.01,2013-02-15 16:38:00,
2013-02-15 10:39:00,57.7,35.9,30.27,East,90,3.6,6.3,44,0.00,,---,0.00,VWS V14.01,2013-02-15 16:39:00,
2013-02-15 10:40:00,58.0,35.7,30.30,North,0,4.0,4.0,43,0.00,,---,0.00,VWS V14.01,2013-02-15 16:40:00,
2013-02-15 10:41:00,58.0,36.3,30.27,ENE,68,5.8,5.8,44,0.00,,---,0.00,VWS V14.01,2013-02-15 16:41:00,
2013-02-15 10:43:00,58.0,36.3,30.27,SE,135,2.2,3.8,44,0.00,,---,0.00,VWS V14.01,2013-02-15 16:43:00,
2013-02-15 10:44:00,58.2,36.4,30.27,SE,135,0.0,2.2,44,0.00,,---,0.00,VWS V14.01,2013-02-15 16:44:00,
2013-02-15 10:45:00,57.5,35.2,30.30,NNW,338,6.0,6.5,43,0.00,,---,0.00,VWS V14.01,2013-02-15 16:45:00,
2013-02-15 10:47:00,57.7,35.4,30.30,NNE,22,5.4,6.3,43,0.00,,---,0.00,VWS V14.01,2013-02-15 16:47:00,
2013-02-15 10:48:00,58.2,36.4,30.30,North,0,3.4,5.8,44,0.00,,---,0.00,VWS V14.01,2013-02-15 16:48:00,
2013-02-15 10:49:00,57.5,35.2,30.30,NNE,22,5.8,10.1,43,0.00,,---,0.00,VWS V14.01,2013-02-15 16:49:00,
2013-02-15 10:50:00,58.0,35.7,30.30,NW,315,1.1,5.4,43,0.00,,---,0.00,VWS V14.01,2013-02-15 16:50:00,
2013-02-15 10:51:00,57.3,35.0,30.30,NE,45,3.1,8.1,43,0.00,,---,0.00,VWS V14.01,2013-02-15 16:51:00,
2013-02-15 10:52:00,58.0,35.7,30.30,North,0,4.0,4.0,43,0.00,,---,0.00,VWS V14.01,2013-02-15 16:52:00,
2013-02-15 10:53:00,58.2,35.8,30.30,NNW,338,4.9,5.4,43,0.00,,---,0.00,VWS V14.01,2013-02-15 16:53:00,
2013-02-15 10:54:00,58.2,36.4,30.30,North,0,5.4,5.4,44,0.00,,---,0.00,VWS V14.01,2013-02-15 16:54:00,
2013-02-15 10:55:00,59.1,36.0,30.30,SSE,158,0.0,3.6,42,0.00,,---,0.00,VWS V14.01,2013-02-15 16:55:00,
2013-02-15 10:56:00,57.9,35.5,30.30,North,0,4.9,5.6,43,0.00,,---,0.00,VWS V14.01,2013-02-15 16:56:00,
2013-02-15 10:57:00,57.5,35.2,30.30,NNW,338,6.0,6.5,43,0.00,,---,0.00,VWS V14.01,2013-02-15 16:57:00,
2013-02-15 10:58:00,57.9,35.5,30.30,NNE,22,5.8,6.0,43,0.00,,---,0.00,VWS V14.01,2013-02-15 16:58:00,
2013-02-15 10:59:00,57.9,35.5,30.30,NNE,22,4.3,5.8,43,0.00,,---,0.00,VWS V14.01,2013-02-15 16:59:00,
2013-02-15 11:00:00,58.6,35.6,30.30,NNW,338,4.0,6.3,42,0.00,,---,0.00,VWS V14.01,2013-02-15 17:00:00,
2013-02-15 11:01:00,57.9,35.5,30.30,NNE,22,4.3,8.7,43,0.00,,---,0.00,VWS V14.01,2013-02-15 17:01:00,
2013-02-15 11:02:00,58.0,35.7,30.30,NW,315,1.1,5.4,43,0.00,,---,0.00,VWS V14.01,2013-02-15 17:02:00,
2013-02-15 11:03:00,58.2,35.8,30.30,ESE,112,4.3,4.3,43,0.00,,---,0.00,VWS V14.01,2013-02-15 17:03:00,
2013-02-15 11:04:00,58.2,35.8,30.30,ENE,68,4.0,5.6,43,0.00,,---,0.00,VWS V14.01,2013-02-15 17:04:00,
2013-02-15 11:05:00,58.4,35.4,30.27,North,0,4.7,4.9,42,0.00,,---,0.00,VWS V14.01,2013-02-15 17:05:00,
2013-02-15 11:06:00,58.9,36.5,30.30,ENE,68,3.6,3.6,43,0.00,,---,0.00,VWS V14.01,2013-02-15 17:06:00,
2013-02-15 11:07:00,59.1,36.0,30.30,SSE,158,0.0,3.6,42,0.00,,---,0.00,VWS V14.01,2013-02-15 17:07:00,
2013-02-15 11:08:00,59.1,36.0,30.30,ENE,68,2.7,2.7,42,0.00,,---,0.00,VWS V14.01,2013-02-15 17:08:00,
2013-02-15 11:09:00,58.9,35.9,30.30,North,0,8.1,8.1,42,0.00,,---,0.00,VWS V14.01,2013-02-15 17:09:00,
2013-02-15 11:10:00,57.5,35.2,30.27,NNE,22,8.5,8.5,43,0.00,,---,0.00,VWS V14.01,2013-02-15 17:10:00,
2013-02-15 11:11:00,57.2,34.3,30.30,NNE,22,5.8,7.6,42,0.00,,---,0.00,VWS V14.01,2013-02-15 17:11:00,
2013-02-15 11:12:00,58.6,35.6,30.30,NNW,338,4.0,6.3,42,0.00,,---,0.00,VWS V14.01,2013-02-15 17:12:00,
2013-02-15 11:13:00,58.4,35.4,30.30,NW,315,5.8,8.1,42,0.00,,---,0.00,VWS V14.01,2013-02-15 17:13:00,
2013-02-15 11:14:00,57.9,34.9,30.30,NNW,338,7.8,11.0,42,0.00,,---,0.00,VWS V14.01,2013-02-15 17:14:00,
2013-02-15 11:15:00,58.0,35.1,30.27,North,0,5.8,9.4,42,0.00,,---,0.00,VWS V14.01,2013-02-15 17:15:00,
2013-02-15 11:16:00,58.2,35.8,30.30,North,0,4.9,4.9,43,0.00,,---,0.00,VWS V14.01,2013-02-15 17:16:00,
2013-02-15 11:17:00,58.4,35.4,30.27,North,0,4.7,4.9,42,0.00,,---,0.00,VWS V14.01,2013-02-15 17:17:00,
2013-02-15 11:18:00,58.4,35.4,30.27,North,0,5.4,5.4,42,0.00,,---,0.00,VWS V14.01,2013-02-15 17:18:00,
2013-02-15 11:19:00,58.0,35.7,30.27,NNW,338,8.1,8.1,43,0.00,,---,0.00,VWS V14.01,2013-02-15 17:19:00,
2013-02-15 11:20:00,58.7,35.7,30.30,NNW,338,3.8,7.6,42,0.00,,---,0.00,VWS V14.01,2013-02-15 17:20:00,
2013-02-15 11:21:00,57.9,35.5,30.27,North,0,5.4,7.8,43,0.00,,---,0.00,VWS V14.01,2013-02-15 17:21:00,
2013-02-15 11:22:00,57.5,35.2,30.27,NNE,22,8.5,8.5,43,0.00,,---,0.00,VWS V14.01,2013-02-15 17:22:00,
2013-02-15 11:23:00,58.0,35.7,30.27,NNW,338,6.0,8.5,43,0.00,,---,0.00,VWS V14.01,2013-02-15 17:23:00,
2013-02-15 11:24:00,58.4,35.4,30.27,North,0,3.6,6.0,42,0.00,,---,0.00,VWS V14.01,2013-02-15 17:24:00,
2013-02-15 11:25:00,58.7,35.1,30.30,North,0,7.2,7.2,41,0.00,,---,0.00,VWS V14.01,2013-02-15 17:25:00,
2013-02-15 11:26:00,58.6,35.6,30.27,North,0,7.6,7.8,42,0.00,,---,0.00,VWS V14.01,2013-02-15 17:26:00,
2013-02-15 11:28:00,58.6,35.6,30.27,NNE,22,3.4,5.8,42,0.00,,---,0.00,VWS V14.01,2013-02-15 17:28:00,
2013-02-15 11:29:00,58.9,35.9,30.27,North,0,5.8,5.8,42,0.00,,---,0.00,VWS V14.01,2013-02-15 17:29:00,
2013-02-15 11:30:00,57.7,34.2,30.30,North,0,8.1,8.1,41,0.00,,---,0.00,VWS V14.01,2013-02-15 17:30:00,
2013-02-15 11:31:00,58.6,35.6,30.27,NNW,338,7.6,8.1,42,0.00,,---,0.00,VWS V14.01,2013-02-15 17:31:00,
2013-02-15 11:32:00,58.7,35.7,30.30,NNW,338,3.8,7.6,42,0.00,,---,0.00,VWS V14.01,2013-02-15 17:32:00,
2013-02-15 11:33:00,58.2,35.2,30.30,North,0,6.7,8.5,42,0.00,,---,0.00,VWS V14.01,2013-02-15 17:33:00,
2013-02-15 11:34:00,58.4,35.4,30.30,North,0,6.9,7.4,42,0.00,,---,0.00,VWS V14.01,2013-02-15 17:34:00,
2013-02-15 11:35:00,59.3,35.6,30.30,North,0,5.6,8.5,41,0.00,,---,0.00,VWS V14.01,2013-02-15 17:35:00,
2013-02-15 11:36:00,58.2,34.6,30.30,NE,45,6.5,11.0,41,0.00,,---,0.00,VWS V14.01,2013-02-15 17:36:00,
2013-02-15 11:37:00,58.7,35.1,30.30,North,0,7.2,7.2,41,0.00,,---,0.00,VWS V14.01,2013-02-15 17:37:00,
2013-02-15 11:38:00,57.7,34.2,30.30,North,0,9.8,9.8,41,0.00,,---,0.00,VWS V14.01,2013-02-15 17:38:00,
2013-02-15 11:39:00,58.4,34.8,30.30,NNW,338,6.5,10.3,41,0.00,,---,0.00,VWS V14.01,2013-02-15 17:39:00,
2013-02-15 11:40:00,60.2,36.4,30.30,North,0,5.4,7.6,41,0.00,,---,0.00,VWS V14.01,2013-02-15 17:40:00,
2013-02-15 11:41:00,58.6,35.6,30.30,NNE,22,6.3,7.8,42,0.00,,---,0.00,VWS V14.01,2013-02-15 17:41:00,
2013-02-15 11:42:00,57.7,34.2,30.30,North,0,8.1,8.1,41,0.00,,---,0.00,VWS V14.01,2013-02-15 17:42:00,
2013-02-15 11:43:00,58.7,35.1,30.30,ENE,68,8.7,8.7,41,0.00,,---,0.00,VWS V14.01,2013-02-15 17:43:00,
2013-02-15 11:44:00,58.9,35.3,30.30,NW,315,6.3,10.1,41,0.00,,---,0.00,VWS V14.01,2013-02-15 17:44:00,
2013-02-15 11:45:00,59.6,35.3,30.30,North,0,5.6,8.7,40,0.00,,---,0.00,VWS V14.01,2013-02-15 17:45:00,
2013-02-15 11:46:00,58.9,35.3,30.30,North,0,5.8,5.8,41,0.00,,---,0.00,VWS V14.01,2013-02-15 17:46:00,
2013-02-15 11:47:00,59.3,35.6,30.30,North,0,5.6,8.5,41,0.00,,---,0.00,VWS V14.01,2013-02-15 17:47:00,
2013-02-15 11:48:00,59.8,36.1,30.30,North,0,3.8,7.2,41,0.00,,---,0.00,VWS V14.01,2013-02-15 17:48:00,
2013-02-15 11:49:00,59.8,36.1,30.30,North,0,4.9,6.9,41,0.00,,---,0.00,VWS V14.01,2013-02-15 17:49:00,
2013-02-15 11:50:00,59.8,35.5,30.30,NNE,22,3.6,10.5,40,0.00,,---,0.00,VWS V14.01,2013-02-15 17:50:00,
2013-02-15 11:51:00,59.8,36.1,30.30,NNE,22,7.6,7.8,41,0.00,,---,0.00,VWS V14.01,2013-02-15 17:51:00,
2013-02-15 11:52:00,60.2,36.4,30.30,North,0,5.4,7.6,41,0.00,,---,0.00,VWS V14.01,2013-02-15 17:52:00,
2013-02-15 11:53:00,59.8,36.1,30.30,NNW,338,3.1,8.1,41,0.00,,---,0.00,VWS V14.01,2013-02-15 17:53:00,
2013-02-15 11:55:00,60.2,35.8,30.30,North,0,7.8,7.8,40,0.00,,---,0.00,VWS V14.01,2013-02-15 17:55:00,
2013-02-15 11:56:00,59.8,36.1,30.30,NNE,22,4.3,6.0,41,0.00,,---,0.00,VWS V14.01,2013-02-15 17:56:00,
2013-02-15 11:57:00,59.6,35.3,30.30,North,0,5.6,8.7,40,0.00,,---,0.00,VWS V14.01,2013-02-15 17:57:00,
2013-02-15 11:59:00,59.8,36.1,30.30,NE,45,8.1,9.8,41,0.00,,---,0.00,VWS V14.01,2013-02-15 17:59:00,
2013-02-15 12:00:00,60.2,35.1,30.30,NNW,338,7.4,8.1,39,0.00,,---,0.00,VWS V14.01,2013-02-15 18:00:00,
2013-02-15 12:01:00,60.2,35.8,30.30,North,0,10.5,10.5,40,0.00,,---,0.00,VWS V14.01,2013-02-15 18:01:00,
2013-02-15 12:02:00,59.8,35.5,30.30,NNE,22,3.6,10.5,40,0.00,,---,0.00,VWS V14.01,2013-02-15 18:02:00,
2013-02-15 12:03:00,60.2,35.1,30.30,NE,45,5.6,5.6,39,0.00,,---,0.00,VWS V14.01,2013-02-15 18:03:00,
2013-02-15 12:04:00,60.0,35.6,30.30,NE,45,10.5,10.5,40,0.00,,---,0.00,VWS V14.01,2013-02-15 18:04:00,
2013-02-15 12:05:00,59.8,34.8,30.30,NNE,22,10.3,10.3,39,0.00,,---,0.00,VWS V14.01,2013-02-15 18:05:00,
2013-02-15 12:07:00,60.2,35.8,30.30,North,0,7.8,7.8,40,0.00,,---,0.00,VWS V14.01,2013-02-15 18:07:00,
2013-02-15 12:08:00,60.2,35.1,30.30,NNW,338,10.1,13.0,39,0.00,,---,0.00,VWS V14.01,2013-02-15 18:08:00,
2013-02-15 12:09:00,59.6,34.7,30.30,NNW,338,8.1,10.5,39,0.00,,---,0.00,VWS V14.01,2013-02-15 18:09:00,
2013-02-15 12:10:00,60.3,34.6,30.30,NE,45,6.5,8.7,38,0.00,,---,0.00,VWS V14.01,2013-02-15 18:10:00,
2013-02-15 12:11:00,60.2,35.1,30.30,North,0,7.6,9.2,39,0.00,,---,0.00,VWS V14.01,2013-02-15 18:11:00,
2013-02-15 12:12:00,60.2,35.1,30.30,NNW,338,7.4,8.1,39,0.00,,---,0.00,VWS V14.01,2013-02-15 18:12:00,
2013-02-15 12:13:00,60.2,35.1,30.30,NNE,22,12.5,12.5,39,0.00,,---,0.00,VWS V14.01,2013-02-15 18:13:00,
2013-02-15 12:14:00,59.8,34.8,30.30,North,0,7.8,12.5,39,0.00,,---,0.00,VWS V14.01,2013-02-15 18:14:00,
2013-02-15 12:15:00,60.7,35.0,30.30,North,0,7.8,10.3,38,0.00,,---,0.00,VWS V14.01,2013-02-15 18:15:00,
2013-02-15 12:16:00,59.8,34.2,30.30,North,0,8.5,8.5,38,0.00,,---,0.00,VWS V14.01,2013-02-15 18:16:00,
2013-02-15 12:17:00,59.8,34.8,30.30,NNE,22,10.3,10.3,39,0.00,,---,0.00,VWS V14.01,2013-02-15 18:17:00,
2013-02-15 12:18:00,60.3,34.6,30.30,NNE,22,6.0,10.3,38,0.00,,---,0.00,VWS V14.01,2013-02-15 18:18:00,
2013-02-15 12:19:00,60.5,34.8,30.30,NNE,22,6.0,6.3,38,0.00,,---,0.00,VWS V14.01,2013-02-15 18:19:00,
2013-02-15 12:20:00,59.1,33.5,30.30,North,0,12.8,13.0,38,0.00,,---,0.00,VWS V14.01,2013-02-15 18:20:00,
2013-02-15 12:22:00,60.3,34.6,30.30,NE,45,6.5,8.7,38,0.00,,---,0.00,VWS V14.01,2013-02-15 18:22:00,
2013-02-15 12:25:00,60.0,35.0,30.30,North,0,7.8,13.0,39,0.00,,---,0.00,VWS V14.01,2013-02-15 18:25:00,
2013-02-15 12:26:00,59.8,34.2,30.30,NNE,22,10.1,11.0,38,0.00,,---,0.00,VWS V14.01,2013-02-15 18:26:00,
2013-02-15 12:27:00,60.7,35.0,30.30,North,0,7.8,10.3,38,0.00,,---,0.00,VWS V14.01,2013-02-15 18:27:00,
2013-02-15 12:28:00,60.9,35.1,30.30,NNW,338,6.3,7.8,38,0.00,,---,0.00,VWS V14.01,2013-02-15 18:28:00,
2013-02-15 12:29:00,61.4,35.6,30.30,NNE,22,6.7,6.7,38,0.00,,---,0.00,VWS V14.01,2013-02-15 18:29:00,
2013-02-15 12:30:00,60.0,35.0,30.30,NE,45,10.7,10.7,39,0.00,,---,0.00,VWS V14.01,2013-02-15 18:30:00,
2013-02-15 12:31:00,60.5,34.8,30.30,NNE,22,10.7,11.4,38,0.00,,---,0.00,VWS V14.01,2013-02-15 18:31:00,
2013-02-15 12:32:00,59.1,33.5,30.30,North,0,12.8,13.0,38,0.00,,---,0.00,VWS V14.01,2013-02-15 18:32:00,
2013-02-15 12:33:00,59.8,34.8,30.30,North,0,15.4,15.4,39,0.00,,---,0.00,VWS V14.01,2013-02-15 18:33:00,
2013-02-15 12:34:00,60.7,35.6,30.30,North,0,4.0,15.4,39,0.00,,---,0.00,VWS V14.01,2013-02-15 18:34:00,
2013-02-15 12:35:00,60.2,34.5,30.27,ENE,68,6.7,12.3,38,0.00,,---,0.00,VWS V14.01,2013-02-15 18:35:00,
2013-02-15 12:37:00,60.0,35.0,30.30,North,0,7.8,13.0,39,0.00,,---,0.00,VWS V14.01,2013-02-15 18:37:00,
2013-02-15 12:38:00,60.7,35.6,30.30,West,270,4.9,7.8,39,0.00,,---,0.00,VWS V14.01,2013-02-15 18:38:00,
2013-02-15 12:40:00,60.7,35.0,30.27,NNE,22,4.7,5.6,38,0.00,,---,0.00,VWS V14.01,2013-02-15 18:40:00,
2013-02-15 12:42:00,60.0,35.0,30.30,NE,45,10.7,10.7,39,0.00,,---,0.00,VWS V14.01,2013-02-15 18:42:00,
2013-02-15 12:43:00,59.8,34.2,30.30,NNW,338,5.4,10.7,38,0.00,,---,0.00,VWS V14.01,2013-02-15 18:43:00,
2013-02-15 12:44:00,60.5,34.8,30.30,NNW,338,6.0,6.0,38,0.00,,---,0.00,VWS V14.01,2013-02-15 18:44:00,
2013-02-15 12:45:00,59.6,34.0,30.27,North,0,12.3,12.8,38,0.00,,---,0.00,VWS V14.01,2013-02-15 18:45:00,
2013-02-15 12:46:00,60.7,35.6,30.30,North,0,11.0,11.0,39,0.00,,---,0.00,VWS V14.01,2013-02-15 18:46:00,
2013-02-15 12:47:00,60.2,34.5,30.27,ENE,68,6.7,12.3,38,0.00,,---,0.00,VWS V14.01,2013-02-15 18:47:00,
2013-02-15 12:48:00,59.6,34.0,30.27,North,0,6.0,7.4,38,0.00,,---,0.00,VWS V14.01,2013-02-15 18:48:00,
2013-02-15 12:49:00,59.6,34.0,30.27,North,0,9.6,9.6,38,0.00,,---,0.00,VWS V14.01,2013-02-15 18:49:00,
2013-02-15 12:50:00,61.2,35.4,30.30,NNE,22,10.1,10.1,38,0.00,,---,0.00,VWS V14.01,2013-02-15 18:50:00,
2013-02-15 12:51:00,60.2,34.5,30.27,NE,45,5.6,7.2,38,0.00,,---,0.00,VWS V14.01,2013-02-15 18:51:00,
2013-02-15 12:52:00,60.7,35.0,30.27,NNE,22,4.7,5.6,38,0.00,,---,0.00,VWS V14.01,2013-02-15 18:52:00,
2013-02-15 12:53:00,60.7,35.0,30.27,NE,45,8.1,8.7,38,0.00,,---,0.00,VWS V14.01,2013-02-15 18:53:00,
2013-02-15 12:54:00,60.5,34.8,30.27,NW,315,5.6,10.5,38,0.00,,---,0.00,VWS V14.01,2013-02-15 18:54:00,
2013-02-15 12:55:00,59.5,34.5,30.30,North,0,11.2,12.5,39,0.00,,---,0.00,VWS V14.01,2013-02-15 18:55:00,
2013-02-15 12:56:00,59.8,34.2,30.27,ENE,68,10.1,10.1,38,0.00,,---,0.00,VWS V14.01,2013-02-15 18:56:00,
2013-02-15 12:57:00,59.6,34.0,30.27,North,0,12.3,12.8,38,0.00,,---,0.00,VWS V14.01,2013-02-15 18:57:00,
2013-02-15 12:58:00,60.5,34.8,30.27,NNW,338,14.8,14.8,38,0.00,,---,0.00,VWS V14.01,2013-02-15 18:58:00,
2013-02-15 12:59:00,60.5,34.8,30.27,North,0,6.5,14.8,38,0.00,,---,0.00,VWS V14.01,2013-02-15 18:59:00,
2013-02-15 13:00:00,59.3,34.3,30.30,NNE,22,14.8,14.8,39,0.00,,---,0.00,VWS V14.01,2013-02-15 19:00:00,
2013-02-15 13:01:00,61.6,36.4,30.27,NNE,22,9.2,9.2,39,0.00,,---,0.00,VWS V14.01,2013-02-15 19:01:00,
2013-02-15 13:02:00,61.2,35.4,30.30,NNE,22,10.1,10.1,38,0.00,,---,0.00,VWS V14.01,2013-02-15 19:02:00,
2013-02-15 13:03:00,60.9,35.1,30.30,NNE,22,10.7,15.4,38,0.00,,---,0.00,VWS V14.01,2013-02-15 19:03:00,
2013-02-15 13:04:00,60.0,34.3,30.30,NNE,22,10.3,12.1,38,0.00,,---,0.00,VWS V14.01,2013-02-15 19:04:00,
2013-02-15 13:05:00,59.3,34.3,30.27,North,0,14.5,14.5,39,0.00,,---,0.00,VWS V14.01,2013-02-15 19:05:00,
2013-02-15 13:06:00,59.8,34.2,30.30,NW,315,6.5,10.1,38,0.00,,---,0.00,VWS V14.01,2013-02-15 19:06:00,
2013-02-15 13:07:00,59.5,34.5,30.30,North,0,11.2,12.5,39,0.00,,---,0.00,VWS V14.01,2013-02-15 19:07:00,
2013-02-15 13:08:00,58.9,33.4,30.30,NNW,338,10.3,12.1,38,0.00,,---,0.00,VWS V14.01,2013-02-15 19:08:00,
2013-02-15 13:09:00,58.6,33.1,30.30,NW,315,10.1,12.5,38,0.00,,---,0.00,VWS V14.01,2013-02-15 19:09:00,
2013-02-15 13:10:00,59.5,34.5,30.27,North,0,10.7,15.2,39,0.00,,---,0.00,VWS V14.01,2013-02-15 19:10:00,
2013-02-15 13:11:00,58.2,33.4,30.30,NNE,22,12.5,15.4,39,0.00,,---,0.00,VWS V14.01,2013-02-15 19:11:00,
2013-02-15 13:12:00,59.3,34.3,30.30,NNE,22,14.8,14.8,39,0.00,,---,0.00,VWS V14.01,2013-02-15 19:12:00,
2013-02-15 13:13:00,60.0,35.6,30.30,NNW,338,5.6,14.8,40,0.00,,---,0.00,VWS V14.01,2013-02-15 19:13:00,
2013-02-15 13:14:00,60.2,35.1,30.30,NNW,338,14.8,14.8,39,0.00,,---,0.00,VWS V14.01,2013-02-15 19:14:00,
2013-02-15 13:15:00,61.0,35.9,30.27,NNW,338,5.4,8.7,39,0.00,,---,0.00,VWS V14.01,2013-02-15 19:15:00,
2013-02-15 13:16:00,58.6,33.7,30.30,North,0,13.6,16.6,39,0.00,,---,0.00,VWS V14.01,2013-02-15 19:16:00,
2013-02-15 13:17:00,59.3,34.3,30.27,North,0,14.5,14.5,39,0.00,,---,0.00,VWS V14.01,2013-02-15 19:17:00,
2013-02-15 13:18:00,59.5,34.5,30.27,NNW,338,11.0,14.5,39,0.00,,---,0.00,VWS V14.01,2013-02-15 19:18:00,
2013-02-15 13:19:00,59.8,34.8,30.27,NNW,338,9.6,11.0,39,0.00,,---,0.00,VWS V14.01,2013-02-15 19:19:00,
2013-02-15 13:20:00,62.1,36.2,30.24,NNE,22,13.2,13.2,38,0.00,,---,0.00,VWS V14.01,2013-02-15 19:20:00,
2013-02-15 13:22:00,59.5,34.5,30.27,North,0,10.7,15.2,39,0.00,,---,0.00,VWS V14.01,2013-02-15 19:22:00,
2013-02-15 13:23:00,59.5,34.5,30.27,NW,315,11.0,12.8,39,0.00,,---,0.00,VWS V14.01,2013-02-15 19:23:00,
2013-02-15 13:24:00,59.6,34.7,30.27,NNW,338,8.5,12.3,39,0.00,,---,0.00,VWS V14.01,2013-02-15 19:24:00,
2013-02-15 13:25:00,60.7,35.0,30.24,NE,45,6.0,14.8,38,0.00,,---,0.00,VWS V14.01,2013-02-15 19:25:00,
2013-02-15 13:26:00,59.8,34.8,30.27,North,0,8.7,15.4,39,0.00,,---,0.00,VWS V14.01,2013-02-15 19:26:00,
2013-02-15 13:27:00,61.0,35.9,30.27,NNW,338,5.4,8.7,39,0.00,,---,0.00,VWS V14.01,2013-02-15 19:27:00,
2013-02-15 13:28:00,61.4,36.2,30.27,North,0,7.6,7.6,39,0.00,,---,0.00,VWS V14.01,2013-02-15 19:28:00,
2013-02-15 13:29:00,61.2,35.4,30.27,ENE,68,6.5,10.5,38,0.00,,---,0.00,VWS V14.01,2013-02-15 19:29:00,
2013-02-15 13:30:00,61.0,35.3,30.24,North,0,9.8,10.3,38,0.00,,---,0.00,VWS V14.01,2013-02-15 19:30:00,
2013-02-15 13:31:00,62.1,36.2,30.27,North,0,7.2,10.1,38,0.00,,---,0.00,VWS V14.01,2013-02-15 19:31:00,
2013-02-15 13:32:00,62.1,36.2,30.24,NNE,22,13.2,13.2,38,0.00,,---,0.00,VWS V14.01,2013-02-15 19:32:00,
2013-02-15 13:34:00,60.3,34.6,30.24,NNW,338,11.0,12.5,38,0.00,,---,0.00,VWS V14.01,2013-02-15 19:34:00,
2013-02-15 13:35:00,60.9,35.1,30.24,NNW,338,6.5,10.7,38,0.00,,---,0.00,VWS V14.01,2013-02-15 19:35:00,
2013-02-15 13:36:00,61.2,35.4,30.24,NNE,22,9.6,13.2,38,0.00,,---,0.00,VWS V14.01,2013-02-15 19:36:00,
2013-02-15 13:37:00,60.7,35.0,30.24,NE,45,6.0,14.8,38,0.00,,---,0.00,VWS V14.01,2013-02-15 19:37:00,
2013-02-15 13:39:00,61.0,35.3,30.24,NNE,22,9.8,9.8,38,0.00,,---,0.00,VWS V14.01,2013-02-15 19:39:00,
2013-02-15 13:40:00,59.3,34.3,30.24,NNW,338,6.3,6.3,39,0.00,,---,0.00,VWS V14.01,2013-02-15 19:40:00,
2013-02-15 13:41:00,61.4,35.6,30.24,North,0,9.8,9.8,38,0.00,,---,0.00,VWS V14.01,2013-02-15 19:41:00,
2013-02-15 13:42:00,61.0,35.3,30.24,North,0,9.8,10.3,38,0.00,,---,0.00,VWS V14.01,2013-02-15 19:42:00,
2013-02-15 13:43:00,61.8,35.9,30.24,North,0,6.0,11.0,38,0.00,,---,0.00,VWS V14.01,2013-02-15 19:43:00,
2013-02-15 13:44:00,61.2,35.4,30.24,North,0,11.0,12.5,38,0.00,,---,0.00,VWS V14.01,2013-02-15 19:44:00,
2013-02-15 13:45:00,58.7,33.2,30.24,NNW,338,1.6,3.6,38,0.00,,---,0.00,VWS V14.01,2013-02-15 19:45:00,
2013-02-15 13:46:00,60.5,34.8,30.24,NNW,338,6.5,8.7,38,0.00,,---,0.00,VWS V14.01,2013-02-15 19:46:00,
2013-02-15 13:47:00,60.9,35.1,30.24,NNW,338,6.5,10.7,38,0.00,,---,0.00,VWS V14.01,2013-02-15 19:47:00,
2013-02-15 13:48:00,60.7,35.0,30.24,North,0,6.5,7.8,38,0.00,,---,0.00,VWS V14.01,2013-02-15 19:48:00,
2013-02-15 13:49:00,59.5,33.8,30.24,NW,315,6.7,14.8,38,0.00,,---,0.00,VWS V14.01,2013-02-15 19:49:00,
2013-02-15 13:50:00,60.5,34.8,30.24,NNW,338,4.0,4.0,38,0.00,,---,0.00,VWS V14.01,2013-02-15 19:50:00,
2013-02-15 13:51:00,59.3,33.7,30.24,NNW,338,8.1,9.8,38,0.00,,---,0.00,VWS V14.01,2013-02-15 19:51:00,
2013-02-15 13:52:00,59.3,34.3,30.24,NNW,338,6.3,8.5,39,0.00,,---,0.00,VWS V14.01,2013-02-15 19:52:00,
2013-02-15 13:53:00,59.3,34.3,30.24,NNW,338,8.7,8.7,39,0.00,,---,0.00,VWS V14.01,2013-02-15 19:53:00,
2013-02-15 13:54:00,59.3,34.3,30.24,NNW,338,8.1,12.5,39,0.00,,---,0.00,VWS V14.01,2013-02-15 19:54:00,
2013-02-15 13:55:00,58.7,33.2,30.24,North,0,6.0,12.1,38,0.00,,---,0.00,VWS V14.01,2013-02-15 19:55:00,
2013-02-15 13:56:00,58.0,33.2,30.24,NNW,338,8.7,10.7,39,0.00,,---,0.00,VWS V14.01,2013-02-15 19:56:00,
2013-02-15 13:57:00,58.7,33.2,30.24,West,270,3.6,8.1,38,0.00,,---,0.00,VWS V14.01,2013-02-15 19:57:00,
2013-02-15 13:58:00,58.7,33.2,30.24,North,0,12.8,12.8,38,0.00,,---,0.00,VWS V14.01,2013-02-15 19:58:00,
2013-02-15 14:00:00,58.7,33.2,30.24,NNE,22,10.1,12.8,38,0.00,,---,0.00,VWS V14.01,2013-02-15 20:00:00,
2013-02-15 14:01:00,58.2,33.4,30.24,North,0,5.4,7.2,39,0.00,,---,0.00,VWS V14.01,2013-02-15 20:01:00,
2013-02-15 14:02:00,60.5,34.8,30.24,NNW,338,4.0,5.6,38,0.00,,---,0.00,VWS V14.01,2013-02-15 20:02:00,
2013-02-15 14:03:00,60.0,35.0,30.24,NNW,338,8.5,12.1,39,0.00,,---,0.00,VWS V14.01,2013-02-15 20:03:00,
2013-02-15 14:04:00,59.5,34.5,30.24,NNW,338,10.1,12.8,39,0.00,,---,0.00,VWS V14.01,2013-02-15 20:04:00,
2013-02-15 14:05:00,58.9,33.4,30.24,North,0,10.1,13.6,38,0.00,,---,0.00,VWS V14.01,2013-02-15 20:05:00,
2013-02-15 14:06:00,58.2,34.0,30.24,NNW,338,4.9,6.5,40,0.00,,---,0.00,VWS V14.01,2013-02-15 20:06:00,
2013-02-15 14:07:00,58.0,33.2,30.24,North,0,10.7,13.0,39,0.00,,---,0.00,VWS V14.01,2013-02-15 20:07:00,
2013-02-15 14:08:00,58.0,33.2,30.24,North,0,7.8,11.0,39,0.00,,---,0.00,VWS V14.01,2013-02-15 20:08:00,
2013-02-15 14:09:00,58.2,33.4,30.24,North,0,3.6,7.8,39,0.00,,---,0.00,VWS V14.01,2013-02-15 20:09:00,
2013-02-15 14:10:00,58.2,33.4,30.24,North,0,8.7,8.7,39,0.00,,---,0.00,VWS V14.01,2013-02-15 20:10:00,
2013-02-15 14:11:00,57.7,32.9,30.24,NNW,338,9.8,10.3,39,0.00,,---,0.00,VWS V14.01,2013-02-15 20:11:00,
2013-02-15 14:12:00,58.2,33.4,30.24,NNE,22,7.2,9.8,39,0.00,,---,0.00,VWS V14.01,2013-02-15 20:12:00,
2013-02-15 14:13:00,57.3,32.6,30.24,North,0,9.8,11.0,39,0.00,,---,0.00,VWS V14.01,2013-02-15 20:13:00,
2013-02-15 14:14:00,57.3,32.6,30.24,NNE,22,10.5,12.1,39,0.00,,---,0.00,VWS V14.01,2013-02-15 20:14:00,
2013-02-15 14:15:00,57.5,32.8,30.24,NNW,338,8.5,10.5,39,0.00,,---,0.00,VWS V14.01,2013-02-15 20:15:00,
2013-02-15 14:16:00,57.5,33.4,30.24,North,0,6.3,6.3,40,0.00,,---,0.00,VWS V14.01,2013-02-15 20:16:00,
2013-02-15 14:17:00,57.7,32.9,30.24,North,0,6.5,11.0,39,0.00,,---,0.00,VWS V14.01,2013-02-15 20:17:00,
2013-02-15 14:18:00,58.2,34.0,30.24,NNE,22,7.6,7.6,40,0.00,,---,0.00,VWS V14.01,2013-02-15 20:18:00,
2013-02-15 14:19:00,58.2,33.4,30.24,NNE,22,9.8,9.8,39,0.00,,---,0.00,VWS V14.01,2013-02-15 20:19:00,
2013-02-15 14:20:00,58.2,33.4,30.24,North,0,10.3,10.5,39,0.00,,---,0.00,VWS V14.01,2013-02-15 20:20:00,
2013-02-15 14:21:00,56.6,32.6,30.24,North,0,9.6,13.2,40,0.00,,---,0.00,VWS V14.01,2013-02-15 20:21:00,
2013-02-15 14:22:00,57.7,32.9,30.24,North,0,10.3,11.0,39,0.00,,---,0.00,VWS V14.01,2013-02-15 20:22:00,
2013-02-15 14:23:00,57.7,32.9,30.24,NNW,338,13.4,13.4,39,0.00,,---,0.00,VWS V14.01,2013-02-15 20:23:00,
2013-02-15 14:24:00,57.5,33.4,30.24,North,0,8.1,13.4,40,0.00,,---,0.00,VWS V14.01,2013-02-15 20:24:00,
2013-02-15 14:25:00,57.3,33.2,30.24,North,0,8.1,9.6,40,0.00,,---,0.00,VWS V14.01,2013-02-15 20:25:00,
2013-02-15 14:26:00,56.4,33.0,30.24,North,0,13.6,13.6,41,0.00,,---,0.00,VWS V14.01,2013-02-15 20:26:00,
2013-02-15 14:27:00,57.5,33.4,30.24,NNW,338,6.3,6.3,40,0.00,,---,0.00,VWS V14.01,2013-02-15 20:27:00,
2013-02-15 14:28:00,57.2,33.1,30.24,NNE,22,5.6,6.3,40,0.00,,---,0.00,VWS V14.01,2013-02-15 20:28:00,
2013-02-15 14:29:00,57.3,33.2,30.24,North,0,11.0,11.0,40,0.00,,---,0.00,VWS V14.01,2013-02-15 20:29:00,
2013-02-15 14:30:00,57.3,33.8,30.24,North,0,7.4,11.0,41,0.00,,---,0.00,VWS V14.01,2013-02-15 20:30:00,
2013-02-15 14:31:00,56.3,32.9,30.24,North,0,6.3,8.1,41,0.00,,---,0.00,VWS V14.01,2013-02-15 20:31:00,
2013-02-15 14:32:00,57.2,33.1,30.24,North,0,13.0,13.0,40,0.00,,---,0.00,VWS V14.01,2013-02-15 20:32:00,
2013-02-15 14:33:00,57.2,33.7,30.24,NNW,338,11.4,13.2,41,0.00,,---,0.00,VWS V14.01,2013-02-15 20:33:00,
2013-02-15 14:34:00,56.8,33.4,30.24,North,0,12.8,12.8,41,0.00,,---,0.00,VWS V14.01,2013-02-15 20:34:00,
2013-02-15 14:35:00,56.4,33.0,30.24,NNW,338,15.4,15.4,41,0.00,,---,0.00,VWS V14.01,2013-02-15 20:35:00,
2013-02-15 14:36:00,56.8,34.0,30.24,NNW,338,9.6,9.8,42,0.00,,---,0.00,VWS V14.01,2013-02-15 20:36:00,
2013-02-15 14:37:00,56.8,33.4,30.24,NE,45,12.1,12.1,41,0.00,,---,0.00,VWS V14.01,2013-02-15 20:37:00,
2013-02-15 14:38:00,56.4,33.0,30.24,NNW,338,7.4,13.6,41,0.00,,---,0.00,VWS V14.01,2013-02-15 20:38:00,
2013-02-15 14:39:00,56.6,33.2,30.24,North,0,11.9,11.9,41,0.00,,---,0.00,VWS V14.01,2013-02-15 20:39:00,
2013-02-15 14:40:00,56.3,32.9,30.24,NNW,338,12.8,15.4,41,0.00,,---,0.00,VWS V14.01,2013-02-15 20:40:00,
2013-02-15 14:41:00,55.5,33.4,30.24,North,0,7.8,15.4,43,0.00,,---,0.00,VWS V14.01,2013-02-15 20:41:00,
2013-02-15 14:42:00,56.3,32.9,30.24,North,0,8.1,8.7,41,0.00,,---,0.00,VWS V14.01,2013-02-15 20:42:00,
2013-02-15 14:43:00,56.4,33.0,30.24,NNW,338,10.7,10.7,41,0.00,,---,0.00,VWS V14.01,2013-02-15 20:43:00,
2013-02-15 14:44:00,56.4,33.7,30.24,North,0,13.2,14.8,42,0.00,,---,0.00,VWS V14.01,2013-02-15 20:44:00,
2013-02-15 14:45:00,56.3,33.5,30.24,NW,315,10.1,13.2,42,0.00,,---,0.00,VWS V14.01,2013-02-15 20:45:00,
2013-02-15 14:46:00,55.4,33.3,30.24,NW,315,8.5,10.1,43,0.00,,---,0.00,VWS V14.01,2013-02-15 20:46:00,
2013-02-15 14:47:00,56.8,34.0,30.24,NNW,338,9.8,10.7,42,0.00,,---,0.00,VWS V14.01,2013-02-15 20:47:00,
2013-02-15 14:48:00,56.8,34.0,30.24,North,0,10.1,10.1,42,0.00,,---,0.00,VWS V14.01,2013-02-15 20:48:00,
2013-02-15 14:50:00,55.7,33.0,30.24,NNW,338,13.4,17.0,42,0.00,,---,0.00,VWS V14.01,2013-02-15 20:50:00,
2013-02-15 14:51:00,54.5,33.0,30.24,North,0,12.5,16.6,44,0.00,,---,0.00,VWS V14.01,2013-02-15 20:51:00,
2013-02-15 14:52:00,55.5,32.8,30.24,North,0,15.4,15.4,42,0.00,,---,0.00,VWS V14.01,2013-02-15 20:52:00,
2013-02-15 14:53:00,55.5,33.4,30.24,North,0,9.8,15.4,43,0.00,,---,0.00,VWS V14.01,2013-02-15 20:53:00,
2013-02-15 14:54:00,55.9,33.8,30.24,North,0,5.4,9.8,43,0.00,,---,0.00,VWS V14.01,2013-02-15 20:54:00,
2013-02-15 14:55:00,55.9,33.8,30.24,NNE,22,10.5,10.5,43,0.00,,---,0.00,VWS V14.01,2013-02-15 20:55:00,
2013-02-15 14:56:00,54.0,33.1,30.24,NNW,338,10.1,11.0,45,0.00,,---,0.00,VWS V14.01,2013-02-15 20:56:00,
2013-02-15 14:57:00,55.4,33.3,30.24,NNE,22,10.1,13.2,43,0.00,,---,0.00,VWS V14.01,2013-02-15 20:57:00,
2013-02-15 14:58:00,55.2,33.1,30.24,North,0,17.0,17.2,43,0.00,,---,0.00,VWS V14.01,2013-02-15 20:58:00,
2013-02-15 14:59:00,55.0,33.0,30.24,North,0,13.2,17.0,43,0.00,,---,0.00,VWS V14.01,2013-02-15 20:59:00,
2013-02-15 15:00:00,54.8,32.8,30.24,NNW,338,12.1,13.2,43,0.00,,---,0.00,VWS V14.01,2013-02-15 21:00:00,
2013-02-15 15:01:00,54.0,33.1,30.24,North,0,7.6,8.1,45,0.00,,---,0.00,VWS V14.01,2013-02-15 21:01:00,
2013-02-15 15:02:00,54.8,33.4,30.24,North,0,16.6,17.5,44,0.00,,---,0.00,VWS V14.01,2013-02-15 21:02:00,
2013-02-15 15:03:00,54.3,32.9,30.24,North,0,10.3,16.6,44,0.00,,---,0.00,VWS V14.01,2013-02-15 21:03:00,
2013-02-15 15:04:00,54.3,32.9,30.24,North,0,17.5,17.5,44,0.00,,---,0.00,VWS V14.01,2013-02-15 21:04:00,
2013-02-15 15:05:00,54.3,33.4,30.24,NNW,338,8.7,17.5,45,0.00,,---,0.00,VWS V14.01,2013-02-15 21:05:00,
2013-02-15 15:06:00,53.6,32.8,30.24,North,0,7.8,12.8,45,0.00,,---,0.00,VWS V14.01,2013-02-15 21:06:00,
2013-02-15 15:07:00,54.0,33.1,30.24,NW,315,11.0,12.5,45,0.00,,---,0.00,VWS V14.01,2013-02-15 21:07:00,
2013-02-15 15:08:00,54.0,33.1,30.24,North,0,14.5,14.5,45,0.00,,---,0.00,VWS V14.01,2013-02-15 21:08:00,
2013-02-15 15:09:00,53.6,32.8,30.24,North,0,13.2,14.5,45,0.00,,---,0.00,VWS V14.01,2013-02-15 21:09:00,
2013-02-15 15:10:00,53.8,33.0,30.24,NW,315,8.7,13.2,45,0.00,,---,0.00,VWS V14.01,2013-02-15 21:10:00,
2013-02-15 15:11:00,53.8,33.5,30.24,NNW,338,3.1,8.1,46,0.00,,---,0.00,VWS V14.01,2013-02-15 21:11:00,
2013-02-15 15:12:00,54.0,33.1,30.24,North,0,8.1,12.1,45,0.00,,---,0.00,VWS V14.01,2013-02-15 21:12:00,
2013-02-15 15:14:00,54.0,33.1,30.24,North,0,13.2,13.2,45,0.00,,---,0.00,VWS V14.01,2013-02-15 21:14:00,
2013-02-15 15:15:00,54.0,33.1,30.24,NNW,338,7.8,13.2,45,0.00,,---,0.00,VWS V14.01,2013-02-15 21:15:00,
2013-02-15 15:16:00,53.4,33.2,30.24,North,0,8.5,8.7,46,0.00,,---,0.00,VWS V14.01,2013-02-15 21:16:00,
2013-02-15 15:17:00,53.6,32.8,30.24,NNW,338,9.8,17.5,45,0.00,,---,0.00,VWS V14.01,2013-02-15 21:17:00,
2013-02-15 15:18:00,53.6,32.8,30.24,NNE,22,12.8,12.8,45,0.00,,---,0.00,VWS V14.01,2013-02-15 21:18:00,
2013-02-15 15:19:00,53.6,32.8,30.24,WNW,292,10.7,12.8,45,0.00,,---,0.00,VWS V14.01,2013-02-15 21:19:00,
2013-02-15 15:21:00,52.9,32.7,30.27,NNW,338,8.5,12.8,46,0.00,,---,0.00,VWS V14.01,2013-02-15 21:21:00,
2013-02-15 15:22:00,53.6,33.3,30.24,North,0,8.1,8.1,46,0.00,,---,0.00,VWS V14.01,2013-02-15 21:22:00,
2013-02-15 15:23:00,53.8,33.5,30.24,North,0,8.1,8.1,46,0.00,,---,0.00,VWS V14.01,2013-02-15 21:23:00,
2013-02-15 15:24:00,53.8,33.5,30.24,North,0,8.7,8.7,46,0.00,,---,0.00,VWS V14.01,2013-02-15 21:24:00,
2013-02-15 15:25:00,53.6,33.3,30.24,North,0,11.0,11.0,46,0.00,,---,0.00,VWS V14.01,2013-02-15 21:25:00,
2013-02-15 15:26:00,52.7,32.5,30.27,NNW,338,9.8,12.8,46,0.00,,---,0.00,VWS V14.01,2013-02-15 21:26:00,
2013-02-15 15:27:00,53.4,33.2,30.24,North,0,8.7,8.7,46,0.00,,---,0.00,VWS V14.01,2013-02-15 21:27:00,
2013-02-15 15:28:00,53.4,33.2,30.24,North,0,9.6,9.6,46,0.00,,---,0.00,VWS V14.01,2013-02-15 21:28:00,
2013-02-15 15:29:00,53.2,33.0,30.24,North,0,9.6,10.3,46,0.00,,---,0.00,VWS V14.01,2013-02-15 21:29:00,
2013-02-15 15:31:00,52.5,32.4,30.27,NNW,338,5.6,13.0,46,0.00,,---,0.00,VWS V14.01,2013-02-15 21:31:00,
2013-02-15 15:33:00,52.9,32.7,30.27,North,0,10.5,12.8,46,0.00,,---,0.00,VWS V14.01,2013-02-15 21:33:00,
2013-02-15 15:34:00,52.9,32.7,30.27,North,0,10.3,10.5,46,0.00,,---,0.00,VWS V14.01,2013-02-15 21:34:00,
2013-02-15 15:36:00,52.4,32.2,30.27,North,0,10.1,10.1,46,0.00,,---,0.00,VWS V14.01,2013-02-15 21:36:00,
2013-02-15 15:37:00,52.7,32.5,30.27,NNW,338,6.5,11.2,46,0.00,,---,0.00,VWS V14.01,2013-02-15 21:37:00,
2013-02-15 15:38:00,52.7,32.5,30.27,North,0,10.1,12.8,46,0.00,,---,0.00,VWS V14.01,2013-02-15 21:38:00,
2013-02-15 15:39:00,52.7,32.5,30.27,North,0,10.7,10.7,46,0.00,,---,0.00,VWS V14.01,2013-02-15 21:39:00,
2013-02-15 15:40:00,52.7,32.5,30.27,NNW,338,5.8,12.3,46,0.00,,---,0.00,VWS V14.01,2013-02-15 21:40:00,
2013-02-15 15:41:00,52.2,32.0,30.27,North,0,11.9,11.9,46,0.00,,---,0.00,VWS V14.01,2013-02-15 21:41:00,
2013-02-15 15:42:00,52.5,32.4,30.27,North,0,11.9,13.4,46,0.00,,---,0.00,VWS V14.01,2013-02-15 21:42:00,
2013-02-15 15:43:00,52.5,32.4,30.27,NNW,338,5.6,13.0,46,0.00,,---,0.00,VWS V14.01,2013-02-15 21:43:00,
2013-02-15 15:44:00,52.5,32.4,30.27,North,0,10.7,12.5,46,0.00,,---,0.00,VWS V14.01,2013-02-15 21:44:00,
2013-02-15 15:45:00,52.5,32.4,30.27,NNE,22,8.7,10.7,46,0.00,,---,0.00,VWS V14.01,2013-02-15 21:45:00,
2013-02-15 15:46:00,52.2,32.0,30.27,North,0,5.6,7.8,46,0.00,,---,0.00,VWS V14.01,2013-02-15 21:46:00,
2013-02-15 15:47:00,52.4,32.2,30.27,NNE,22,8.5,10.1,46,0.00,,---,0.00,VWS V14.01,2013-02-15 21:47:00,
2013-02-15 15:48:00,52.4,32.2,30.27,NNW,338,8.7,10.1,46,0.00,,---,0.00,VWS V14.01,2013-02-15 21:48:00,
2013-02-15 15:49:00,52.4,32.2,30.27,North,0,7.4,8.7,46,0.00,,---,0.00,VWS V14.01,2013-02-15 21:49:00,
2013-02-15 15:50:00,52.4,32.2,30.27,North,0,8.7,8.7,46,0.00,,---,0.00,VWS V14.01,2013-02-15 21:50:00,
2013-02-15 15:51:00,52.2,32.0,30.24,North,0,9.8,9.8,46,0.00,,---,0.00,VWS V14.01,2013-02-15 21:51:00,
2013-02-15 15:52:00,52.4,32.2,30.27,NNE,22,10.7,10.7,46,0.00,,---,0.00,VWS V14.01,2013-02-15 21:52:00,
2013-02-15 15:53:00,52.2,32.0,30.27,NNE,22,13.0,13.0,46,0.00,,---,0.00,VWS V14.01,2013-02-15 21:53:00,
2013-02-15 15:54:00,52.2,32.0,30.27,NNE,22,10.1,13.0,46,0.00,,---,0.00,VWS V14.01,2013-02-15 21:54:00,
2013-02-15 15:55:00,52.2,32.0,30.27,North,0,5.4,10.1,46,0.00,,---,0.00,VWS V14.01,2013-02-15 21:55:00,
2013-02-15 15:56:00,52.2,32.0,30.24,North,0,4.0,7.4,46,0.00,,---,0.00,VWS V14.01,2013-02-15 21:56:00,
2013-02-15 15:57:00,52.2,32.0,30.27,North,0,7.8,7.8,46,0.00,,---,0.00,VWS V14.01,2013-02-15 21:57:00,
2013-02-15 15:58:00,52.2,32.0,30.27,North,0,5.6,7.8,46,0.00,,---,0.00,VWS V14.01,2013-02-15 21:58:00,
2013-02-15 15:59:00,52.2,32.0,30.27,NNE,22,4.3,6.5,46,0.00,,---,0.00,VWS V14.01,2013-02-15 21:59:00,
2013-02-15 16:00:00,52.2,32.0,30.27,North,0,4.7,6.0,46,0.00,,---,0.00,VWS V14.01,2013-02-15 22:00:00,
2013-02-15 16:01:00,52.0,31.9,30.24,North,0,6.9,13.2,46,0.00,,---,0.00,VWS V14.01,2013-02-15 22:01:00,
2013-02-15 16:02:00,52.2,32.0,30.24,North,0,8.1,11.0,46,0.00,,---,0.00,VWS V14.01,2013-02-15 22:02:00,
2013-02-15 16:03:00,52.2,32.0,30.24,NNE,22,8.7,9.8,46,0.00,,---,0.00,VWS V14.01,2013-02-15 22:03:00,
2013-02-15 16:05:00,52.2,32.0,30.24,NE,45,4.7,8.7,46,0.00,,---,0.00,VWS V14.01,2013-02-15 22:05:00,
2013-02-15 16:06:00,52.0,31.9,30.24,NNW,338,7.6,9.6,46,0.00,,---,0.00,VWS V14.01,2013-02-15 22:06:00,
2013-02-15 16:07:00,52.2,32.0,30.24,ENE,68,7.4,8.7,46,0.00,,---,0.00,VWS V14.01,2013-02-15 22:07:00,
2013-02-15 16:08:00,52.2,32.0,30.24,North,0,10.3,10.3,46,0.00,,---,0.00,VWS V14.01,2013-02-15 22:08:00,
2013-02-15 16:10:00,52.2,32.0,30.24,North,0,8.1,8.7,46,0.00,,---,0.00,VWS V14.01,2013-02-15 22:10:00,
2013-02-15 16:11:00,51.8,31.7,30.24,North,0,7.8,12.5,46,0.00,,---,0.00,VWS V14.01,2013-02-15 22:11:00,
2013-02-15 16:12:00,52.0,31.9,30.24,NNE,22,8.1,13.6,46,0.00,,---,0.00,VWS V14.01,2013-02-15 22:12:00,
2013-02-15 16:13:00,52.0,31.9,30.24,North,0,6.9,13.2,46,0.00,,---,0.00,VWS V14.01,2013-02-15 22:13:00,
2013-02-15 16:15:00,52.0,31.9,30.24,North,0,10.3,10.3,46,0.00,,---,0.00,VWS V14.01,2013-02-15 22:15:00,
2013-02-15 16:16:00,51.7,31.6,30.24,NNW,338,8.5,10.1,46,0.00,,---,0.00,VWS V14.01,2013-02-15 22:16:00,
2013-02-15 16:17:00,52.0,31.9,30.24,NNE,22,8.5,10.3,46,0.00,,---,0.00,VWS V14.01,2013-02-15 22:17:00,
2013-02-15 16:18:00,52.0,31.9,30.24,NNW,338,7.6,9.6,46,0.00,,---,0.00,VWS V14.01,2013-02-15 22:18:00,
2013-02-15 16:20:00,51.8,31.7,30.24,North,0,8.5,10.1,46,0.00,,---,0.00,VWS V14.01,2013-02-15 22:20:00,
2013-02-15 16:21:00,51.5,31.4,30.27,North,0,12.8,13.2,46,0.00,,---,0.00,VWS V14.01,2013-02-15 22:21:00,
2013-02-15 16:22:00,51.8,31.7,30.24,NNW,338,10.7,11.0,46,0.00,,---,0.00,VWS V14.01,2013-02-15 22:22:00,
2013-02-15 16:23:00,51.8,31.7,30.24,North,0,7.8,12.5,46,0.00,,---,0.00,VWS V14.01,2013-02-15 22:23:00,
2013-02-15 16:24:00,51.8,31.7,30.24,NNE,22,7.6,10.5,46,0.00,,---,0.00,VWS V14.01,2013-02-15 22:24:00,
2013-02-15 16:25:00,51.7,31.6,30.24,North,0,10.3,12.1,46,0.00,,---,0.00,VWS V14.01,2013-02-15 22:25:00,
2013-02-15 16:26:00,51.5,31.4,30.27,NNW,338,7.2,8.1,46,0.00,,---,0.00,VWS V14.01,2013-02-15 22:26:00,
2013-02-15 16:27:00,51.7,31.6,30.24,North,0,7.8,7.8,46,0.00,,---,0.00,VWS V14.01,2013-02-15 22:27:00,
2013-02-15 16:28:00,51.7,31.6,30.24,NNW,338,8.5,10.1,46,0.00,,---,0.00,VWS V14.01,2013-02-15 22:28:00,
2013-02-15 16:29:00,51.7,31.6,30.24,North,0,7.8,13.2,46,0.00,,---,0.00,VWS V14.01,2013-02-15 22:29:00,
2013-02-15 16:30:00,51.7,31.6,30.24,North,0,8.7,8.7,46,0.00,,---,0.00,VWS V14.01,2013-02-15 22:30:00,
2013-02-15 16:31:00,51.3,31.2,30.27,NNW,338,7.6,7.6,46,0.00,,---,0.00,VWS V14.01,2013-02-15 22:31:00,
2013-02-15 16:32:00,51.5,31.4,30.27,NNW,338,5.8,8.7,46,0.00,,---,0.00,VWS V14.01,2013-02-15 22:32:00,
2013-02-15 16:33:00,51.5,31.4,30.27,North,0,12.8,13.2,46,0.00,,---,0.00,VWS V14.01,2013-02-15 22:33:00,
2013-02-15 16:34:00,51.5,31.4,30.27,NNE,22,10.3,12.8,46,0.00,,---,0.00,VWS V14.01,2013-02-15 22:34:00,
2013-02-15 16:35:00,51.5,31.4,30.27,NNW,338,4.0,10.3,46,0.00,,---,0.00,VWS V14.01,2013-02-15 22:35:00,
2013-02-15 16:36:00,51.3,31.2,30.27,NNE,22,5.4,8.1,46,0.00,,---,0.00,VWS V14.01,2013-02-15 22:36:00,
2013-02-15 16:37:00,51.3,31.2,30.27,NNW,338,7.8,12.8,46,0.00,,---,0.00,VWS V14.01,2013-02-15 22:37:00,
2013-02-15 16:38:00,51.5,31.4,30.27,NNW,338,7.2,8.1,46,0.00,,---,0.00,VWS V14.01,2013-02-15 22:38:00,
2013-02-15 16:39:00,51.3,31.2,30.27,NNW,338,8.1,9.8,46,0.00,,---,0.00,VWS V14.01,2013-02-15 22:39:00,
2013-02-15 16:40:00,51.3,31.2,30.27,North,0,5.8,9.0,46,0.00,,---,0.00,VWS V14.01,2013-02-15 22:40:00,
2013-02-15 16:41:00,51.3,31.8,30.27,NNW,338,4.3,4.9,47,0.00,,---,0.00,VWS V14.01,2013-02-15 22:41:00,
2013-02-15 16:42:00,51.3,31.2,30.27,North,0,5.4,5.8,46,0.00,,---,0.00,VWS V14.01,2013-02-15 22:42:00,
2013-02-15 16:43:00,51.3,31.2,30.27,North,0,6.3,7.6,46,0.00,,---,0.00,VWS V14.01,2013-02-15 22:43:00,
2013-02-15 16:44:00,51.3,31.2,30.27,NE,45,4.0,6.9,46,0.00,,---,0.00,VWS V14.01,2013-02-15 22:44:00,
2013-02-15 16:45:00,51.3,31.2,30.27,NNE,22,9.6,9.6,46,0.00,,---,0.00,VWS V14.01,2013-02-15 22:45:00,
2013-02-15 16:46:00,51.1,31.6,30.27,North,0,9.2,10.1,47,0.00,,---,0.00,VWS V14.01,2013-02-15 22:46:00,
2013-02-15 16:47:00,51.3,31.2,30.27,North,0,8.1,8.1,46,0.00,,---,0.00,VWS V14.01,2013-02-15 22:47:00,
2013-02-15 16:48:00,51.3,31.2,30.27,NNE,22,5.4,8.1,46,0.00,,---,0.00,VWS V14.01,2013-02-15 22:48:00,
2013-02-15 16:49:00,51.3,31.2,30.27,NNW,338,3.6,5.4,46,0.00,,---,0.00,VWS V14.01,2013-02-15 22:49:00,
2013-02-15 16:50:00,51.3,31.2,30.27,NNW,338,4.9,6.5,46,0.00,,---,0.00,VWS V14.01,2013-02-15 22:50:00,
2013-02-15 16:51:00,50.9,31.4,30.27,North,0,10.7,11.0,47,0.00,,---,0.00,VWS V14.01,2013-02-15 22:51:00,
2013-02-15 16:52:00,51.3,31.2,30.27,NNE,22,3.8,6.3,46,0.00,,---,0.00,VWS V14.01,2013-02-15 22:52:00,
2013-02-15 16:53:00,51.3,31.8,30.27,North,0,5.6,5.6,47,0.00,,---,0.00,VWS V14.01,2013-02-15 22:53:00,
2013-02-15 16:54:00,51.3,31.2,30.27,North,0,4.9,6.5,46,0.00,,---,0.00,VWS V14.01,2013-02-15 22:54:00,
2013-02-15 16:55:00,51.1,31.6,30.27,NNW,338,4.0,5.4,47,0.00,,---,0.00,VWS V14.01,2013-02-15 22:55:00,
2013-02-15 16:56:00,50.9,31.4,30.27,NW,315,8.7,8.7,47,0.00,,---,0.00,VWS V14.01,2013-02-15 22:56:00,
2013-02-15 16:57:00,51.1,31.6,30.27,NNE,22,10.1,10.1,47,0.00,,---,0.00,VWS V14.01,2013-02-15 22:57:00,
2013-02-15 16:58:00,51.1,31.6,30.27,North,0,9.8,10.1,47,0.00,,---,0.00,VWS V14.01,2013-02-15 22:58:00,
2013-02-15 16:59:00,51.1,31.6,30.27,NW,315,4.0,10.7,47,0.00,,---,0.00,VWS V14.01,2013-02-15 22:59:00,
2013-02-15 17:00:00,51.1,31.6,30.27,NE,45,7.8,7.8,47,0.00,,---,0.00,VWS V14.01,2013-02-15 23:00:00,
2013-02-15 17:01:00,50.8,31.8,30.27,NE,45,10.1,10.3,48,0.00,,---,0.00,VWS V14.01,2013-02-15 23:01:00,
2013-02-15 17:02:00,51.1,31.6,30.27,North,0,3.8,7.8,47,0.00,,---,0.00,VWS V14.01,2013-02-15 23:02:00,
2013-02-15 17:03:00,50.9,31.4,30.27,North,0,10.7,11.0,47,0.00,,---,0.00,VWS V14.01,2013-02-15 23:03:00,
2013-02-15 17:04:00,50.9,31.4,30.27,North,0,8.5,12.1,47,0.00,,---,0.00,VWS V14.01,2013-02-15 23:04:00,
2013-02-15 17:06:00,50.6,31.1,30.27,NNE,22,7.8,11.4,47,0.00,,---,0.00,VWS V14.01,2013-02-15 23:06:00,
2013-02-15 17:07:00,50.9,31.4,30.27,NNW,338,8.5,9.8,47,0.00,,---,0.00,VWS V14.01,2013-02-15 23:07:00,
2013-02-15 17:08:00,50.9,31.4,30.27,NW,315,8.7,8.7,47,0.00,,---,0.00,VWS V14.01,2013-02-15 23:08:00,
2013-02-15 17:09:00,50.9,31.4,30.27,North,0,5.6,8.7,47,0.00,,---,0.00,VWS V14.01,2013-02-15 23:09:00,
2013-02-15 17:10:00,50.8,31.3,30.27,North,0,8.5,10.5,47,0.00,,---,0.00,VWS V14.01,2013-02-15 23:10:00,
2013-02-15 17:11:00,50.4,31.5,30.27,NNW,338,13.2,13.2,48,0.00,,---,0.00,VWS V14.01,2013-02-15 23:11:00,
2013-02-15 17:12:00,50.8,31.8,30.27,NNW,338,7.8,11.0,48,0.00,,---,0.00,VWS V14.01,2013-02-15 23:12:00,
2013-02-15 17:13:00,50.8,31.8,30.27,NE,45,10.1,10.3,48,0.00,,---,0.00,VWS V14.01,2013-02-15 23:13:00,
2013-02-15 17:14:00,50.8,31.3,30.27,North,0,12.1,13.6,47,0.00,,---,0.00,VWS V14.01,2013-02-15 23:14:00,
2013-02-15 17:15:00,50.8,31.3,30.27,NNW,338,8.1,12.1,47,0.00,,---,0.00,VWS V14.01,2013-02-15 23:15:00,
2013-02-15 17:16:00,50.4,31.0,30.27,NNW,338,6.3,12.5,47,0.00,,---,0.00,VWS V14.01,2013-02-15 23:16:00,
2013-02-15 17:17:00,50.6,31.1,30.27,NNW,338,8.1,11.4,47,0.00,,---,0.00,VWS V14.01,2013-02-15 23:17:00,
2013-02-15 17:18:00,50.6,31.1,30.27,NNE,22,7.8,11.4,47,0.00,,---,0.00,VWS V14.01,2013-02-15 23:18:00,
2013-02-15 17:19:00,50.6,31.1,30.27,NE,45,5.6,10.7,47,0.00,,---,0.00,VWS V14.01,2013-02-15 23:19:00,
2013-02-15 17:20:00,50.6,31.6,30.27,NNW,338,7.8,7.8,48,0.00,,---,0.00,VWS V14.01,2013-02-15 23:20:00,
2013-02-15 17:21:00,50.2,30.8,30.30,North,0,12.8,14.5,47,0.00,,---,0.00,VWS V14.01,2013-02-15 23:21:00,
2013-02-15 17:22:00,50.4,31.5,30.27,North,0,7.2,9.8,48,0.00,,---,0.00,VWS V14.01,2013-02-15 23:22:00,
2013-02-15 17:23:00,50.4,31.5,30.27,NNW,338,13.2,13.2,48,0.00,,---,0.00,VWS V14.01,2013-02-15 23:23:00,
2013-02-15 17:24:00,50.4,31.5,30.27,NNW,338,7.6,13.2,48,0.00,,---,0.00,VWS V14.01,2013-02-15 23:24:00,
2013-02-15 17:25:00,50.4,31.5,30.27,North,0,7.8,9.0,48,0.00,,---,0.00,VWS V14.01,2013-02-15 23:25:00,
2013-02-15 17:26:00,50.2,30.8,30.30,North,0,11.0,11.0,47,0.00,,---,0.00,VWS V14.01,2013-02-15 23:26:00,
2013-02-15 17:27:00,50.4,31.0,30.27,North,0,11.0,11.0,47,0.00,,---,0.00,VWS V14.01,2013-02-15 23:27:00,
2013-02-15 17:28:00,50.4,31.0,30.27,NNW,338,6.3,12.5,47,0.00,,---,0.00,VWS V14.01,2013-02-15 23:28:00,
2013-02-15 17:29:00,50.4,31.0,30.27,North,0,8.7,8.7,47,0.00,,---,0.00,VWS V14.01,2013-02-15 23:29:00,
2013-02-15 17:30:00,50.4,31.0,30.27,North,0,7.4,12.8,47,0.00,,---,0.00,VWS V14.01,2013-02-15 23:30:00,
2013-02-15 17:31:00,50.0,30.6,30.30,North,0,9.6,9.6,47,0.00,,---,0.00,VWS V14.01,2013-02-15 23:31:00,
2013-02-15 17:32:00,50.2,30.8,30.30,NW,315,10.5,12.8,47,0.00,,---,0.00,VWS V14.01,2013-02-15 23:32:00,
2013-02-15 17:33:00,50.2,30.8,30.30,North,0,12.8,14.5,47,0.00,,---,0.00,VWS V14.01,2013-02-15 23:33:00,
2013-02-15 17:34:00,50.2,30.8,30.30,NNE,22,8.7,12.8,47,0.00,,---,0.00,VWS V14.01,2013-02-15 23:34:00,
2013-02-15 17:35:00,50.2,30.8,30.30,NNW,338,8.1,10.3,47,0.00,,---,0.00,VWS V14.01,2013-02-15 23:35:00,
2013-02-15 17:36:00,49.9,30.5,30.30,NNW,338,6.3,8.1,47,0.00,,---,0.00,VWS V14.01,2013-02-15 23:36:00,
2013-02-15 17:37:00,50.2,30.8,30.30,NNW,338,6.3,7.8,47,0.00,,---,0.00,VWS V14.01,2013-02-15 23:37:00,
2013-02-15 17:38:00,50.2,30.8,30.30,North,0,11.0,11.0,47,0.00,,---,0.00,VWS V14.01,2013-02-15 23:38:00,
2013-02-15 17:39:00,50.2,30.8,30.30,North,0,8.5,11.0,47,0.00,,---,0.00,VWS V14.01,2013-02-15 23:39:00,
2013-02-15 17:40:00,50.0,30.6,30.30,NE,45,8.1,11.0,47,0.00,,---,0.00,VWS V14.01,2013-02-15 23:40:00,
2013-02-15 17:41:00,49.7,30.8,30.30,NNE,22,5.4,6.5,48,0.00,,---,0.00,VWS V14.01,2013-02-15 23:41:00,
2013-02-15 17:42:00,50.0,30.6,30.30,NNW,338,4.9,7.8,47,0.00,,---,0.00,VWS V14.01,2013-02-15 23:42:00,
2013-02-15 17:43:00,50.0,30.6,30.30,North,0,9.6,9.6,47,0.00,,---,0.00,VWS V14.01,2013-02-15 23:43:00,
2013-02-15 17:44:00,50.0,30.6,30.30,NNE,22,9.8,9.8,47,0.00,,---,0.00,VWS V14.01,2013-02-15 23:44:00,
2013-02-15 17:45:00,50.0,30.6,30.30,NNW,338,3.4,9.8,47,0.00,,---,0.00,VWS V14.01,2013-02-15 23:45:00,
2013-02-15 17:46:00,49.7,30.8,30.30,NNW,338,3.1,7.2,48,0.00,,---,0.00,VWS V14.01,2013-02-15 23:46:00,
2013-02-15 17:47:00,50.0,30.6,30.30,NNW,338,5.8,6.3,47,0.00,,---,0.00,VWS V14.01,2013-02-15 23:47:00,
2013-02-15 17:48:00,49.9,30.5,30.30,NNW,338,6.3,8.1,47,0.00,,---,0.00,VWS V14.01,2013-02-15 23:48:00,
2013-02-15 17:49:00,49.9,30.5,30.30,NNE,22,8.5,8.5,47,0.00,,---,0.00,VWS V14.01,2013-02-15 23:49:00,
2013-02-15 17:50:00,49.9,30.5,30.30,North,0,5.8,8.5,47,0.00,,---,0.00,VWS V14.01,2013-02-15 23:50:00,
2013-02-15 17:51:00,49.3,30.5,30.30,NNW,338,12.3,12.3,48,0.00,,---,0.00,VWS V14.01,2013-02-15 23:51:00,
2013-02-15 17:52:00,49.9,31.0,30.30,North,0,5.6,12.3,48,0.00,,---,0.00,VWS V14.01,2013-02-15 23:52:00,
2013-02-15 17:53:00,49.7,30.8,30.30,NNE,22,5.4,6.5,48,0.00,,---,0.00,VWS V14.01,2013-02-15 23:53:00,
2013-02-15 17:54:00,49.7,30.8,30.30,NNW,338,5.6,8.7,48,0.00,,---,0.00,VWS V14.01,2013-02-15 23:54:00,
2013-02-15 17:55:00,49.7,30.8,30.30,NW,315,6.0,8.5,48,0.00,,---,0.00,VWS V14.01,2013-02-15 23:55:00,
2013-02-15 17:56:00,49.0,30.2,30.30,NNW,338,9.4,10.3,48,0.00,,---,0.00,VWS V14.01,2013-02-15 23:56:00,
2013-02-15 17:57:00,49.7,30.8,30.30,North,0,7.2,7.2,48,0.00,,---,0.00,VWS V14.01,2013-02-15 23:57:00,
2013-02-15 17:58:00,49.7,30.8,30.30,NNW,338,3.1,7.2,48,0.00,,---,0.00,VWS V14.01,2013-02-15 23:58:00,
2013-02-15 17:59:00,49.5,30.7,30.30,North,0,6.3,7.8,48,0.00,,---,0.00,VWS V14.01,2013-02-15 23:59:00,
2013-02-15 18:00:00,49.5,30.7,30.30,North,0,6.0,9.0,48,0.00,,---,0.00,VWS V14.01,2013-02-16 00:00:00,
2013-02-15 18:01:00,48.8,30.5,30.30,North,0,10.5,11.2,49,0.00,,---,0.00,VWS V14.01,2013-02-16 00:01:00,
2013-02-15 18:02:00,49.5,30.7,30.30,NNW,338,10.7,10.7,48,0.00,,---,0.00,VWS V14.01,2013-02-16 00:02:00,
2013-02-15 18:03:00,49.3,30.5,30.30,North,0,10.7,12.3,48,0.00,,---,0.00,VWS V14.01,2013-02-16 00:03:00,
2013-02-15 18:04:00,49.3,30.5,30.30,North,0,10.5,10.7,48,0.00,,---,0.00,VWS V14.01,2013-02-16 00:04:00,
2013-02-15 18:05:00,49.2,30.3,30.30,North,0,5.4,10.5,48,0.00,,---,0.00,VWS V14.01,2013-02-16 00:05:00,
2013-02-15 18:06:00,48.8,30.5,30.30,NNW,338,9.4,9.4,49,0.00,,---,0.00,VWS V14.01,2013-02-16 00:06:00,
2013-02-15 18:07:00,49.0,30.2,30.30,North,0,9.8,12.8,48,0.00,,---,0.00,VWS V14.01,2013-02-16 00:07:00,
2013-02-15 18:08:00,49.0,30.2,30.30,NNW,338,9.4,10.3,48,0.00,,---,0.00,VWS V14.01,2013-02-16 00:08:00,
2013-02-15 18:09:00,49.0,30.2,30.30,North,0,8.1,9.4,48,0.00,,---,0.00,VWS V14.01,2013-02-16 00:09:00,
2013-02-15 18:10:00,49.0,30.7,30.30,NNW,338,6.0,8.1,49,0.00,,---,0.00,VWS V14.01,2013-02-16 00:10:00,
2013-02-15 18:11:00,48.5,30.7,30.30,North,0,6.5,7.8,50,0.00,,---,0.00,VWS V14.01,2013-02-16 00:11:00,
2013-02-15 18:12:00,48.8,30.5,30.30,NE,45,4.3,10.5,49,0.00,,---,0.00,VWS V14.01,2013-02-16 00:12:00,
2013-02-15 18:13:00,48.8,30.5,30.30,North,0,10.5,11.2,49,0.00,,---,0.00,VWS V14.01,2013-02-16 00:13:00,
2013-02-15 18:14:00,48.8,30.5,30.30,North,0,7.8,10.5,49,0.00,,---,0.00,VWS V14.01,2013-02-16 00:14:00,
2013-02-15 18:15:00,48.8,30.5,30.30,NNW,338,5.4,7.8,49,0.00,,---,0.00,VWS V14.01,2013-02-16 00:15:00,
2013-02-15 18:16:00,48.1,30.4,30.30,NNW,338,8.5,13.4,50,0.00,,---,0.00,VWS V14.01,2013-02-16 00:16:00,
2013-02-15 18:17:00,48.8,30.5,30.30,NNE,22,8.7,12.8,49,0.00,,---,0.00,VWS V14.01,2013-02-16 00:17:00,
2013-02-15 18:18:00,48.8,30.5,30.30,NNW,338,9.4,9.4,49,0.00,,---,0.00,VWS V14.01,2013-02-16 00:18:00,
2013-02-15 18:19:00,48.8,30.5,30.30,North,0,7.8,9.4,49,0.00,,---,0.00,VWS V14.01,2013-02-16 00:19:00,
2013-02-15 18:20:00,48.6,30.4,30.30,NNW,338,7.8,10.5,49,0.00,,---,0.00,VWS V14.01,2013-02-16 00:20:00,
2013-02-15 18:21:00,48.1,30.4,30.30,North,0,8.1,8.5,50,0.00,,---,0.00,VWS V14.01,2013-02-16 00:21:00,
2013-02-15 18:22:00,48.5,30.7,30.30,North,0,7.8,7.8,50,0.00,,---,0.00,VWS V14.01,2013-02-16 00:22:00,
2013-02-15 18:23:00,48.5,30.7,30.30,North,0,6.5,7.8,50,0.00,,---,0.00,VWS V14.01,2013-02-16 00:23:00,
2013-02-15 18:24:00,48.3,30.5,30.30,North,0,4.0,7.6,50,0.00,,---,0.00,VWS V14.01,2013-02-16 00:24:00,
2013-02-15 18:25:00,48.3,30.5,30.30,North,0,9.6,9.6,50,0.00,,---,0.00,VWS V14.01,2013-02-16 00:25:00,
2013-02-15 18:26:00,47.9,29.7,30.30,North,0,6.5,9.2,49,0.00,,---,0.00,VWS V14.01,2013-02-16 00:26:00,
2013-02-15 18:27:00,48.1,30.4,30.30,NE,45,7.4,9.6,50,0.00,,---,0.00,VWS V14.01,2013-02-16 00:27:00,
2013-02-15 18:28:00,48.1,30.4,30.30,NNW,338,8.5,13.4,50,0.00,,---,0.00,VWS V14.01,2013-02-16 00:28:00,
2013-02-15 18:29:00,48.1,30.4,30.30,NNW,338,11.0,11.0,50,0.00,,---,0.00,VWS V14.01,2013-02-16 00:29:00,
2013-02-15 18:30:00,48.1,30.4,30.30,North,0,7.6,11.0,50,0.00,,---,0.00,VWS V14.01,2013-02-16 00:30:00,
2013-02-15 18:31:00,47.9,29.7,30.30,North,0,4.9,7.6,49,0.00,,---,0.00,VWS V14.01,2013-02-16 00:31:00,
2013-02-15 18:32:00,48.1,30.4,30.30,NNW,338,7.8,11.0,50,0.00,,---,0.00,VWS V14.01,2013-02-16 00:32:00,
2013-02-15 18:33:00,48.1,30.4,30.30,North,0,8.1,8.5,50,0.00,,---,0.00,VWS V14.01,2013-02-16 00:33:00,
2013-02-15 18:34:00,48.1,29.9,30.30,NNW,338,8.7,9.8,49,0.00,,---,0.00,VWS V14.01,2013-02-16 00:34:00,
2013-02-15 18:35:00,48.1,29.9,30.30,North,0,7.8,8.7,49,0.00,,---,0.00,VWS V14.01,2013-02-16 00:35:00,
2013-02-15 18:36:00,47.9,29.7,30.33,NNE,22,6.5,8.1,49,0.00,,---,0.00,VWS V14.01,2013-02-16 00:36:00,
2013-02-15 18:37:00,47.9,29.7,30.30,North,0,8.7,10.1,49,0.00,,---,0.00,VWS V14.01,2013-02-16 00:37:00,
2013-02-15 18:38:00,47.9,29.7,30.30,North,0,6.5,9.2,49,0.00,,---,0.00,VWS V14.01,2013-02-16 00:38:00,
2013-02-15 18:39:00,47.9,29.7,30.30,NNW,338,5.6,8.7,49,0.00,,---,0.00,VWS V14.01,2013-02-16 00:39:00,
2013-02-15 18:40:00,47.9,29.7,30.30,North,0,7.4,8.1,49,0.00,,---,0.00,VWS V14.01,2013-02-16 00:40:00,
2013-02-15 18:41:00,47.8,29.5,30.33,North,0,2.5,6.0,49,0.00,,---,0.00,VWS V14.01,2013-02-16 00:41:00,
2013-02-15 18:42:00,47.9,29.7,30.30,North,0,7.6,7.6,49,0.00,,---,0.00,VWS V14.01,2013-02-16 00:42:00,
2013-02-15 18:43:00,47.9,29.7,30.30,North,0,4.9,7.6,49,0.00,,---,0.00,VWS V14.01,2013-02-16 00:43:00,
2013-02-15 18:44:00,47.9,29.7,30.30,NNW,338,5.8,7.6,49,0.00,,---,0.00,VWS V14.01,2013-02-16 00:44:00,
2013-02-15 18:45:00,47.9,29.7,30.30,North,0,8.5,8.5,49,0.00,,---,0.00,VWS V14.01,2013-02-16 00:45:00,
2013-02-15 18:46:00,47.8,29.0,30.33,NNW,338,10.5,12.8,48,0.00,,---,0.00,VWS V14.01,2013-02-16 00:46:00,
2013-02-15 18:47:00,47.9,29.7,30.33,North,0,8.1,8.1,49,0.00,,---,0.00,VWS V14.01,2013-02-16 00:47:00,
2013-02-15 18:48:00,47.9,29.7,30.33,NNE,22,6.5,8.1,49,0.00,,---,0.00,VWS V14.01,2013-02-16 00:48:00,
2013-02-15 18:50:00,47.9,29.2,30.33,NW,315,6.5,7.8,48,0.00,,---,0.00,VWS V14.01,2013-02-16 00:50:00,
2013-02-15 18:51:00,47.6,28.9,30.33,NNW,338,7.8,12.3,48,0.00,,---,0.00,VWS V14.01,2013-02-16 00:51:00,
2013-02-15 18:52:00,47.8,29.5,30.33,NNW,338,5.8,6.5,49,0.00,,---,0.00,VWS V14.01,2013-02-16 00:52:00,
2013-02-15 18:53:00,47.8,29.5,30.33,North,0,2.5,6.0,49,0.00,,---,0.00,VWS V14.01,2013-02-16 00:53:00,
2013-02-15 18:54:00,47.8,29.5,30.33,North,0,6.5,6.5,49,0.00,,---,0.00,VWS V14.01,2013-02-16 00:54:00,
2013-02-15 18:55:00,47.8,29.5,30.33,NNW,338,4.7,8.5,49,0.00,,---,0.00,VWS V14.01,2013-02-16 00:55:00,
2013-02-15 18:56:00,47.6,28.4,30.33,NNW,338,5.8,10.3,47,0.00,,---,0.00,VWS V14.01,2013-02-16 00:56:00,
2013-02-15 18:57:00,47.8,29.5,30.33,NNW,338,6.0,7.4,49,0.00,,---,0.00,VWS V14.01,2013-02-16 00:57:00,
2013-02-15 18:58:00,47.8,29.0,30.33,NNW,338,10.5,12.8,48,0.00,,---,0.00,VWS V14.01,2013-02-16 00:58:00,
2013-02-15 18:59:00,47.8,29.0,30.33,North,0,13.2,13.2,48,0.00,,---,0.00,VWS V14.01,2013-02-16 00:59:00,
2013-02-15 19:00:00,47.8,29.0,30.33,North,0,6.5,13.2,48,0.00,,---,0.00,VWS V14.01,2013-02-16 01:00:00,
2013-02-15 19:01:00,47.4,28.2,30.33,North,0,9.6,11.0,47,0.00,,---,0.00,VWS V14.01,2013-02-16 01:01:00,
2013-02-15 19:02:00,47.6,28.9,30.33,North,0,10.7,10.7,48,0.00,,---,0.00,VWS V14.01,2013-02-16 01:02:00,
2013-02-15 19:03:00,47.6,28.9,30.33,NNW,338,7.8,12.3,48,0.00,,---,0.00,VWS V14.01,2013-02-16 01:03:00,
2013-02-15 19:04:00,47.6,28.9,30.33,NNW,338,8.1,11.0,48,0.00,,---,0.00,VWS V14.01,2013-02-16 01:04:00,
2013-02-15 19:05:00,47.6,28.4,30.33,NNW,338,9.8,10.5,47,0.00,,---,0.00,VWS V14.01,2013-02-16 01:05:00,
2013-02-15 19:06:00,47.2,28.0,30.33,North,0,2.5,3.8,47,0.00,,---,0.00,VWS V14.01,2013-02-16 01:06:00,
2013-02-15 19:07:00,47.6,28.4,30.33,North,0,10.3,10.7,47,0.00,,---,0.00,VWS V14.01,2013-02-16 01:07:00,
2013-02-15 19:08:00,47.6,28.4,30.33,NNW,338,5.8,10.3,47,0.00,,---,0.00,VWS V14.01,2013-02-16 01:08:00,
2013-02-15 19:09:00,47.6,28.4,30.33,NNW,338,5.8,7.4,47,0.00,,---,0.00,VWS V14.01,2013-02-16 01:09:00,
2013-02-15 19:10:00,47.6,28.4,30.33,North,0,3.6,7.2,47,0.00,,---,0.00,VWS V14.01,2013-02-16 01:10:00,
2013-02-15 19:11:00,47.0,27.9,30.33,NNW,338,6.5,7.8,47,0.00,,---,0.00,VWS V14.01,2013-02-16 01:11:00,
2013-02-15 19:12:00,47.4,28.2,30.33,NNW,338,9.2,9.2,47,0.00,,---,0.00,VWS V14.01,2013-02-16 01:12:00,
2013-02-15 19:13:00,47.4,28.2,30.33,North,0,9.6,11.0,47,0.00,,---,0.00,VWS V14.01,2013-02-16 01:13:00,
2013-02-15 19:14:00,47.4,28.2,30.33,North,0,9.0,9.6,47,0.00,,---,0.00,VWS V14.01,2013-02-16 01:14:00,
2013-02-15 19:15:00,47.4,28.2,30.33,NNW,338,2.2,9.0,47,0.00,,---,0.00,VWS V14.01,2013-02-16 01:15:00,
2013-02-15 19:16:00,46.9,27.2,30.33,North,0,8.5,8.7,46,0.00,,---,0.00,VWS V14.01,2013-02-16 01:16:00,
2013-02-15 19:17:00,47.4,28.2,30.33,NNW,338,2.7,6.0,47,0.00,,---,0.00,VWS V14.01,2013-02-16 01:17:00,
2013-02-15 19:18:00,47.2,28.0,30.33,North,0,2.5,3.8,47,0.00,,---,0.00,VWS V14.01,2013-02-16 01:18:00,
2013-02-15 19:19:00,47.2,28.0,30.33,WNW,292,5.6,7.2,47,0.00,,---,0.00,VWS V14.01,2013-02-16 01:19:00,
2013-02-15 19:20:00,47.2,28.0,30.33,NNW,338,6.0,6.0,47,0.00,,---,0.00,VWS V14.01,2013-02-16 01:20:00,
2013-02-15 19:21:00,46.9,26.6,30.36,North,0,12.3,13.0,45,0.00,,---,0.00,VWS V14.01,2013-02-16 01:21:00,
2013-02-15 19:22:00,47.2,28.0,30.33,NNW,338,4.3,8.5,47,0.00,,---,0.00,VWS V14.01,2013-02-16 01:22:00,
2013-02-15 19:23:00,47.0,27.9,30.33,NNW,338,6.5,7.8,47,0.00,,---,0.00,VWS V14.01,2013-02-16 01:23:00,
2013-02-15 19:24:00,47.0,27.9,30.33,North,0,5.4,6.5,47,0.00,,---,0.00,VWS V14.01,2013-02-16 01:24:00,
2013-02-15 19:25:00,47.0,27.9,30.33,North,0,7.6,7.6,47,0.00,,---,0.00,VWS V14.01,2013-02-16 01:25:00,
2013-02-15 19:26:00,46.7,26.5,30.36,North,0,10.5,11.0,45,0.00,,---,0.00,VWS V14.01,2013-02-16 01:26:00,
2013-02-15 19:28:00,46.9,27.2,30.33,North,0,8.5,8.7,46,0.00,,---,0.00,VWS V14.01,2013-02-16 01:28:00,
2013-02-15 19:29:00,46.9,27.2,30.33,NNW,338,8.5,8.5,46,0.00,,---,0.00,VWS V14.01,2013-02-16 01:29:00,
2013-02-15 19:30:00,46.9,26.6,30.33,NNW,338,7.6,10.5,45,0.00,,---,0.00,VWS V14.01,2013-02-16 01:30:00,
2013-02-15 19:31:00,46.5,25.8,30.36,NNW,338,7.8,13.2,44,0.00,,---,0.00,VWS V14.01,2013-02-16 01:31:00,
2013-02-15 19:32:00,46.9,27.2,30.36,North,0,6.3,8.7,46,0.00,,---,0.00,VWS V14.01,2013-02-16 01:32:00,
2013-02-15 19:34:00,46.9,26.6,30.36,NNW,338,6.5,13.2,45,0.00,,---,0.00,VWS V14.01,2013-02-16 01:34:00,
2013-02-15 19:36:00,46.3,25.1,30.36,NW,315,9.2,10.5,43,0.00,,---,0.00,VWS V14.01,2013-02-16 01:36:00,
2013-02-15 19:37:00,46.7,26.5,30.36,NNW,338,5.8,7.8,45,0.00,,---,0.00,VWS V14.01,2013-02-16 01:37:00,
2013-02-15 19:38:00,46.7,26.5,30.36,North,0,10.5,11.0,45,0.00,,---,0.00,VWS V14.01,2013-02-16 01:38:00,
2013-02-15 19:39:00,46.7,26.5,30.36,North,0,8.1,10.5,45,0.00,,---,0.00,VWS V14.01,2013-02-16 01:39:00,
2013-02-15 19:40:00,46.5,26.3,30.36,NNW,338,7.6,8.1,45,0.00,,---,0.00,VWS V14.01,2013-02-16 01:40:00,
2013-02-15 19:41:00,46.2,24.4,30.36,NNW,338,13.0,13.0,42,0.00,,---,0.00,VWS V14.01,2013-02-16 01:41:00,
2013-02-15 19:42:00,46.5,26.3,30.36,North,0,9.8,9.8,45,0.00,,---,0.00,VWS V14.01,2013-02-16 01:42:00,
2013-02-15 19:43:00,46.5,25.8,30.36,NNW,338,7.8,13.2,44,0.00,,---,0.00,VWS V14.01,2013-02-16 01:43:00,
2013-02-15 19:44:00,46.5,25.2,30.36,NNW,338,11.0,15.9,43,0.00,,---,0.00,VWS V14.01,2013-02-16 01:44:00,
2013-02-15 19:45:00,46.5,25.2,30.36,NNW,338,13.0,13.0,43,0.00,,---,0.00,VWS V14.01,2013-02-16 01:45:00,
2013-02-15 19:46:00,46.0,24.2,30.36,North,0,5.4,5.4,42,0.00,,---,0.00,VWS V14.01,2013-02-16 01:46:00,
2013-02-15 19:47:00,46.5,25.2,30.36,NW,315,8.5,15.4,43,0.00,,---,0.00,VWS V14.01,2013-02-16 01:47:00,
2013-02-15 19:48:00,46.3,25.1,30.36,NW,315,9.2,10.5,43,0.00,,---,0.00,VWS V14.01,2013-02-16 01:48:00,
2013-02-15 19:49:00,46.3,25.1,30.36,NNW,338,9.6,17.5,43,0.00,,---,0.00,VWS V14.01,2013-02-16 01:49:00,
2013-02-15 19:50:00,46.3,24.5,30.36,NNW,338,7.4,12.8,42,0.00,,---,0.00,VWS V14.01,2013-02-16 01:50:00,
2013-02-15 19:51:00,45.6,23.9,30.36,North,0,5.4,5.4,42,0.00,,---,0.00,VWS V14.01,2013-02-16 01:51:00,
2013-02-15 19:52:00,46.2,24.4,30.36,North,0,10.7,12.1,42,0.00,,---,0.00,VWS V14.01,2013-02-16 01:52:00,
2013-02-15 19:53:00,46.2,24.4,30.36,NNW,338,13.0,13.0,42,0.00,,---,0.00,VWS V14.01,2013-02-16 01:53:00,
2013-02-15 19:54:00,46.0,24.2,30.36,North,0,5.4,13.0,42,0.00,,---,0.00,VWS V14.01,2013-02-16 01:54:00,
2013-02-15 19:55:00,46.0,24.2,30.36,North,0,5.4,5.4,42,0.00,,---,0.00,VWS V14.01,2013-02-16 01:55:00,
2013-02-15 19:56:00,45.5,23.7,30.36,North,0,5.4,5.4,42,0.00,,---,0.00,VWS V14.01,2013-02-16 01:56:00,
2013-02-15 19:57:00,46.0,24.2,30.36,North,0,5.4,5.4,42,0.00,,---,0.00,VWS V14.01,2013-02-16 01:57:00,
2013-02-15 19:58:00,46.0,24.2,30.36,North,0,5.4,5.4,42,0.00,,---,0.00,VWS V14.01,2013-02-16 01:58:00,
2013-02-15 19:59:00,45.8,24.0,30.36,North,0,5.4,5.4,42,0.00,,---,0.00,VWS V14.01,2013-02-16 01:59:00,
2013-02-15 20:00:00,45.8,24.0,30.36,North,0,5.4,5.4,42,0.00,,---,0.00,VWS V14.01,2013-02-16 02:00:00,
2013-02-15 20:01:00,45.3,22.4,30.36,North,0,5.4,5.4,40,0.00,,---,0.00,VWS V14.01,2013-02-16 02:01:00,
2013-02-15 20:02:00,45.8,24.0,30.36,North,0,5.4,5.4,42,0.00,,---,0.00,VWS V14.01,2013-02-16 02:02:00,
2013-02-15 20:03:00,45.6,23.9,30.36,North,0,5.4,5.4,42,0.00,,---,0.00,VWS V14.01,2013-02-16 02:03:00,
2013-02-15 20:05:00,45.6,23.9,30.36,North,0,5.4,5.4,42,0.00,,---,0.00,VWS V14.01,2013-02-16 02:05:00,
2013-02-15 20:06:00,45.1,21.6,30.36,North,0,5.4,5.4,39,0.00,,---,0.00,VWS V14.01,2013-02-16 02:06:00,
2013-02-15 20:07:00,45.5,23.7,30.36,North,0,5.4,5.4,42,0.00,,---,0.00,VWS V14.01,2013-02-16 02:07:00,
2013-02-15 20:08:00,45.5,23.7,30.36,North,0,5.4,5.4,42,0.00,,---,0.00,VWS V14.01,2013-02-16 02:08:00,
2013-02-15 20:09:00,45.5,23.1,30.36,North,0,5.4,5.4,41,0.00,,---,0.00,VWS V14.01,2013-02-16 02:09:00,
2013-02-15 20:10:00,45.5,23.1,30.36,North,0,5.4,5.4,41,0.00,,---,0.00,VWS V14.01,2013-02-16 02:10:00,
2013-02-15 20:11:00,44.9,20.9,30.36,North,0,5.4,5.4,38,0.00,,---,0.00,VWS V14.01,2013-02-16 02:11:00,
2013-02-15 20:12:00,45.3,22.4,30.36,North,0,5.4,5.4,40,0.00,,---,0.00,VWS V14.01,2013-02-16 02:12:00,
2013-02-15 20:13:00,45.3,22.4,30.36,North,0,5.4,5.4,40,0.00,,---,0.00,VWS V14.01,2013-02-16 02:13:00,
2013-02-15 20:14:00,45.3,22.4,30.36,North,0,5.4,5.4,40,0.00,,---,0.00,VWS V14.01,2013-02-16 02:14:00,
2013-02-15 20:15:00,45.3,22.4,30.36,North,0,5.4,5.4,40,0.00,,---,0.00,VWS V14.01,2013-02-16 02:15:00,
2013-02-15 20:16:00,44.9,20.9,30.36,North,0,8.5,8.5,38,0.00,,---,0.00,VWS V14.01,2013-02-16 02:16:00,
2013-02-15 20:17:00,45.1,21.6,30.36,North,0,5.4,5.4,39,0.00,,---,0.00,VWS V14.01,2013-02-16 02:17:00,
2013-02-15 20:18:00,45.1,21.6,30.36,North,0,5.4,5.4,39,0.00,,---,0.00,VWS V14.01,2013-02-16 02:18:00,
2013-02-15 20:19:00,45.1,21.6,30.36,North,0,5.4,5.4,39,0.00,,---,0.00,VWS V14.01,2013-02-16 02:19:00,
2013-02-15 20:20:00,45.1,21.6,30.36,North,0,5.4,5.4,39,0.00,,---,0.00,VWS V14.01,2013-02-16 02:20:00,
2013-02-15 20:21:00,44.9,20.2,30.36,NNW,338,6.3,9.0,37,0.00,,---,0.00,VWS V14.01,2013-02-16 02:21:00,
2013-02-15 20:22:00,44.9,21.5,30.36,North,0,5.4,5.4,39,0.00,,---,0.00,VWS V14.01,2013-02-16 02:22:00,
2013-02-15 20:24:00,44.9,20.9,30.36,North,0,7.6,7.6,38,0.00,,---,0.00,VWS V14.01,2013-02-16 02:24:00,
2013-02-15 20:25:00,44.9,20.9,30.36,NNE,22,4.0,7.6,38,0.00,,---,0.00,VWS V14.01,2013-02-16 02:25:00,
2013-02-15 20:26:00,44.7,20.1,30.36,North,0,7.8,8.7,37,0.00,,---,0.00,VWS V14.01,2013-02-16 02:26:00,
2013-02-15 20:27:00,44.9,20.9,30.36,NNW,338,6.5,7.8,38,0.00,,---,0.00,VWS V14.01,2013-02-16 02:27:00,
2013-02-15 20:28:00,44.9,20.9,30.36,North,0,8.5,8.5,38,0.00,,---,0.00,VWS V14.01,2013-02-16 02:28:00,
2013-02-15 20:29:00,44.9,20.2,30.36,NW,315,9.8,11.2,37,0.00,,---,0.00,VWS V14.01,2013-02-16 02:29:00,
2013-02-15 20:30:00,44.9,20.2,30.36,North,0,4.9,9.8,37,0.00,,---,0.00,VWS V14.01,2013-02-16 02:30:00,
2013-02-15 20:31:00,44.6,19.9,30.36,NNW,338,6.5,6.5,37,0.00,,---,0.00,VWS V14.01,2013-02-16 02:31:00,
2013-02-15 20:32:00,44.9,20.2,30.36,North,0,4.3,6.5,37,0.00,,---,0.00,VWS V14.01,2013-02-16 02:32:00,
2013-02-15 20:33:00,44.9,20.2,30.36,NNW,338,6.3,9.0,37,0.00,,---,0.00,VWS V14.01,2013-02-16 02:33:00,
2013-02-15 20:34:00,44.9,20.2,30.36,NNW,338,5.6,7.6,37,0.00,,---,0.00,VWS V14.01,2013-02-16 02:34:00,
2013-02-15 20:35:00,44.9,20.2,30.36,NNW,338,5.6,7.8,37,0.00,,---,0.00,VWS V14.01,2013-02-16 02:35:00,
2013-02-15 20:36:00,44.4,19.8,30.36,NNW,338,6.5,6.5,37,0.00,,---,0.00,VWS V14.01,2013-02-16 02:36:00,
2013-02-15 20:37:00,44.7,20.1,30.36,North,0,5.4,6.0,37,0.00,,---,0.00,VWS V14.01,2013-02-16 02:37:00,
2013-02-15 20:38:00,44.7,20.1,30.36,North,0,7.8,8.7,37,0.00,,---,0.00,VWS V14.01,2013-02-16 02:38:00,
2013-02-15 20:39:00,44.7,20.1,30.36,North,0,4.3,8.5,37,0.00,,---,0.00,VWS V14.01,2013-02-16 02:39:00,
2013-02-15 20:40:00,44.7,20.1,30.36,North,0,3.8,6.3,37,0.00,,---,0.00,VWS V14.01,2013-02-16 02:40:00,
2013-02-15 20:41:00,44.2,20.2,30.36,NNW,338,6.5,6.5,38,0.00,,---,0.00,VWS V14.01,2013-02-16 02:41:00,
2013-02-15 20:42:00,44.7,20.1,30.36,NNW,338,6.5,6.5,37,0.00,,---,0.00,VWS V14.01,2013-02-16 02:42:00,
2013-02-15 20:43:00,44.6,19.9,30.36,NNW,338,6.5,6.5,37,0.00,,---,0.00,VWS V14.01,2013-02-16 02:43:00,
2013-02-15 20:44:00,44.6,19.9,30.36,NNW,338,6.5,6.5,37,0.00,,---,0.00,VWS V14.01,2013-02-16 02:44:00,
2013-02-15 20:45:00,44.6,19.9,30.36,NNW,338,6.5,6.5,37,0.00,,---,0.00,VWS V14.01,2013-02-16 02:45:00,
2013-02-15 20:46:00,44.0,20.1,30.36,NNW,338,6.5,6.5,38,0.00,,---,0.00,VWS V14.01,2013-02-16 02:46:00,
2013-02-15 20:47:00,44.4,19.8,30.36,NNW,338,6.5,6.5,37,0.00,,---,0.00,VWS V14.01,2013-02-16 02:47:00,
2013-02-15 20:48:00,44.4,19.8,30.36,NNW,338,6.5,6.5,37,0.00,,---,0.00,VWS V14.01,2013-02-16 02:48:00,
2013-02-15 20:49:00,44.4,19.8,30.36,NNW,338,6.5,6.5,37,0.00,,---,0.00,VWS V14.01,2013-02-16 02:49:00,
2013-02-15 20:50:00,44.4,19.8,30.36,NNW,338,6.5,6.5,37,0.00,,---,0.00,VWS V14.01,2013-02-16 02:50:00,
2013-02-15 20:51:00,43.8,19.9,30.39,NNW,338,6.5,6.5,38,0.00,,---,0.00,VWS V14.01,2013-02-16 02:51:00,
2013-02-15 20:52:00,44.4,19.8,30.36,NNW,338,6.5,6.5,37,0.00,,---,0.00,VWS V14.01,2013-02-16 02:52:00,
2013-02-15 20:53:00,44.2,20.2,30.36,NNW,338,6.5,6.5,38,0.00,,---,0.00,VWS V14.01,2013-02-16 02:53:00,
2013-02-15 20:54:00,44.0,20.1,30.36,NNW,338,6.5,6.5,38,0.00,,---,0.00,VWS V14.01,2013-02-16 02:54:00,
2013-02-15 20:55:00,44.0,20.1,30.36,NNW,338,6.5,6.5,38,0.00,,---,0.00,VWS V14.01,2013-02-16 02:55:00,
2013-02-15 20:56:00,43.7,19.8,30.39,NNW,338,6.5,6.5,38,0.00,,---,0.00,VWS V14.01,2013-02-16 02:56:00,
2013-02-15 20:57:00,44.0,20.1,30.36,NNW,338,6.5,6.5,38,0.00,,---,0.00,VWS V14.01,2013-02-16 02:57:00,
2013-02-15 20:58:00,44.0,20.1,30.36,NNW,338,6.5,6.5,38,0.00,,---,0.00,VWS V14.01,2013-02-16 02:58:00,
2013-02-15 20:59:00,44.0,20.1,30.36,NNW,338,6.5,6.5,38,0.00,,---,0.00,VWS V14.01,2013-02-16 02:59:00,
2013-02-15 21:00:00,44.0,20.1,30.36,NNW,338,6.5,6.5,38,0.00,,---,0.00,VWS V14.01,2013-02-16 03:00:00,
2013-02-15 21:01:00,43.3,19.4,30.39,NNW,338,6.5,6.5,38,0.00,,---,0.00,VWS V14.01,2013-02-16 03:01:00,
2013-02-15 21:02:00,43.8,19.9,30.39,NNW,338,6.5,6.5,38,0.00,,---,0.00,VWS V14.01,2013-02-16 03:02:00,
2013-02-15 21:03:00,43.8,19.9,30.39,NNW,338,6.5,6.5,38,0.00,,---,0.00,VWS V14.01,2013-02-16 03:03:00,
2013-02-15 21:04:00,43.7,19.8,30.39,NNW,338,6.5,6.5,38,0.00,,---,0.00,VWS V14.01,2013-02-16 03:04:00,
2013-02-15 21:05:00,43.7,19.8,30.39,NNW,338,6.5,6.5,38,0.00,,---,0.00,VWS V14.01,2013-02-16 03:05:00,
2013-02-15 21:06:00,43.0,19.7,30.39,NNW,338,6.5,6.5,39,0.00,,---,0.00,VWS V14.01,2013-02-16 03:06:00,
2013-02-15 21:07:00,43.7,19.8,30.39,NNW,338,6.5,6.5,38,0.00,,---,0.00,VWS V14.01,2013-02-16 03:07:00,
2013-02-15 21:08:00,43.7,19.8,30.39,NNW,338,6.5,6.5,38,0.00,,---,0.00,VWS V14.01,2013-02-16 03:08:00,
2013-02-15 21:09:00,43.5,19.6,30.39,NNW,338,6.5,6.5,38,0.00,,---,0.00,VWS V14.01,2013-02-16 03:09:00,
2013-02-15 21:10:00,43.5,19.6,30.39,NNW,338,6.5,6.5,38,0.00,,---,0.00,VWS V14.01,2013-02-16 03:10:00,
2013-02-15 21:11:00,42.4,19.2,30.39,NNW,338,6.5,6.5,39,0.00,,---,0.00,VWS V14.01,2013-02-16 03:11:00,
2013-02-15 21:12:00,43.3,19.4,30.39,NNW,338,6.5,6.5,38,0.00,,---,0.00,VWS V14.01,2013-02-16 03:12:00,
2013-02-15 21:13:00,43.3,19.4,30.39,NNW,338,6.5,6.5,38,0.00,,---,0.00,VWS V14.01,2013-02-16 03:13:00,
2013-02-15 21:14:00,43.1,19.3,30.39,NNW,338,6.5,6.5,38,0.00,,---,0.00,VWS V14.01,2013-02-16 03:14:00,
2013-02-15 21:15:00,43.1,19.3,30.39,NNW,338,6.5,6.5,38,0.00,,---,0.00,VWS V14.01,2013-02-16 03:15:00,
2013-02-15 21:16:00,42.1,18.9,30.39,NNW,338,6.5,6.5,39,0.00,,---,0.00,VWS V14.01,2013-02-16 03:16:00,
2013-02-15 21:17:00,43.0,19.7,30.39,NNW,338,6.5,6.5,39,0.00,,---,0.00,VWS V14.01,2013-02-16 03:17:00,
2013-02-15 21:18:00,43.0,19.7,30.39,NNW,338,6.5,6.5,39,0.00,,---,0.00,VWS V14.01,2013-02-16 03:18:00,
2013-02-15 21:19:00,43.0,19.7,30.39,NNW,338,6.5,6.5,39,0.00,,---,0.00,VWS V14.01,2013-02-16 03:19:00,
2013-02-15 21:20:00,42.8,19.6,30.39,NNW,338,6.5,6.5,39,0.00,,---,0.00,VWS V14.01,2013-02-16 03:20:00,
2013-02-15 21:21:00,41.9,18.8,30.39,NNW,338,6.5,6.5,39,0.00,,---,0.00,VWS V14.01,2013-02-16 03:21:00,
2013-02-15 21:22:00,42.6,19.4,30.39,NNW,338,6.5,6.5,39,0.00,,---,0.00,VWS V14.01,2013-02-16 03:22:00,
2013-02-15 21:23:00,42.4,19.2,30.39,NNW,338,6.5,6.5,39,0.00,,---,0.00,VWS V14.01,2013-02-16 03:23:00,
2013-02-15 21:24:00,42.4,19.2,30.39,NNW,338,6.5,6.5,39,0.00,,---,0.00,VWS V14.01,2013-02-16 03:24:00,
2013-02-15 21:25:00,42.4,19.2,30.39,NNW,338,6.5,6.5,39,0.00,,---,0.00,VWS V14.01,2013-02-16 03:25:00,
2013-02-15 21:26:00,42.4,19.2,30.39,NNW,338,6.5,6.5,39,0.00,,---,0.00,VWS V14.01,2013-02-16 03:26:00,
2013-02-15 21:27:00,41.5,19.0,30.39,NNW,338,6.5,6.5,40,0.00,,---,0.00,VWS V14.01,2013-02-16 03:27:00,
2013-02-15 21:28:00,42.1,18.9,30.39,NNW,338,6.5,6.5,39,0.00,,---,0.00,VWS V14.01,2013-02-16 03:28:00,
2013-02-15 21:29:00,42.1,18.9,30.39,NNW,338,6.5,6.5,39,0.00,,---,0.00,VWS V14.01,2013-02-16 03:29:00,
2013-02-15 21:30:00,41.9,18.8,30.39,NNW,338,6.5,6.5,39,0.00,,---,0.00,VWS V14.01,2013-02-16 03:30:00,
2013-02-15 21:31:00,41.9,18.8,30.39,NNW,338,6.5,6.5,39,0.00,,---,0.00,VWS V14.01,2013-02-16 03:31:00,
2013-02-15 21:32:00,41.2,18.7,30.39,NNW,338,6.5,6.5,40,0.00,,---,0.00,VWS V14.01,2013-02-16 03:32:00,
2013-02-15 21:33:00,41.9,18.8,30.39,NNW,338,6.5,6.5,39,0.00,,---,0.00,VWS V14.01,2013-02-16 03:33:00,
2013-02-15 21:34:00,41.7,18.6,30.39,NNW,338,6.5,6.5,39,0.00,,---,0.00,VWS V14.01,2013-02-16 03:34:00,
2013-02-15 21:35:00,41.7,18.6,30.39,NNW,338,6.5,6.5,39,0.00,,---,0.00,VWS V14.01,2013-02-16 03:35:00,
2013-02-15 21:36:00,41.7,18.6,30.39,NNW,338,6.5,6.5,39,0.00,,---,0.00,VWS V14.01,2013-02-16 03:36:00,
2013-02-15 21:37:00,40.3,17.9,30.41,NNW,338,6.5,6.5,40,0.00,,---,0.00,VWS V14.01,2013-02-16 03:37:00,
2013-02-15 21:38:00,41.5,19.0,30.39,NNW,338,6.5,6.5,40,0.00,,---,0.00,VWS V14.01,2013-02-16 03:38:00,
2013-02-15 21:39:00,41.5,19.0,30.39,NNW,338,6.5,6.5,40,0.00,,---,0.00,VWS V14.01,2013-02-16 03:39:00,
2013-02-15 21:40:00,41.5,19.0,30.39,NNW,338,6.5,6.5,40,0.00,,---,0.00,VWS V14.01,2013-02-16 03:40:00,
2013-02-15 21:41:00,41.4,18.9,30.39,NNW,338,6.5,6.5,40,0.00,,---,0.00,VWS V14.01,2013-02-16 03:41:00,
2013-02-15 21:42:00,39.8,17.4,30.41,NNW,338,6.5,6.5,40,0.00,,---,0.00,VWS V14.01,2013-02-16 03:42:00,
2013-02-15 21:43:00,41.2,18.7,30.39,NNW,338,6.5,6.5,40,0.00,,---,0.00,VWS V14.01,2013-02-16 03:43:00,
2013-02-15 21:44:00,41.2,18.7,30.39,NNW,338,6.5,6.5,40,0.00,,---,0.00,VWS V14.01,2013-02-16 03:44:00,
2013-02-15 21:45:00,40.8,18.4,30.39,NNW,338,6.5,6.5,40,0.00,,---,0.00,VWS V14.01,2013-02-16 03:45:00,
2013-02-15 21:46:00,40.7,18.2,30.39,NNW,338,6.5,6.5,40,0.00,,---,0.00,VWS V14.01,2013-02-16 03:46:00,
2013-02-15 21:47:00,39.2,17.0,30.41,NNW,338,6.5,6.5,40,0.00,,---,0.00,VWS V14.01,2013-02-16 03:47:00,
2013-02-15 21:48:00,40.3,17.9,30.41,NNW,338,6.5,6.5,40,0.00,,---,0.00,VWS V14.01,2013-02-16 03:48:00,
2013-02-15 21:49:00,40.1,17.8,30.41,NNW,338,6.5,6.5,40,0.00,,---,0.00,VWS V14.01,2013-02-16 03:49:00,
2013-02-15 21:50:00,40.1,17.8,30.41,NNW,338,6.5,6.5,40,0.00,,---,0.00,VWS V14.01,2013-02-16 03:50:00,
2013-02-15 21:51:00,40.1,17.8,30.41,NNW,338,6.5,6.5,40,0.00,,---,0.00,VWS V14.01,2013-02-16 03:51:00,
2013-02-15 21:52:00,39.1,17.4,30.41,NNW,338,6.5,6.5,41,0.00,,---,0.00,VWS V14.01,2013-02-16 03:52:00,
2013-02-15 21:53:00,39.8,17.4,30.41,NNW,338,6.5,6.5,40,0.00,,---,0.00,VWS V14.01,2013-02-16 03:53:00,
2013-02-15 21:54:00,39.6,17.3,30.41,NNW,338,6.5,6.5,40,0.00,,---,0.00,VWS V14.01,2013-02-16 03:54:00,
2013-02-15 21:55:00,39.6,17.3,30.41,NNW,338,6.5,6.5,40,0.00,,---,0.00,VWS V14.01,2013-02-16 03:55:00,
2013-02-15 21:56:00,39.6,17.3,30.41,NNW,338,6.5,6.5,40,0.00,,---,0.00,VWS V14.01,2013-02-16 03:56:00,
2013-02-15 21:57:00,38.3,16.7,30.41,NNW,338,6.5,6.5,41,0.00,,---,0.00,VWS V14.01,2013-02-16 03:57:00,
2013-02-15 21:58:00,39.4,17.1,30.41,NNW,338,6.5,6.5,40,0.00,,---,0.00,VWS V14.01,2013-02-16 03:58:00,
2013-02-15 21:59:00,39.2,17.0,30.41,NNW,338,6.5,6.5,40,0.00,,---,0.00,VWS V14.01,2013-02-16 03:59:00,
2013-02-15 22:00:00,39.2,17.5,30.41,NNW,338,6.5,6.5,41,0.00,,---,0.00,VWS V14.01,2013-02-16 04:00:00,
2013-02-15 22:02:00,38.0,16.4,30.41,NNW,338,6.5,6.5,41,0.00,,---,0.00,VWS V14.01,2013-02-16 04:02:00,
2013-02-15 22:03:00,39.1,17.4,30.41,NNW,338,6.5,6.5,41,0.00,,---,0.00,VWS V14.01,2013-02-16 04:03:00,
2013-02-15 22:04:00,38.9,17.2,30.41,NNW,338,6.5,6.5,41,0.00,,---,0.00,VWS V14.01,2013-02-16 04:04:00,
2013-02-15 22:05:00,38.9,17.2,30.41,NNW,338,6.5,6.5,41,0.00,,---,0.00,VWS V14.01,2013-02-16 04:05:00,
2013-02-15 22:06:00,38.7,17.0,30.41,NNW,338,6.5,6.5,41,0.00,,---,0.00,VWS V14.01,2013-02-16 04:06:00,
2013-02-15 22:07:00,37.8,16.8,30.41,NNW,338,6.5,6.5,42,0.00,,---,0.00,VWS V14.01,2013-02-16 04:07:00,
2013-02-15 22:08:00,38.3,16.7,30.41,NNW,338,6.5,6.5,41,0.00,,---,0.00,VWS V14.01,2013-02-16 04:08:00,
2013-02-15 22:09:00,38.3,16.7,30.41,NNW,338,6.5,6.5,41,0.00,,---,0.00,VWS V14.01,2013-02-16 04:09:00,
2013-02-15 22:10:00,38.3,16.7,30.41,NNW,338,6.5,6.5,41,0.00,,---,0.00,VWS V14.01,2013-02-16 04:10:00,
2013-02-15 22:11:00,38.3,16.7,30.41,NNW,338,6.5,6.5,41,0.00,,---,0.00,VWS V14.01,2013-02-16 04:11:00,
2013-02-15 22:12:00,37.8,16.8,30.41,NNW,338,6.5,6.5,42,0.00,,---,0.00,VWS V14.01,2013-02-16 04:12:00,
2013-02-15 22:13:00,38.2,16.6,30.41,NNW,338,6.5,6.5,41,0.00,,---,0.00,VWS V14.01,2013-02-16 04:13:00,
2013-02-15 22:14:00,38.0,16.4,30.41,NNW,338,6.5,6.5,41,0.00,,---,0.00,VWS V14.01,2013-02-16 04:14:00,
2013-02-15 22:15:00,37.8,16.8,30.41,NNW,338,6.5,6.5,42,0.00,,---,0.00,VWS V14.01,2013-02-16 04:15:00,
2013-02-15 22:16:00,37.8,16.8,30.41,NNW,338,6.5,6.5,42,0.00,,---,0.00,VWS V14.01,2013-02-16 04:16:00,
2013-02-15 22:17:00,38.0,17.0,30.41,NNW,338,6.5,6.5,42,0.00,,---,0.00,VWS V14.01,2013-02-16 04:17:00,
2013-02-15 22:18:00,37.8,16.8,30.41,NNW,338,6.5,6.5,42,0.00,,---,0.00,VWS V14.01,2013-02-16 04:18:00,
2013-02-15 22:19:00,37.6,16.6,30.41,NNW,338,6.5,6.5,42,0.00,,---,0.00,VWS V14.01,2013-02-16 04:19:00,
2013-02-15 22:20:00,37.6,16.6,30.41,NNW,338,6.5,6.5,42,0.00,,---,0.00,VWS V14.01,2013-02-16 04:20:00,
2013-02-15 22:21:00,37.6,16.6,30.41,NNW,338,6.5,6.5,42,0.00,,---,0.00,VWS V14.01,2013-02-16 04:21:00,
2013-02-15 22:22:00,38.3,17.3,30.41,West,270,1.1,1.1,42,0.00,,---,0.00,VWS V14.01,2013-02-16 04:22:00,
2013-02-15 22:23:00,37.8,16.8,30.41,NNW,338,6.5,6.5,42,0.00,,---,0.00,VWS V14.01,2013-02-16 04:23:00,
2013-02-15 22:24:00,38.0,17.0,30.41,NNW,338,6.5,6.5,42,0.00,,---,0.00,VWS V14.01,2013-02-16 04:24:00,
2013-02-15 22:25:00,38.0,17.0,30.41,NNW,338,6.5,6.5,42,0.00,,---,0.00,VWS V14.01,2013-02-16 04:25:00,
2013-02-15 22:26:00,38.0,17.0,30.41,NNW,338,6.5,6.5,42,0.00,,---,0.00,VWS V14.01,2013-02-16 04:26:00,
2013-02-15 22:27:00,38.2,17.1,30.41,West,270,0.0,0.0,42,0.00,,---,0.00,VWS V14.01,2013-02-16 04:27:00,
2013-02-15 22:28:00,38.0,17.0,30.41,NNW,338,6.5,6.5,42,0.00,,---,0.00,VWS V14.01,2013-02-16 04:28:00,
2013-02-15 22:29:00,38.0,17.0,30.41,NNW,338,6.5,6.5,42,0.00,,---,0.00,VWS V14.01,2013-02-16 04:29:00,
2013-02-15 22:30:00,38.2,17.1,30.41,NNW,338,6.5,6.5,42,0.00,,---,0.00,VWS V14.01,2013-02-16 04:30:00,
2013-02-15 22:31:00,38.2,17.1,30.41,NNW,338,6.5,6.5,42,0.00,,---,0.00,VWS V14.01,2013-02-16 04:31:00,
2013-02-15 22:32:00,38.0,17.0,30.41,West,270,0.0,0.0,42,0.00,,---,0.00,VWS V14.01,2013-02-16 04:32:00,
2013-02-15 22:33:00,38.3,17.3,30.41,WNW,292,0.0,0.0,42,0.00,,---,0.00,VWS V14.01,2013-02-16 04:33:00,
2013-02-15 22:34:00,38.3,17.3,30.41,West,270,0.0,1.1,42,0.00,,---,0.00,VWS V14.01,2013-02-16 04:34:00,
2013-02-15 22:35:00,38.3,17.3,30.41,West,270,0.0,0.0,42,0.00,,---,0.00,VWS V14.01,2013-02-16 04:35:00,
2013-02-15 22:36:00,38.3,17.3,30.41,West,270,0.0,0.0,42,0.00,,---,0.00,VWS V14.01,2013-02-16 04:36:00,
2013-02-15 22:37:00,37.8,17.4,30.41,West,270,0.0,0.0,43,0.00,,---,0.00,VWS V14.01,2013-02-16 04:37:00,
2013-02-15 22:38:00,38.2,17.1,30.41,West,270,0.0,0.0,42,0.00,,---,0.00,VWS V14.01,2013-02-16 04:38:00,
2013-02-15 22:39:00,38.2,17.1,30.41,West,270,0.0,0.0,42,0.00,,---,0.00,VWS V14.01,2013-02-16 04:39:00,
2013-02-15 22:40:00,38.2,17.1,30.41,West,270,0.0,0.0,42,0.00,,---,0.00,VWS V14.01,2013-02-16 04:40:00,
2013-02-15 22:41:00,38.2,17.1,30.41,West,270,0.0,0.0,42,0.00,,---,0.00,VWS V14.01,2013-02-16 04:41:00,
2013-02-15 22:42:00,37.8,17.4,30.41,West,270,0.0,0.0,43,0.00,,---,0.00,VWS V14.01,2013-02-16 04:42:00,
2013-02-15 22:43:00,38.2,17.1,30.41,West,270,0.0,0.0,42,0.00,,---,0.00,VWS V14.01,2013-02-16 04:43:00,
2013-02-15 22:44:00,38.0,17.0,30.41,West,270,0.0,0.0,42,0.00,,---,0.00,VWS V14.01,2013-02-16 04:44:00,
2013-02-15 22:45:00,38.0,17.0,30.41,West,270,0.0,0.0,42,0.00,,---,0.00,VWS V14.01,2013-02-16 04:45:00,
2013-02-15 22:46:00,37.8,17.4,30.41,West,270,0.0,0.0,43,0.00,,---,0.00,VWS V14.01,2013-02-16 04:46:00,
2013-02-15 22:47:00,37.6,17.2,30.41,NNW,338,0.0,0.0,43,0.00,,---,0.00,VWS V14.01,2013-02-16 04:47:00,
2013-02-15 22:48:00,37.8,16.8,30.41,West,270,0.0,0.0,42,0.00,,---,0.00,VWS V14.01,2013-02-16 04:48:00,
2013-02-15 22:50:00,38.0,17.5,30.41,West,270,0.0,0.0,43,0.00,,---,0.00,VWS V14.01,2013-02-16 04:50:00,
2013-02-15 22:51:00,38.2,17.7,30.41,West,270,0.0,0.0,43,0.00,,---,0.00,VWS V14.01,2013-02-16 04:51:00,
2013-02-15 22:52:00,37.1,16.7,30.41,NNW,338,0.0,0.0,43,0.00,,---,0.00,VWS V14.01,2013-02-16 04:52:00,
2013-02-15 22:53:00,37.8,17.4,30.41,West,270,0.0,0.0,43,0.00,,---,0.00,VWS V14.01,2013-02-16 04:53:00,
2013-02-15 22:54:00,37.8,17.4,30.41,West,270,0.0,0.0,43,0.00,,---,0.00,VWS V14.01,2013-02-16 04:54:00,
2013-02-15 22:55:00,37.8,17.4,30.41,West,270,0.0,0.0,43,0.00,,---,0.00,VWS V14.01,2013-02-16 04:55:00,
2013-02-15 22:56:00,37.8,17.4,30.41,North,0,0.0,0.0,43,0.00,,---,0.00,VWS V14.01,2013-02-16 04:56:00,
2013-02-15 22:57:00,36.6,16.2,30.41,NNW,338,0.0,0.0,43,0.00,,---,0.00,VWS V14.01,2013-02-16 04:57:00,
2013-02-15 22:58:00,37.6,17.2,30.41,NNW,338,0.0,0.0,43,0.00,,---,0.00,VWS V14.01,2013-02-16 04:58:00,
2013-02-15 22:59:00,37.6,17.2,30.41,NNW,338,0.0,0.0,43,0.00,,---,0.00,VWS V14.01,2013-02-16 04:59:00,
2013-02-15 23:00:00,36.6,16.8,30.41,NNW,338,0.0,0.0,44,0.00,,---,0.00,VWS V14.01,2013-02-16 05:00:00,
2013-02-15 23:01:00,37.3,16.9,30.41,NNW,338,0.0,0.0,43,0.00,,---,0.00,VWS V14.01,2013-02-16 05:01:00,
2013-02-15 23:02:00,37.3,16.9,30.41,NNW,338,0.0,0.0,43,0.00,,---,0.00,VWS V14.01,2013-02-16 05:02:00,
2013-02-15 23:03:00,37.1,16.7,30.41,NNW,338,0.0,0.0,43,0.00,,---,0.00,VWS V14.01,2013-02-16 05:03:00,
2013-02-15 23:04:00,37.1,16.7,30.41,NNW,338,0.0,0.0,43,0.00,,---,0.00,VWS V14.01,2013-02-16 05:04:00,
2013-02-15 23:05:00,36.2,16.4,30.41,NNW,338,0.0,0.0,44,0.00,,---,0.00,VWS V14.01,2013-02-16 05:05:00,
2013-02-15 23:06:00,36.8,16.9,30.41,NNW,338,0.0,0.0,44,0.00,,---,0.00,VWS V14.01,2013-02-16 05:06:00,
2013-02-15 23:07:00,36.8,16.9,30.41,NNW,338,0.0,0.0,44,0.00,,---,0.00,VWS V14.01,2013-02-16 05:07:00,
2013-02-15 23:08:00,36.6,16.2,30.41,NNW,338,0.0,0.0,43,0.00,,---,0.00,VWS V14.01,2013-02-16 05:08:00,
2013-02-15 23:09:00,36.6,16.2,30.41,NNW,338,0.0,0.0,43,0.00,,---,0.00,VWS V14.01,2013-02-16 05:09:00,
2013-02-15 23:10:00,36.2,16.9,30.41,NNW,338,0.0,0.0,45,0.00,,---,0.00,VWS V14.01,2013-02-16 05:10:00,
2013-02-15 23:11:00,36.6,16.8,30.41,NNW,338,0.0,0.0,44,0.00,,---,0.00,VWS V14.01,2013-02-16 05:11:00,
2013-02-15 23:12:00,36.4,16.6,30.41,NNW,338,0.0,0.0,44,0.00,,---,0.00,VWS V14.01,2013-02-16 05:12:00,
2013-02-15 23:13:00,36.4,16.6,30.41,NNW,338,0.0,0.0,44,0.00,,---,0.00,VWS V14.01,2013-02-16 05:13:00,
2013-02-15 23:14:00,36.4,16.6,30.41,NNW,338,0.0,0.0,44,0.00,,---,0.00,VWS V14.01,2013-02-16 05:14:00,
2013-02-15 23:15:00,36.4,17.6,30.41,NNW,338,0.0,0.0,46,0.00,,---,0.00,VWS V14.01,2013-02-16 05:15:00,
2013-02-15 23:16:00,36.2,16.4,30.41,NNW,338,0.0,0.0,44,0.00,,---,0.00,VWS V14.01,2013-02-16 05:16:00,
2013-02-15 23:17:00,36.2,16.4,30.41,NNW,338,0.0,0.0,44,0.00,,---,0.00,VWS V14.01,2013-02-16 05:17:00,
2013-02-15 23:18:00,36.2,16.4,30.41,NNW,338,0.0,0.0,44,0.00,,---,0.00,VWS V14.01,2013-02-16 05:18:00,
2013-02-15 23:19:00,36.2,16.4,30.41,NNW,338,0.0,0.0,44,0.00,,---,0.00,VWS V14.01,2013-02-16 05:19:00,
2013-02-15 23:20:00,36.4,17.6,30.41,NNW,338,0.0,0.0,46,0.00,,---,0.00,VWS V14.01,2013-02-16 05:20:00,
2013-02-15 23:21:00,36.2,16.9,30.41,NNW,338,0.0,0.0,45,0.00,,---,0.00,VWS V14.01,2013-02-16 05:21:00,
2013-02-15 23:22:00,36.2,16.9,30.41,NNW,338,0.0,0.0,45,0.00,,---,0.00,VWS V14.01,2013-02-16 05:22:00,
2013-02-15 23:23:00,36.2,17.5,30.41,NNW,338,0.0,0.0,46,0.00,,---,0.00,VWS V14.01,2013-02-16 05:23:00,
2013-02-15 23:24:00,36.2,16.9,30.41,NNW,338,0.0,0.0,45,0.00,,---,0.00,VWS V14.01,2013-02-16 05:24:00,
2013-02-15 23:25:00,36.4,17.6,30.41,NNW,338,0.0,0.0,46,0.00,,---,0.00,VWS V14.01,2013-02-16 05:25:00,
2013-02-15 23:26:00,36.4,17.6,30.41,NNW,338,0.0,0.0,46,0.00,,---,0.00,VWS V14.01,2013-02-16 05:26:00,
2013-02-15 23:27:00,36.4,17.6,30.41,NNW,338,0.0,0.0,46,0.00,,---,0.00,VWS V14.01,2013-02-16 05:27:00,
2013-02-15 23:28:00,36.2,17.5,30.41,NNW,338,0.0,0.0,46,0.00,,---,0.00,VWS V14.01,2013-02-16 05:28:00,
2013-02-15 23:29:00,36.4,17.6,30.41,NNW,338,0.0,0.0,46,0.00,,---,0.00,VWS V14.01,2013-02-16 05:29:00,
2013-02-15 23:30:00,36.4,17.6,30.41,NNW,338,0.0,0.0,46,0.00,,---,0.00,VWS V14.01,2013-02-16 05:30:00,
2013-02-15 23:31:00,36.4,17.6,30.41,NNW,338,0.0,0.0,46,0.00,,---,0.00,VWS V14.01,2013-02-16 05:31:00,
2013-02-15 23:32:00,36.4,17.6,30.41,NNW,338,0.0,0.0,46,0.00,,---,0.00,VWS V14.01,2013-02-16 05:32:00,
2013-02-15 23:33:00,36.0,17.3,30.41,NNW,338,0.0,0.0,46,0.00,,---,0.00,VWS V14.01,2013-02-16 05:33:00,
2013-02-15 23:34:00,36.2,17.5,30.41,NNW,338,0.0,0.0,46,0.00,,---,0.00,VWS V14.01,2013-02-16 05:34:00,
2013-02-15 23:35:00,36.2,17.5,30.41,NNW,338,0.0,0.0,46,0.00,,---,0.00,VWS V14.01,2013-02-16 05:35:00,
2013-02-15 23:36:00,36.2,17.5,30.41,NNW,338,0.0,0.0,46,0.00,,---,0.00,VWS V14.01,2013-02-16 05:36:00,
2013-02-15 23:37:00,36.2,17.5,30.41,NNW,338,0.0,0.0,46,0.00,,---,0.00,VWS V14.01,2013-02-16 05:37:00,
2013-02-15 23:38:00,35.9,17.1,30.41,NNW,338,0.0,0.0,46,0.00,,---,0.00,VWS V14.01,2013-02-16 05:38:00,
2013-02-15 23:39:00,36.2,17.5,30.41,NNW,338,0.0,0.0,46,0.00,,---,0.00,VWS V14.01,2013-02-16 05:39:00,
2013-02-15 23:40:00,36.2,17.5,30.41,NNW,338,0.0,0.0,46,0.00,,---,0.00,VWS V14.01,2013-02-16 05:40:00,
2013-02-15 23:41:00,36.0,17.3,30.41,NNW,338,0.0,0.0,46,0.00,,---,0.00,VWS V14.01,2013-02-16 05:41:00,
2013-02-15 23:42:00,36.0,17.3,30.41,NNW,338,0.0,0.0,46,0.00,,---,0.00,VWS V14.01,2013-02-16 05:42:00,
2013-02-15 23:43:00,35.3,16.6,30.41,NNW,338,0.0,0.0,46,0.00,,---,0.00,VWS V14.01,2013-02-16 05:43:00,
2013-02-15 23:44:00,36.0,17.3,30.41,NNW,338,0.0,0.0,46,0.00,,---,0.00,VWS V14.01,2013-02-16 05:44:00,
2013-02-15 23:45:00,36.0,17.3,30.41,NNW,338,0.0,0.0,46,0.00,,---,0.00,VWS V14.01,2013-02-16 05:45:00,
2013-02-15 23:46:00,35.9,17.1,30.41,NNW,338,0.0,0.0,46,0.00,,---,0.00,VWS V14.01,2013-02-16 05:46:00,
2013-02-15 23:47:00,35.9,17.1,30.41,NNW,338,0.0,0.0,46,0.00,,---,0.00,VWS V14.01,2013-02-16 05:47:00,
2013-02-15 23:48:00,35.0,16.8,30.41,West,270,0.0,0.0,47,0.00,,---,0.00,VWS V14.01,2013-02-16 05:48:00,
2013-02-15 23:49:00,35.9,17.1,30.41,NNW,338,0.0,0.0,46,0.00,,---,0.00,VWS V14.01,2013-02-16 05:49:00,
2013-02-15 23:50:00,35.9,17.1,30.41,NNW,338,0.0,0.0,46,0.00,,---,0.00,VWS V14.01,2013-02-16 05:50:00,
2013-02-15 23:51:00,35.9,17.1,30.41,NNW,338,0.0,0.0,46,0.00,,---,0.00,VWS V14.01,2013-02-16 05:51:00,
2013-02-15 23:52:00,35.9,17.1,30.41,NNW,338,0.0,0.0,46,0.00,,---,0.00,VWS V14.01,2013-02-16 05:52:00,
2013-02-15 23:53:00,34.3,15.7,30.39,West,270,0.0,0.0,46,0.00,,---,0.00,VWS V14.01,2013-02-16 05:53:00,
2013-02-15 23:54:00,35.5,16.8,30.41,NNW,338,0.0,0.0,46,0.00,,---,0.00,VWS V14.01,2013-02-16 05:54:00,
2013-02-15 23:55:00,35.3,16.6,30.41,NNW,338,0.0,0.0,46,0.00,,---,0.00,VWS V14.01,2013-02-16 05:55:00,
2013-02-15 23:56:00,35.3,16.6,30.41,NNW,338,0.0,0.0,46,0.00,,---,0.00,VWS V14.01,2013-02-16 05:56:00,
2013-02-15 23:57:00,35.2,16.5,30.41,NNW,338,0.0,0.0,46,0.00,,---,0.00,VWS V14.01,2013-02-16 05:57:00,
2013-02-15 23:58:00,33.9,15.8,30.39,West,270,0.0,0.0,47,0.00,,---,0.00,VWS V14.01,2013-02-16 05:58:00,
2013-02-15 23:59:00,35.2,17.0,30.41,West,270,0.0,0.0,47,0.00,,---,0.00,VWS V14.01,2013-02-16 05:59:00,